<?xml version='1.0' encoding='UTF-8'?><gpx version="1.1" creator="JPX - https://github.com/jenetics/jpx" xmlns="http://www.topografix.com/GPX/1/1"><trk><trkseg><trkpt lat="41.4057683" lon="13.051784"><ele>4.0</ele><time>2026-05-03T06:26:28.799Z</time></trkpt><trkpt lat="41.4056284" lon="13.0517605"><ele>4.0</ele><time>2026-05-03T06:26:30.799Z</time></trkpt><trkpt lat="41.4057382" lon="13.0517812"><ele>4.0</ele><time>2026-05-03T06:26:37.799Z</time></trkpt><trkpt lat="41.4058027" lon="13.0518386"><ele>4.0</ele><time>2026-05-03T06:27:07.8Z</time></trkpt><trkpt lat="41.4058032" lon="13.0517496"><ele>4.0</ele><time>2026-05-03T06:28:01.799Z</time></trkpt><trkpt lat="41.405735" lon="13.0517436"><ele>3.9999999999999996</ele><time>2026-05-03T06:29:52.839Z</time></trkpt><trkpt lat="41.405773" lon="13.0516416"><ele>4.0</ele><time>2026-05-03T06:30:05.852Z</time></trkpt><trkpt lat="41.4057915" lon="13.0515421"><ele>4.0</ele><time>2026-05-03T06:30:07.799Z</time></trkpt><trkpt lat="41.4058502" lon="13.0514592"><ele>4.0</ele><time>2026-05-03T06:30:10.799Z</time></trkpt><trkpt lat="41.4059152" lon="13.0513909"><ele>3.9999999999999996</ele><time>2026-05-03T06:30:13.799Z</time></trkpt><trkpt lat="41.405966" lon="13.0513124"><ele>4.0</ele><time>2026-05-03T06:30:16.799Z</time></trkpt><trkpt lat="41.4060205" lon="13.0512311"><ele>3.9999999999999996</ele><time>2026-05-03T06:30:19.799Z</time></trkpt><trkpt lat="41.406079" lon="13.0511485"><ele>4.0</ele><time>2026-05-03T06:30:22.799Z</time></trkpt><trkpt lat="41.4061337" lon="13.0510743"><ele>4.0</ele><time>2026-05-03T06:30:25.799Z</time></trkpt><trkpt lat="41.4061729" lon="13.0509925"><ele>4.0</ele><time>2026-05-03T06:30:28.799Z</time></trkpt><trkpt lat="41.406162" lon="13.0508987"><ele>3.9999999999999996</ele><time>2026-05-03T06:30:31.799Z</time></trkpt><trkpt lat="41.4061206" lon="13.0508091"><ele>4.0</ele><time>2026-05-03T06:30:34.799Z</time></trkpt><trkpt lat="41.4060647" lon="13.0507173"><ele>4.166666666666666</ele><time>2026-05-03T06:30:37.799Z</time></trkpt><trkpt lat="41.4059985" lon="13.0506356"><ele>4.333333333333333</ele><time>2026-05-03T06:30:40.799Z</time></trkpt><trkpt lat="41.4059335" lon="13.0505458"><ele>4.5</ele><time>2026-05-03T06:30:43.8Z</time></trkpt><trkpt lat="41.4058907" lon="13.0504823"><ele>4.666666666666667</ele><time>2026-05-03T06:30:45.799Z</time></trkpt><trkpt lat="41.4058361" lon="13.0504186"><ele>4.833333333333334</ele><time>2026-05-03T06:30:47.799Z</time></trkpt><trkpt lat="41.4057906" lon="13.0503506"><ele>5.0</ele><time>2026-05-03T06:30:49.8Z</time></trkpt><trkpt lat="41.4057468" lon="13.0502853"><ele>5.0</ele><time>2026-05-03T06:30:51.8Z</time></trkpt><trkpt lat="41.4056999" lon="13.0502261"><ele>5.0</ele><time>2026-05-03T06:30:53.799Z</time></trkpt><trkpt lat="41.4056531" lon="13.0501658"><ele>5.0</ele><time>2026-05-03T06:30:55.799Z</time></trkpt><trkpt lat="41.405605" lon="13.0501034"><ele>5.0</ele><time>2026-05-03T06:30:57.799Z</time></trkpt><trkpt lat="41.4055566" lon="13.0500327"><ele>5.0</ele><time>2026-05-03T06:30:59.799Z</time></trkpt><trkpt lat="41.4055077" lon="13.0499704"><ele>5.0</ele><time>2026-05-03T06:31:01.8Z</time></trkpt><trkpt lat="41.405443" lon="13.0498912"><ele>5.0</ele><time>2026-05-03T06:31:04.8Z</time></trkpt><trkpt lat="41.4054074" lon="13.0498207"><ele>5.285714285714286</ele><time>2026-05-03T06:31:06.8Z</time></trkpt><trkpt lat="41.4053653" lon="13.0497578"><ele>5.571428571428571</ele><time>2026-05-03T06:31:08.799Z</time></trkpt><trkpt lat="41.4052941" lon="13.049686"><ele>5.857142857142858</ele><time>2026-05-03T06:31:11.8Z</time></trkpt><trkpt lat="41.4052488" lon="13.0496235"><ele>6.142857142857142</ele><time>2026-05-03T06:31:13.799Z</time></trkpt><trkpt lat="41.4052147" lon="13.0495186"><ele>6.428571428571429</ele><time>2026-05-03T06:31:16.799Z</time></trkpt><trkpt lat="41.4052708" lon="13.0494627"><ele>6.714285714285714</ele><time>2026-05-03T06:31:18.799Z</time></trkpt><trkpt lat="41.4053219" lon="13.0493962"><ele>7.0</ele><time>2026-05-03T06:31:20.799Z</time></trkpt><trkpt lat="41.4053826" lon="13.0493122"><ele>7.0</ele><time>2026-05-03T06:31:22.799Z</time></trkpt><trkpt lat="41.4054461" lon="13.0492453"><ele>7.0</ele><time>2026-05-03T06:31:24.799Z</time></trkpt><trkpt lat="41.4055017" lon="13.0491718"><ele>7.0</ele><time>2026-05-03T06:31:26.799Z</time></trkpt><trkpt lat="41.4055525" lon="13.0491127"><ele>7.0</ele><time>2026-05-03T06:31:28.8Z</time></trkpt><trkpt lat="41.4055944" lon="13.04905"><ele>7.0</ele><time>2026-05-03T06:31:30.799Z</time></trkpt><trkpt lat="41.4056592" lon="13.0489608"><ele>7.0</ele><time>2026-05-03T06:31:33.799Z</time></trkpt><trkpt lat="41.4057089" lon="13.0489042"><ele>7.0</ele><time>2026-05-03T06:31:35.799Z</time></trkpt><trkpt lat="41.4057618" lon="13.048843"><ele>6.833333333333334</ele><time>2026-05-03T06:31:37.799Z</time></trkpt><trkpt lat="41.405837" lon="13.0488003"><ele>6.666666666666667</ele><time>2026-05-03T06:31:39.8Z</time></trkpt><trkpt lat="41.405898" lon="13.0487355"><ele>6.5</ele><time>2026-05-03T06:31:41.799Z</time></trkpt><trkpt lat="41.405945" lon="13.0486578"><ele>6.333333333333334</ele><time>2026-05-03T06:31:43.8Z</time></trkpt><trkpt lat="41.405981" lon="13.0485648"><ele>6.166666666666667</ele><time>2026-05-03T06:31:45.799Z</time></trkpt><trkpt lat="41.4060277" lon="13.048477"><ele>6.0</ele><time>2026-05-03T06:31:47.799Z</time></trkpt><trkpt lat="41.4060864" lon="13.0484045"><ele>6.0</ele><time>2026-05-03T06:31:49.799Z</time></trkpt><trkpt lat="41.4061424" lon="13.0483299"><ele>6.0</ele><time>2026-05-03T06:31:51.799Z</time></trkpt><trkpt lat="41.4062015" lon="13.0482543"><ele>6.0</ele><time>2026-05-03T06:31:53.799Z</time></trkpt><trkpt lat="41.4062633" lon="13.0481832"><ele>6.0</ele><time>2026-05-03T06:31:55.799Z</time></trkpt><trkpt lat="41.4063202" lon="13.048102"><ele>6.0</ele><time>2026-05-03T06:31:57.799Z</time></trkpt><trkpt lat="41.4063759" lon="13.0480252"><ele>6.0</ele><time>2026-05-03T06:31:59.799Z</time></trkpt><trkpt lat="41.4064296" lon="13.0479509"><ele>6.166666666666667</ele><time>2026-05-03T06:32:01.799Z</time></trkpt><trkpt lat="41.40649" lon="13.0478852"><ele>6.333333333333334</ele><time>2026-05-03T06:32:03.799Z</time></trkpt><trkpt lat="41.4065424" lon="13.0478193"><ele>6.5</ele><time>2026-05-03T06:32:05.799Z</time></trkpt><trkpt lat="41.4065912" lon="13.0477455"><ele>6.666666666666667</ele><time>2026-05-03T06:32:07.799Z</time></trkpt><trkpt lat="41.4066475" lon="13.04767"><ele>6.833333333333334</ele><time>2026-05-03T06:32:09.799Z</time></trkpt><trkpt lat="41.4067024" lon="13.047589"><ele>7.0</ele><time>2026-05-03T06:32:11.8Z</time></trkpt><trkpt lat="41.4067475" lon="13.0475114"><ele>7.000000000000001</ele><time>2026-05-03T06:32:13.799Z</time></trkpt><trkpt lat="41.4067996" lon="13.0474357"><ele>7.0</ele><time>2026-05-03T06:32:15.799Z</time></trkpt><trkpt lat="41.4068524" lon="13.0473592"><ele>7.0</ele><time>2026-05-03T06:32:17.799Z</time></trkpt><trkpt lat="41.4069118" lon="13.0473029"><ele>7.0</ele><time>2026-05-03T06:32:19.799Z</time></trkpt><trkpt lat="41.407002" lon="13.0473355"><ele>7.000000000000001</ele><time>2026-05-03T06:32:22.799Z</time></trkpt><trkpt lat="41.4070521" lon="13.0474063"><ele>7.0</ele><time>2026-05-03T06:32:24.799Z</time></trkpt><trkpt lat="41.407113" lon="13.0474871"><ele>6.833333333333334</ele><time>2026-05-03T06:32:26.799Z</time></trkpt><trkpt lat="41.4071664" lon="13.0475558"><ele>6.666666666666667</ele><time>2026-05-03T06:32:28.799Z</time></trkpt><trkpt lat="41.4072268" lon="13.0476331"><ele>6.5</ele><time>2026-05-03T06:32:30.799Z</time></trkpt><trkpt lat="41.4072893" lon="13.0477153"><ele>6.333333333333334</ele><time>2026-05-03T06:32:32.799Z</time></trkpt><trkpt lat="41.40734" lon="13.0478032"><ele>6.166666666666667</ele><time>2026-05-03T06:32:34.799Z</time></trkpt><trkpt lat="41.407399" lon="13.0478717"><ele>6.0</ele><time>2026-05-03T06:32:36.799Z</time></trkpt><trkpt lat="41.4074549" lon="13.0479415"><ele>6.0</ele><time>2026-05-03T06:32:38.8Z</time></trkpt><trkpt lat="41.4075041" lon="13.0480169"><ele>6.0</ele><time>2026-05-03T06:32:40.799Z</time></trkpt><trkpt lat="41.4075557" lon="13.0480957"><ele>6.0</ele><time>2026-05-03T06:32:42.799Z</time></trkpt><trkpt lat="41.4075988" lon="13.0481756"><ele>6.0</ele><time>2026-05-03T06:32:44.8Z</time></trkpt><trkpt lat="41.4076554" lon="13.0482501"><ele>6.0</ele><time>2026-05-03T06:32:46.799Z</time></trkpt><trkpt lat="41.4077146" lon="13.0483175"><ele>6.0</ele><time>2026-05-03T06:32:48.799Z</time></trkpt><trkpt lat="41.4077709" lon="13.0483942"><ele>6.0</ele><time>2026-05-03T06:32:50.799Z</time></trkpt><trkpt lat="41.4078253" lon="13.0484776"><ele>6.0</ele><time>2026-05-03T06:32:52.799Z</time></trkpt><trkpt lat="41.4078816" lon="13.0485523"><ele>6.0</ele><time>2026-05-03T06:32:54.8Z</time></trkpt><trkpt lat="41.4079356" lon="13.0486339"><ele>6.0</ele><time>2026-05-03T06:32:56.799Z</time></trkpt><trkpt lat="41.4079949" lon="13.0487039"><ele>6.0</ele><time>2026-05-03T06:32:58.799Z</time></trkpt><trkpt lat="41.4080516" lon="13.048783"><ele>6.0</ele><time>2026-05-03T06:33:00.799Z</time></trkpt><trkpt lat="41.4081068" lon="13.0488636"><ele>6.0</ele><time>2026-05-03T06:33:02.799Z</time></trkpt><trkpt lat="41.4081638" lon="13.0489448"><ele>6.0</ele><time>2026-05-03T06:33:04.799Z</time></trkpt><trkpt lat="41.4082207" lon="13.0490262"><ele>6.0</ele><time>2026-05-03T06:33:06.799Z</time></trkpt><trkpt lat="41.408276" lon="13.0490966"><ele>6.0</ele><time>2026-05-03T06:33:08.799Z</time></trkpt><trkpt lat="41.4083345" lon="13.0491696"><ele>6.0</ele><time>2026-05-03T06:33:10.8Z</time></trkpt><trkpt lat="41.4083989" lon="13.0492482"><ele>6.0</ele><time>2026-05-03T06:33:12.799Z</time></trkpt><trkpt lat="41.4084593" lon="13.0493338"><ele>6.0</ele><time>2026-05-03T06:33:14.799Z</time></trkpt><trkpt lat="41.4085141" lon="13.0494123"><ele>6.0</ele><time>2026-05-03T06:33:16.799Z</time></trkpt><trkpt lat="41.408569" lon="13.049495"><ele>6.0</ele><time>2026-05-03T06:33:18.799Z</time></trkpt><trkpt lat="41.4086244" lon="13.049573"><ele>6.0</ele><time>2026-05-03T06:33:20.799Z</time></trkpt><trkpt lat="41.4086855" lon="13.0496441"><ele>6.0</ele><time>2026-05-03T06:33:22.799Z</time></trkpt><trkpt lat="41.4087509" lon="13.0497172"><ele>6.0</ele><time>2026-05-03T06:33:24.799Z</time></trkpt><trkpt lat="41.4088126" lon="13.0497896"><ele>6.5</ele><time>2026-05-03T06:33:26.799Z</time></trkpt><trkpt lat="41.4088732" lon="13.0498649"><ele>7.0</ele><time>2026-05-03T06:33:28.799Z</time></trkpt><trkpt lat="41.4089288" lon="13.0499544"><ele>7.5</ele><time>2026-05-03T06:33:30.799Z</time></trkpt><trkpt lat="41.4089846" lon="13.0500428"><ele>8.0</ele><time>2026-05-03T06:33:32.799Z</time></trkpt><trkpt lat="41.4090415" lon="13.0501326"><ele>8.5</ele><time>2026-05-03T06:33:34.8Z</time></trkpt><trkpt lat="41.4091007" lon="13.0502184"><ele>9.0</ele><time>2026-05-03T06:33:36.799Z</time></trkpt><trkpt lat="41.4091635" lon="13.0503093"><ele>9.0</ele><time>2026-05-03T06:33:38.8Z</time></trkpt><trkpt lat="41.4092299" lon="13.050397"><ele>9.0</ele><time>2026-05-03T06:33:40.799Z</time></trkpt><trkpt lat="41.4092966" lon="13.0504797"><ele>9.0</ele><time>2026-05-03T06:33:42.799Z</time></trkpt><trkpt lat="41.4093586" lon="13.0505701"><ele>9.0</ele><time>2026-05-03T06:33:44.799Z</time></trkpt><trkpt lat="41.409418" lon="13.0506641"><ele>9.0</ele><time>2026-05-03T06:33:46.799Z</time></trkpt><trkpt lat="41.409481" lon="13.0507442"><ele>9.0</ele><time>2026-05-03T06:33:48.799Z</time></trkpt><trkpt lat="41.4095455" lon="13.0508309"><ele>9.0</ele><time>2026-05-03T06:33:50.8Z</time></trkpt><trkpt lat="41.4096083" lon="13.0509179"><ele>9.0</ele><time>2026-05-03T06:33:52.8Z</time></trkpt><trkpt lat="41.4096717" lon="13.0510039"><ele>9.0</ele><time>2026-05-03T06:33:54.799Z</time></trkpt><trkpt lat="41.4097305" lon="13.0510904"><ele>9.0</ele><time>2026-05-03T06:33:56.799Z</time></trkpt><trkpt lat="41.409794" lon="13.0511753"><ele>8.5</ele><time>2026-05-03T06:33:58.799Z</time></trkpt><trkpt lat="41.4098497" lon="13.0512593"><ele>8.0</ele><time>2026-05-03T06:34:00.799Z</time></trkpt><trkpt lat="41.4099115" lon="13.0513411"><ele>7.5</ele><time>2026-05-03T06:34:02.799Z</time></trkpt><trkpt lat="41.4099762" lon="13.0514236"><ele>7.0</ele><time>2026-05-03T06:34:04.799Z</time></trkpt><trkpt lat="41.4100377" lon="13.0515127"><ele>6.5</ele><time>2026-05-03T06:34:06.799Z</time></trkpt><trkpt lat="41.4101004" lon="13.0515988"><ele>6.0</ele><time>2026-05-03T06:34:08.799Z</time></trkpt><trkpt lat="41.4101634" lon="13.0516834"><ele>6.0</ele><time>2026-05-03T06:34:10.799Z</time></trkpt><trkpt lat="41.410227" lon="13.0517637"><ele>6.0</ele><time>2026-05-03T06:34:12.799Z</time></trkpt><trkpt lat="41.4102895" lon="13.0518467"><ele>6.0</ele><time>2026-05-03T06:34:14.799Z</time></trkpt><trkpt lat="41.4103509" lon="13.0519368"><ele>6.0</ele><time>2026-05-03T06:34:16.8Z</time></trkpt><trkpt lat="41.4104102" lon="13.0520156"><ele>6.0</ele><time>2026-05-03T06:34:18.799Z</time></trkpt><trkpt lat="41.4104734" lon="13.0520991"><ele>6.0</ele><time>2026-05-03T06:34:20.799Z</time></trkpt><trkpt lat="41.4105326" lon="13.0521832"><ele>6.0</ele><time>2026-05-03T06:34:22.799Z</time></trkpt><trkpt lat="41.4105946" lon="13.0522727"><ele>6.0</ele><time>2026-05-03T06:34:24.8Z</time></trkpt><trkpt lat="41.4106521" lon="13.0523646"><ele>6.0</ele><time>2026-05-03T06:34:26.799Z</time></trkpt><trkpt lat="41.4107051" lon="13.052449"><ele>6.0</ele><time>2026-05-03T06:34:28.799Z</time></trkpt><trkpt lat="41.4107642" lon="13.0525331"><ele>6.0</ele><time>2026-05-03T06:34:30.799Z</time></trkpt><trkpt lat="41.4108266" lon="13.0526178"><ele>6.0</ele><time>2026-05-03T06:34:32.8Z</time></trkpt><trkpt lat="41.4108915" lon="13.0527041"><ele>6.0</ele><time>2026-05-03T06:34:34.799Z</time></trkpt><trkpt lat="41.4109582" lon="13.0528003"><ele>6.0</ele><time>2026-05-03T06:34:36.799Z</time></trkpt><trkpt lat="41.411023" lon="13.052888"><ele>6.0</ele><time>2026-05-03T06:34:38.799Z</time></trkpt><trkpt lat="41.4110821" lon="13.052977"><ele>6.0</ele><time>2026-05-03T06:34:40.799Z</time></trkpt><trkpt lat="41.411146" lon="13.0530582"><ele>6.0</ele><time>2026-05-03T06:34:42.799Z</time></trkpt><trkpt lat="41.4112069" lon="13.0531412"><ele>6.0</ele><time>2026-05-03T06:34:44.799Z</time></trkpt><trkpt lat="41.4112691" lon="13.0532238"><ele>6.0</ele><time>2026-05-03T06:34:46.799Z</time></trkpt><trkpt lat="41.4113364" lon="13.0533018"><ele>6.0</ele><time>2026-05-03T06:34:48.8Z</time></trkpt><trkpt lat="41.4113945" lon="13.0533889"><ele>6.0</ele><time>2026-05-03T06:34:50.799Z</time></trkpt><trkpt lat="41.4114564" lon="13.0534781"><ele>6.0</ele><time>2026-05-03T06:34:52.799Z</time></trkpt><trkpt lat="41.4115194" lon="13.0535656"><ele>6.0</ele><time>2026-05-03T06:34:54.799Z</time></trkpt><trkpt lat="41.4115813" lon="13.0536504"><ele>6.166666666666667</ele><time>2026-05-03T06:34:56.799Z</time></trkpt><trkpt lat="41.4116407" lon="13.0537269"><ele>6.333333333333334</ele><time>2026-05-03T06:34:58.799Z</time></trkpt><trkpt lat="41.4117035" lon="13.0538039"><ele>6.5</ele><time>2026-05-03T06:35:00.8Z</time></trkpt><trkpt lat="41.4117661" lon="13.0538864"><ele>6.666666666666667</ele><time>2026-05-03T06:35:02.799Z</time></trkpt><trkpt lat="41.4118245" lon="13.0539659"><ele>6.833333333333334</ele><time>2026-05-03T06:35:04.799Z</time></trkpt><trkpt lat="41.4118799" lon="13.0540462"><ele>7.0</ele><time>2026-05-03T06:35:06.799Z</time></trkpt><trkpt lat="41.411941" lon="13.0541269"><ele>7.166666666666667</ele><time>2026-05-03T06:35:08.799Z</time></trkpt><trkpt lat="41.411996" lon="13.0542073"><ele>7.333333333333334</ele><time>2026-05-03T06:35:10.8Z</time></trkpt><trkpt lat="41.4120518" lon="13.0542831"><ele>7.5</ele><time>2026-05-03T06:35:12.799Z</time></trkpt><trkpt lat="41.4121079" lon="13.0543695"><ele>7.666666666666666</ele><time>2026-05-03T06:35:14.799Z</time></trkpt><trkpt lat="41.4121627" lon="13.054445"><ele>7.833333333333333</ele><time>2026-05-03T06:35:16.8Z</time></trkpt><trkpt lat="41.4122195" lon="13.0545226"><ele>8.0</ele><time>2026-05-03T06:35:18.8Z</time></trkpt><trkpt lat="41.4122763" lon="13.0545973"><ele>7.833333333333333</ele><time>2026-05-03T06:35:20.799Z</time></trkpt><trkpt lat="41.4123342" lon="13.0546694"><ele>7.666666666666666</ele><time>2026-05-03T06:35:22.799Z</time></trkpt><trkpt lat="41.4123839" lon="13.0547459"><ele>7.5</ele><time>2026-05-03T06:35:24.8Z</time></trkpt><trkpt lat="41.4124387" lon="13.0548221"><ele>7.333333333333334</ele><time>2026-05-03T06:35:26.799Z</time></trkpt><trkpt lat="41.4124926" lon="13.0549009"><ele>7.166666666666667</ele><time>2026-05-03T06:35:28.799Z</time></trkpt><trkpt lat="41.4125494" lon="13.0549774"><ele>7.0</ele><time>2026-05-03T06:35:30.799Z</time></trkpt><trkpt lat="41.4126013" lon="13.0550538"><ele>7.0</ele><time>2026-05-03T06:35:32.799Z</time></trkpt><trkpt lat="41.4126557" lon="13.0551273"><ele>7.0</ele><time>2026-05-03T06:35:34.799Z</time></trkpt><trkpt lat="41.4127106" lon="13.0551946"><ele>7.0</ele><time>2026-05-03T06:35:36.799Z</time></trkpt><trkpt lat="41.4127614" lon="13.055266"><ele>7.0</ele><time>2026-05-03T06:35:38.799Z</time></trkpt><trkpt lat="41.4128097" lon="13.0553345"><ele>7.0</ele><time>2026-05-03T06:35:40.799Z</time></trkpt><trkpt lat="41.4128579" lon="13.0554081"><ele>7.0</ele><time>2026-05-03T06:35:42.8Z</time></trkpt><trkpt lat="41.4129132" lon="13.0554817"><ele>7.0</ele><time>2026-05-03T06:35:44.799Z</time></trkpt><trkpt lat="41.4129659" lon="13.0555598"><ele>7.000000000000001</ele><time>2026-05-03T06:35:46.799Z</time></trkpt><trkpt lat="41.4129938" lon="13.0556589"><ele>7.0</ele><time>2026-05-03T06:35:48.8Z</time></trkpt><trkpt lat="41.4129611" lon="13.055763"><ele>7.0</ele><time>2026-05-03T06:35:50.799Z</time></trkpt><trkpt lat="41.4129027" lon="13.0558431"><ele>7.0</ele><time>2026-05-03T06:35:52.799Z</time></trkpt><trkpt lat="41.41284" lon="13.0559235"><ele>7.000000000000001</ele><time>2026-05-03T06:35:54.8Z</time></trkpt><trkpt lat="41.4127879" lon="13.0560025"><ele>7.0</ele><time>2026-05-03T06:35:56.799Z</time></trkpt><trkpt lat="41.4127526" lon="13.0561074"><ele>7.333333333333334</ele><time>2026-05-03T06:35:59.8Z</time></trkpt><trkpt lat="41.4126731" lon="13.0561555"><ele>7.666666666666667</ele><time>2026-05-03T06:36:26.799Z</time></trkpt><trkpt lat="41.4125914" lon="13.0562202"><ele>8.0</ele><time>2026-05-03T06:36:29.799Z</time></trkpt><trkpt lat="41.4125345" lon="13.0563023"><ele>8.333333333333334</ele><time>2026-05-03T06:36:31.799Z</time></trkpt><trkpt lat="41.4124742" lon="13.0563874"><ele>8.666666666666666</ele><time>2026-05-03T06:36:33.799Z</time></trkpt><trkpt lat="41.4124144" lon="13.0564722"><ele>9.0</ele><time>2026-05-03T06:36:35.799Z</time></trkpt><trkpt lat="41.4123499" lon="13.0565528"><ele>8.4</ele><time>2026-05-03T06:36:37.8Z</time></trkpt><trkpt lat="41.4122833" lon="13.0566352"><ele>7.800000000000001</ele><time>2026-05-03T06:36:39.799Z</time></trkpt><trkpt lat="41.4122155" lon="13.0567213"><ele>7.199999999999999</ele><time>2026-05-03T06:36:41.799Z</time></trkpt><trkpt lat="41.4121454" lon="13.0568078"><ele>6.6</ele><time>2026-05-03T06:36:43.8Z</time></trkpt><trkpt lat="41.4120761" lon="13.0568985"><ele>6.0</ele><time>2026-05-03T06:36:45.799Z</time></trkpt><trkpt lat="41.4120082" lon="13.0569885"><ele>6.0</ele><time>2026-05-03T06:36:47.799Z</time></trkpt><trkpt lat="41.4119404" lon="13.0570797"><ele>6.0</ele><time>2026-05-03T06:36:49.799Z</time></trkpt><trkpt lat="41.4118733" lon="13.0571717"><ele>6.0</ele><time>2026-05-03T06:36:51.799Z</time></trkpt><trkpt lat="41.4118023" lon="13.0572582"><ele>6.0</ele><time>2026-05-03T06:36:53.8Z</time></trkpt><trkpt lat="41.4117352" lon="13.057348"><ele>6.0</ele><time>2026-05-03T06:36:55.799Z</time></trkpt><trkpt lat="41.4116648" lon="13.0574372"><ele>5.8</ele><time>2026-05-03T06:36:57.8Z</time></trkpt><trkpt lat="41.4115916" lon="13.0575236"><ele>5.6</ele><time>2026-05-03T06:36:59.8Z</time></trkpt><trkpt lat="41.4115236" lon="13.0576102"><ele>5.4</ele><time>2026-05-03T06:37:01.799Z</time></trkpt><trkpt lat="41.4114516" lon="13.0576961"><ele>5.2</ele><time>2026-05-03T06:37:03.8Z</time></trkpt><trkpt lat="41.4113792" lon="13.0577857"><ele>5.0</ele><time>2026-05-03T06:37:05.799Z</time></trkpt><trkpt lat="41.4113095" lon="13.0578762"><ele>5.2</ele><time>2026-05-03T06:37:07.799Z</time></trkpt><trkpt lat="41.4112427" lon="13.0579658"><ele>5.4</ele><time>2026-05-03T06:37:09.799Z</time></trkpt><trkpt lat="41.4111732" lon="13.0580526"><ele>5.6</ele><time>2026-05-03T06:37:11.799Z</time></trkpt><trkpt lat="41.4111066" lon="13.0581396"><ele>5.8</ele><time>2026-05-03T06:37:13.799Z</time></trkpt><trkpt lat="41.4110388" lon="13.0582285"><ele>6.0</ele><time>2026-05-03T06:37:15.799Z</time></trkpt><trkpt lat="41.4109705" lon="13.0583158"><ele>6.0</ele><time>2026-05-03T06:37:17.799Z</time></trkpt><trkpt lat="41.4109031" lon="13.0584039"><ele>6.0</ele><time>2026-05-03T06:37:19.799Z</time></trkpt><trkpt lat="41.4108341" lon="13.0584949"><ele>6.0</ele><time>2026-05-03T06:37:21.799Z</time></trkpt><trkpt lat="41.4107668" lon="13.0585862"><ele>6.0</ele><time>2026-05-03T06:37:23.799Z</time></trkpt><trkpt lat="41.4106977" lon="13.0586725"><ele>6.0</ele><time>2026-05-03T06:37:25.799Z</time></trkpt><trkpt lat="41.4106281" lon="13.0587523"><ele>6.0</ele><time>2026-05-03T06:37:27.799Z</time></trkpt><trkpt lat="41.4105583" lon="13.0588456"><ele>6.0</ele><time>2026-05-03T06:37:29.799Z</time></trkpt><trkpt lat="41.4104892" lon="13.0589346"><ele>6.0</ele><time>2026-05-03T06:37:31.799Z</time></trkpt><trkpt lat="41.4104216" lon="13.0590209"><ele>6.0</ele><time>2026-05-03T06:37:33.799Z</time></trkpt><trkpt lat="41.410353" lon="13.0591097"><ele>6.0</ele><time>2026-05-03T06:37:35.799Z</time></trkpt><trkpt lat="41.4102886" lon="13.0591935"><ele>5.6</ele><time>2026-05-03T06:37:37.799Z</time></trkpt><trkpt lat="41.410224" lon="13.0592833"><ele>5.199999999999999</ele><time>2026-05-03T06:37:39.8Z</time></trkpt><trkpt lat="41.4101633" lon="13.0593694"><ele>4.800000000000001</ele><time>2026-05-03T06:37:41.8Z</time></trkpt><trkpt lat="41.4100931" lon="13.0594578"><ele>4.4</ele><time>2026-05-03T06:37:43.799Z</time></trkpt><trkpt lat="41.4100273" lon="13.0595393"><ele>4.0</ele><time>2026-05-03T06:37:45.799Z</time></trkpt><trkpt lat="41.4099638" lon="13.0596236"><ele>4.0</ele><time>2026-05-03T06:37:47.799Z</time></trkpt><trkpt lat="41.4098973" lon="13.0597059"><ele>4.0</ele><time>2026-05-03T06:37:49.799Z</time></trkpt><trkpt lat="41.4098305" lon="13.0597894"><ele>4.0</ele><time>2026-05-03T06:37:51.8Z</time></trkpt><trkpt lat="41.4097658" lon="13.0598737"><ele>4.0</ele><time>2026-05-03T06:37:53.799Z</time></trkpt><trkpt lat="41.4097041" lon="13.0599598"><ele>4.0</ele><time>2026-05-03T06:37:55.799Z</time></trkpt><trkpt lat="41.4096404" lon="13.0600409"><ele>3.833333333333333</ele><time>2026-05-03T06:37:57.799Z</time></trkpt><trkpt lat="41.4095758" lon="13.0601223"><ele>3.6666666666666665</ele><time>2026-05-03T06:37:59.799Z</time></trkpt><trkpt lat="41.4095094" lon="13.0602048"><ele>3.5</ele><time>2026-05-03T06:38:01.799Z</time></trkpt><trkpt lat="41.4094444" lon="13.0602885"><ele>3.333333333333333</ele><time>2026-05-03T06:38:03.8Z</time></trkpt><trkpt lat="41.4093842" lon="13.0603694"><ele>3.1666666666666665</ele><time>2026-05-03T06:38:05.799Z</time></trkpt><trkpt lat="41.4093198" lon="13.0604541"><ele>3.0</ele><time>2026-05-03T06:38:07.799Z</time></trkpt><trkpt lat="41.4092492" lon="13.0605408"><ele>3.0</ele><time>2026-05-03T06:38:09.8Z</time></trkpt><trkpt lat="41.4091804" lon="13.0606273"><ele>3.0</ele><time>2026-05-03T06:38:11.799Z</time></trkpt><trkpt lat="41.409111" lon="13.0607153"><ele>3.0</ele><time>2026-05-03T06:38:13.799Z</time></trkpt><trkpt lat="41.4090458" lon="13.0608047"><ele>3.0</ele><time>2026-05-03T06:38:15.799Z</time></trkpt><trkpt lat="41.4089809" lon="13.0608857"><ele>3.0</ele><time>2026-05-03T06:38:17.799Z</time></trkpt><trkpt lat="41.4089183" lon="13.0609704"><ele>3.2</ele><time>2026-05-03T06:38:19.8Z</time></trkpt><trkpt lat="41.4088565" lon="13.0610533"><ele>3.4</ele><time>2026-05-03T06:38:21.8Z</time></trkpt><trkpt lat="41.4087901" lon="13.0611408"><ele>3.6000000000000005</ele><time>2026-05-03T06:38:23.799Z</time></trkpt><trkpt lat="41.4087206" lon="13.0612254"><ele>3.8000000000000003</ele><time>2026-05-03T06:38:25.8Z</time></trkpt><trkpt lat="41.4086527" lon="13.0613084"><ele>4.0</ele><time>2026-05-03T06:38:27.799Z</time></trkpt><trkpt lat="41.4085899" lon="13.0613951"><ele>3.833333333333333</ele><time>2026-05-03T06:38:29.8Z</time></trkpt><trkpt lat="41.4085259" lon="13.0614801"><ele>3.6666666666666665</ele><time>2026-05-03T06:38:31.799Z</time></trkpt><trkpt lat="41.408459" lon="13.0615615"><ele>3.5</ele><time>2026-05-03T06:38:33.799Z</time></trkpt><trkpt lat="41.4083946" lon="13.061642"><ele>3.333333333333333</ele><time>2026-05-03T06:38:35.799Z</time></trkpt><trkpt lat="41.4083336" lon="13.0617188"><ele>3.1666666666666665</ele><time>2026-05-03T06:38:37.799Z</time></trkpt><trkpt lat="41.4082721" lon="13.0617957"><ele>3.0</ele><time>2026-05-03T06:38:39.799Z</time></trkpt><trkpt lat="41.4082072" lon="13.061879"><ele>3.0</ele><time>2026-05-03T06:38:41.799Z</time></trkpt><trkpt lat="41.4081433" lon="13.0619587"><ele>3.0</ele><time>2026-05-03T06:38:43.799Z</time></trkpt><trkpt lat="41.4080804" lon="13.0620454"><ele>3.0</ele><time>2026-05-03T06:38:45.799Z</time></trkpt><trkpt lat="41.408018" lon="13.062122"><ele>3.0</ele><time>2026-05-03T06:38:47.799Z</time></trkpt><trkpt lat="41.4079517" lon="13.0622043"><ele>3.0</ele><time>2026-05-03T06:38:49.8Z</time></trkpt><trkpt lat="41.4078842" lon="13.0622862"><ele>3.0</ele><time>2026-05-03T06:38:51.799Z</time></trkpt><trkpt lat="41.4078205" lon="13.0623697"><ele>3.666666666666667</ele><time>2026-05-03T06:38:53.799Z</time></trkpt><trkpt lat="41.4077542" lon="13.0624543"><ele>4.333333333333334</ele><time>2026-05-03T06:38:55.799Z</time></trkpt><trkpt lat="41.4076906" lon="13.0625369"><ele>5.0</ele><time>2026-05-03T06:38:57.799Z</time></trkpt><trkpt lat="41.4076251" lon="13.0626241"><ele>5.666666666666667</ele><time>2026-05-03T06:38:59.8Z</time></trkpt><trkpt lat="41.4075661" lon="13.0627057"><ele>6.333333333333334</ele><time>2026-05-03T06:39:01.799Z</time></trkpt><trkpt lat="41.4074998" lon="13.0627857"><ele>7.0</ele><time>2026-05-03T06:39:03.799Z</time></trkpt><trkpt lat="41.4074364" lon="13.0628789"><ele>7.000000000000001</ele><time>2026-05-03T06:39:05.799Z</time></trkpt><trkpt lat="41.4073735" lon="13.0629601"><ele>7.0</ele><time>2026-05-03T06:39:07.799Z</time></trkpt><trkpt lat="41.4073076" lon="13.0630438"><ele>7.0</ele><time>2026-05-03T06:39:09.8Z</time></trkpt><trkpt lat="41.4072466" lon="13.0631185"><ele>7.0</ele><time>2026-05-03T06:39:11.799Z</time></trkpt><trkpt lat="41.4071803" lon="13.0631999"><ele>7.000000000000001</ele><time>2026-05-03T06:39:13.8Z</time></trkpt><trkpt lat="41.4071139" lon="13.0632836"><ele>7.0</ele><time>2026-05-03T06:39:15.8Z</time></trkpt><trkpt lat="41.4070481" lon="13.0633622"><ele>6.8</ele><time>2026-05-03T06:39:17.799Z</time></trkpt><trkpt lat="41.4069822" lon="13.0634471"><ele>6.6</ele><time>2026-05-03T06:39:19.8Z</time></trkpt><trkpt lat="41.4069179" lon="13.0635312"><ele>6.3999999999999995</ele><time>2026-05-03T06:39:21.799Z</time></trkpt><trkpt lat="41.4068515" lon="13.0636163"><ele>6.199999999999999</ele><time>2026-05-03T06:39:23.799Z</time></trkpt><trkpt lat="41.4067874" lon="13.0637061"><ele>6.0</ele><time>2026-05-03T06:39:25.799Z</time></trkpt><trkpt lat="41.4067221" lon="13.0637898"><ele>6.0</ele><time>2026-05-03T06:39:27.799Z</time></trkpt><trkpt lat="41.4066556" lon="13.06387"><ele>6.0</ele><time>2026-05-03T06:39:29.799Z</time></trkpt><trkpt lat="41.4065905" lon="13.0639551"><ele>6.0</ele><time>2026-05-03T06:39:31.799Z</time></trkpt><trkpt lat="41.4065266" lon="13.0640361"><ele>6.0</ele><time>2026-05-03T06:39:33.799Z</time></trkpt><trkpt lat="41.4064622" lon="13.0641185"><ele>6.0</ele><time>2026-05-03T06:39:35.799Z</time></trkpt><trkpt lat="41.4063935" lon="13.0641991"><ele>5.666666666666667</ele><time>2026-05-03T06:39:37.8Z</time></trkpt><trkpt lat="41.4063304" lon="13.0642841"><ele>5.333333333333333</ele><time>2026-05-03T06:39:39.799Z</time></trkpt><trkpt lat="41.4062669" lon="13.0643636"><ele>5.0</ele><time>2026-05-03T06:39:41.799Z</time></trkpt><trkpt lat="41.4062024" lon="13.0644397"><ele>4.666666666666666</ele><time>2026-05-03T06:39:43.799Z</time></trkpt><trkpt lat="41.4061387" lon="13.064521"><ele>4.333333333333333</ele><time>2026-05-03T06:39:45.799Z</time></trkpt><trkpt lat="41.4060812" lon="13.0646017"><ele>4.0</ele><time>2026-05-03T06:39:47.799Z</time></trkpt><trkpt lat="41.4060221" lon="13.0646805"><ele>3.6666666666666665</ele><time>2026-05-03T06:39:49.8Z</time></trkpt><trkpt lat="41.4059612" lon="13.0647616"><ele>3.333333333333333</ele><time>2026-05-03T06:39:51.799Z</time></trkpt><trkpt lat="41.405898" lon="13.0648383"><ele>3.0</ele><time>2026-05-03T06:39:53.799Z</time></trkpt><trkpt lat="41.4058316" lon="13.0649254"><ele>2.6666666666666665</ele><time>2026-05-03T06:39:55.799Z</time></trkpt><trkpt lat="41.4057662" lon="13.0650102"><ele>2.333333333333333</ele><time>2026-05-03T06:39:57.799Z</time></trkpt><trkpt lat="41.4057036" lon="13.0650948"><ele>2.0</ele><time>2026-05-03T06:39:59.8Z</time></trkpt><trkpt lat="41.4056377" lon="13.0651767"><ele>2.0</ele><time>2026-05-03T06:40:01.799Z</time></trkpt><trkpt lat="41.4055706" lon="13.0652594"><ele>2.0</ele><time>2026-05-03T06:40:03.799Z</time></trkpt><trkpt lat="41.4055059" lon="13.0653456"><ele>2.0</ele><time>2026-05-03T06:40:05.799Z</time></trkpt><trkpt lat="41.4054413" lon="13.0654297"><ele>2.0</ele><time>2026-05-03T06:40:07.799Z</time></trkpt><trkpt lat="41.4053784" lon="13.0655108"><ele>2.0</ele><time>2026-05-03T06:40:09.799Z</time></trkpt><trkpt lat="41.4053146" lon="13.0655969"><ele>1.9999999999999998</ele><time>2026-05-03T06:40:11.799Z</time></trkpt><trkpt lat="41.4052503" lon="13.0656752"><ele>2.0</ele><time>2026-05-03T06:40:13.799Z</time></trkpt><trkpt lat="41.4051818" lon="13.0657586"><ele>2.0</ele><time>2026-05-03T06:40:15.8Z</time></trkpt><trkpt lat="41.4051168" lon="13.0658413"><ele>2.0</ele><time>2026-05-03T06:40:17.799Z</time></trkpt><trkpt lat="41.4050551" lon="13.0659243"><ele>1.9999999999999998</ele><time>2026-05-03T06:40:19.799Z</time></trkpt><trkpt lat="41.4049923" lon="13.0660096"><ele>2.0</ele><time>2026-05-03T06:40:21.799Z</time></trkpt><trkpt lat="41.4049328" lon="13.0660882"><ele>2.1666666666666665</ele><time>2026-05-03T06:40:23.799Z</time></trkpt><trkpt lat="41.4048785" lon="13.066164"><ele>2.333333333333333</ele><time>2026-05-03T06:40:25.8Z</time></trkpt><trkpt lat="41.4048187" lon="13.0662383"><ele>2.5</ele><time>2026-05-03T06:40:27.799Z</time></trkpt><trkpt lat="41.4047525" lon="13.0663121"><ele>2.6666666666666665</ele><time>2026-05-03T06:40:29.799Z</time></trkpt><trkpt lat="41.4046916" lon="13.0663966"><ele>2.8333333333333335</ele><time>2026-05-03T06:40:31.799Z</time></trkpt><trkpt lat="41.4046308" lon="13.0664761"><ele>3.0</ele><time>2026-05-03T06:40:33.799Z</time></trkpt><trkpt lat="41.4045663" lon="13.0665515"><ele>2.5</ele><time>2026-05-03T06:40:35.799Z</time></trkpt><trkpt lat="41.4045044" lon="13.0666288"><ele>2.0</ele><time>2026-05-03T06:40:37.799Z</time></trkpt><trkpt lat="41.4044449" lon="13.0667063"><ele>1.5</ele><time>2026-05-03T06:40:39.8Z</time></trkpt><trkpt lat="41.4043848" lon="13.0667809"><ele>1.0</ele><time>2026-05-03T06:40:41.799Z</time></trkpt><trkpt lat="41.4043248" lon="13.0668582"><ele>0.5</ele><time>2026-05-03T06:40:43.8Z</time></trkpt><trkpt lat="41.4042665" lon="13.066938"><ele>0.0</ele><time>2026-05-03T06:40:45.799Z</time></trkpt><trkpt lat="41.4042077" lon="13.0670133"><ele>0.0</ele><time>2026-05-03T06:40:47.799Z</time></trkpt><trkpt lat="41.4041538" lon="13.0670806"><ele>0.0</ele><time>2026-05-03T06:40:49.799Z</time></trkpt><trkpt lat="41.4041056" lon="13.0671471"><ele>0.0</ele><time>2026-05-03T06:40:51.799Z</time></trkpt><trkpt lat="41.4040609" lon="13.0672118"><ele>0.0</ele><time>2026-05-03T06:40:53.799Z</time></trkpt><trkpt lat="41.4039999" lon="13.0672953"><ele>0.0</ele><time>2026-05-03T06:40:56.799Z</time></trkpt><trkpt lat="41.4039464" lon="13.0673674"><ele>0.0</ele><time>2026-05-03T06:40:59.8Z</time></trkpt><trkpt lat="41.4038985" lon="13.067429"><ele>0.0</ele><time>2026-05-03T06:41:02.799Z</time></trkpt><trkpt lat="41.403833" lon="13.0675045"><ele>1.1666666666666667</ele><time>2026-05-03T06:41:05.799Z</time></trkpt><trkpt lat="41.4037818" lon="13.0675683"><ele>2.3333333333333335</ele><time>2026-05-03T06:41:07.799Z</time></trkpt><trkpt lat="41.4037304" lon="13.0676363"><ele>3.5</ele><time>2026-05-03T06:41:09.799Z</time></trkpt><trkpt lat="41.4036717" lon="13.067701"><ele>4.666666666666667</ele><time>2026-05-03T06:41:11.799Z</time></trkpt><trkpt lat="41.4036156" lon="13.0677705"><ele>5.833333333333334</ele><time>2026-05-03T06:41:13.8Z</time></trkpt><trkpt lat="41.403554" lon="13.0678394"><ele>7.0</ele><time>2026-05-03T06:41:15.799Z</time></trkpt><trkpt lat="41.4034986" lon="13.0679149"><ele>7.000000000000001</ele><time>2026-05-03T06:41:17.799Z</time></trkpt><trkpt lat="41.4034414" lon="13.0679921"><ele>7.0</ele><time>2026-05-03T06:41:19.799Z</time></trkpt><trkpt lat="41.4033769" lon="13.0680728"><ele>7.0</ele><time>2026-05-03T06:41:21.799Z</time></trkpt><trkpt lat="41.4033126" lon="13.0681553"><ele>7.0</ele><time>2026-05-03T06:41:23.8Z</time></trkpt><trkpt lat="41.4032473" lon="13.0682417"><ele>7.000000000000001</ele><time>2026-05-03T06:41:25.903Z</time></trkpt><trkpt lat="41.4031768" lon="13.0683245"><ele>7.0</ele><time>2026-05-03T06:41:27.977Z</time></trkpt><trkpt lat="41.4031228" lon="13.0683993"><ele>7.000000000000001</ele><time>2026-05-03T06:41:29.934Z</time></trkpt><trkpt lat="41.4030536" lon="13.0684747"><ele>7.0</ele><time>2026-05-03T06:41:31.949Z</time></trkpt><trkpt lat="41.402995" lon="13.0685547"><ele>7.0</ele><time>2026-05-03T06:41:33.854Z</time></trkpt><trkpt lat="41.402934" lon="13.0686403"><ele>7.0</ele><time>2026-05-03T06:41:35.869Z</time></trkpt><trkpt lat="41.402873" lon="13.0687261"><ele>7.000000000000001</ele><time>2026-05-03T06:41:37.895Z</time></trkpt><trkpt lat="41.4028137" lon="13.0688053"><ele>7.0</ele><time>2026-05-03T06:41:39.9Z</time></trkpt><trkpt lat="41.4027489" lon="13.0688781"><ele>7.0</ele><time>2026-05-03T06:41:41.863Z</time></trkpt><trkpt lat="41.4026843" lon="13.0689561"><ele>6.999999999999999</ele><time>2026-05-03T06:41:43.93Z</time></trkpt><trkpt lat="41.4025959" lon="13.069069"><ele>6.999999999999999</ele><time>2026-05-03T06:41:46.799Z</time></trkpt><trkpt lat="41.4025342" lon="13.0691549"><ele>7.0</ele><time>2026-05-03T06:41:48.8Z</time></trkpt><trkpt lat="41.40247" lon="13.0692324"><ele>7.0</ele><time>2026-05-03T06:41:50.799Z</time></trkpt><trkpt lat="41.4024103" lon="13.0693104"><ele>7.333333333333334</ele><time>2026-05-03T06:41:52.799Z</time></trkpt><trkpt lat="41.4023451" lon="13.0693922"><ele>7.666666666666667</ele><time>2026-05-03T06:41:54.799Z</time></trkpt><trkpt lat="41.4022861" lon="13.0694745"><ele>8.0</ele><time>2026-05-03T06:41:56.799Z</time></trkpt><trkpt lat="41.4022244" lon="13.0695529"><ele>8.333333333333334</ele><time>2026-05-03T06:41:58.799Z</time></trkpt><trkpt lat="41.4021616" lon="13.0696362"><ele>8.666666666666666</ele><time>2026-05-03T06:42:00.799Z</time></trkpt><trkpt lat="41.4020954" lon="13.0697162"><ele>9.0</ele><time>2026-05-03T06:42:02.8Z</time></trkpt><trkpt lat="41.4020322" lon="13.0698002"><ele>9.5</ele><time>2026-05-03T06:42:04.8Z</time></trkpt><trkpt lat="41.4019671" lon="13.0698767"><ele>10.0</ele><time>2026-05-03T06:42:06.799Z</time></trkpt><trkpt lat="41.4019035" lon="13.0699592"><ele>10.5</ele><time>2026-05-03T06:42:08.799Z</time></trkpt><trkpt lat="41.4018415" lon="13.0700436"><ele>11.0</ele><time>2026-05-03T06:42:10.8Z</time></trkpt><trkpt lat="41.4017796" lon="13.0701238"><ele>11.5</ele><time>2026-05-03T06:42:12.799Z</time></trkpt><trkpt lat="41.4017177" lon="13.0701988"><ele>12.0</ele><time>2026-05-03T06:42:14.799Z</time></trkpt><trkpt lat="41.4016541" lon="13.0702818"><ele>12.0</ele><time>2026-05-03T06:42:16.8Z</time></trkpt><trkpt lat="41.4015905" lon="13.0703693"><ele>12.0</ele><time>2026-05-03T06:42:18.799Z</time></trkpt><trkpt lat="41.4015258" lon="13.0704521"><ele>12.0</ele><time>2026-05-03T06:42:20.8Z</time></trkpt><trkpt lat="41.4014613" lon="13.0705369"><ele>12.0</ele><time>2026-05-03T06:42:22.8Z</time></trkpt><trkpt lat="41.4013948" lon="13.0706154"><ele>12.0</ele><time>2026-05-03T06:42:24.799Z</time></trkpt><trkpt lat="41.401334" lon="13.0706992"><ele>12.0</ele><time>2026-05-03T06:42:26.799Z</time></trkpt><trkpt lat="41.4012716" lon="13.0707789"><ele>11.333333333333334</ele><time>2026-05-03T06:42:28.799Z</time></trkpt><trkpt lat="41.4012104" lon="13.0708576"><ele>10.666666666666666</ele><time>2026-05-03T06:42:30.799Z</time></trkpt><trkpt lat="41.4011457" lon="13.0709351"><ele>10.0</ele><time>2026-05-03T06:42:32.799Z</time></trkpt><trkpt lat="41.4010837" lon="13.0710159"><ele>9.333333333333332</ele><time>2026-05-03T06:42:34.799Z</time></trkpt><trkpt lat="41.4010206" lon="13.0710999"><ele>8.666666666666666</ele><time>2026-05-03T06:42:36.799Z</time></trkpt><trkpt lat="41.4009576" lon="13.0711882"><ele>8.0</ele><time>2026-05-03T06:42:38.799Z</time></trkpt><trkpt lat="41.4008894" lon="13.0712749"><ele>8.0</ele><time>2026-05-03T06:42:40.799Z</time></trkpt><trkpt lat="41.400823" lon="13.071357"><ele>8.0</ele><time>2026-05-03T06:42:42.799Z</time></trkpt><trkpt lat="41.4007581" lon="13.0714415"><ele>8.0</ele><time>2026-05-03T06:42:44.799Z</time></trkpt><trkpt lat="41.4006924" lon="13.0715247"><ele>8.0</ele><time>2026-05-03T06:42:46.799Z</time></trkpt><trkpt lat="41.4006266" lon="13.0716101"><ele>8.0</ele><time>2026-05-03T06:42:48.8Z</time></trkpt><trkpt lat="41.4005625" lon="13.0716912"><ele>8.0</ele><time>2026-05-03T06:42:50.799Z</time></trkpt><trkpt lat="41.4004968" lon="13.0717751"><ele>8.0</ele><time>2026-05-03T06:42:52.799Z</time></trkpt><trkpt lat="41.4004325" lon="13.0718678"><ele>8.0</ele><time>2026-05-03T06:42:54.799Z</time></trkpt><trkpt lat="41.4003685" lon="13.0719457"><ele>8.0</ele><time>2026-05-03T06:42:56.8Z</time></trkpt><trkpt lat="41.4003007" lon="13.0720276"><ele>8.0</ele><time>2026-05-03T06:42:58.799Z</time></trkpt><trkpt lat="41.400236" lon="13.0721106"><ele>8.0</ele><time>2026-05-03T06:43:00.8Z</time></trkpt><trkpt lat="41.4001727" lon="13.0721956"><ele>8.0</ele><time>2026-05-03T06:43:02.799Z</time></trkpt><trkpt lat="41.4001046" lon="13.0722803"><ele>8.0</ele><time>2026-05-03T06:43:04.799Z</time></trkpt><trkpt lat="41.400037" lon="13.0723669"><ele>8.0</ele><time>2026-05-03T06:43:06.799Z</time></trkpt><trkpt lat="41.3999689" lon="13.0724494"><ele>8.0</ele><time>2026-05-03T06:43:08.8Z</time></trkpt><trkpt lat="41.3999034" lon="13.0725332"><ele>7.999999999999999</ele><time>2026-05-03T06:43:10.799Z</time></trkpt><trkpt lat="41.3998406" lon="13.0726187"><ele>8.0</ele><time>2026-05-03T06:43:12.799Z</time></trkpt><trkpt lat="41.399776" lon="13.0727002"><ele>8.0</ele><time>2026-05-03T06:43:14.799Z</time></trkpt><trkpt lat="41.3997133" lon="13.0727835"><ele>8.0</ele><time>2026-05-03T06:43:16.799Z</time></trkpt><trkpt lat="41.3996468" lon="13.0728646"><ele>7.999999999999999</ele><time>2026-05-03T06:43:18.799Z</time></trkpt><trkpt lat="41.399583" lon="13.0729511"><ele>8.0</ele><time>2026-05-03T06:43:20.799Z</time></trkpt><trkpt lat="41.3995189" lon="13.0730327"><ele>8.0</ele><time>2026-05-03T06:43:22.8Z</time></trkpt><trkpt lat="41.3994552" lon="13.0731171"><ele>8.0</ele><time>2026-05-03T06:43:24.8Z</time></trkpt><trkpt lat="41.3993886" lon="13.0731949"><ele>8.0</ele><time>2026-05-03T06:43:26.799Z</time></trkpt><trkpt lat="41.3993182" lon="13.0732783"><ele>8.0</ele><time>2026-05-03T06:43:28.799Z</time></trkpt><trkpt lat="41.3992558" lon="13.0733649"><ele>8.0</ele><time>2026-05-03T06:43:30.799Z</time></trkpt><trkpt lat="41.3991893" lon="13.073449"><ele>7.6000000000000005</ele><time>2026-05-03T06:43:32.799Z</time></trkpt><trkpt lat="41.3991267" lon="13.073535"><ele>7.200000000000001</ele><time>2026-05-03T06:43:34.799Z</time></trkpt><trkpt lat="41.3990614" lon="13.0736227"><ele>6.8</ele><time>2026-05-03T06:43:36.799Z</time></trkpt><trkpt lat="41.3989972" lon="13.0737036"><ele>6.4</ele><time>2026-05-03T06:43:38.8Z</time></trkpt><trkpt lat="41.3989284" lon="13.0737869"><ele>6.0</ele><time>2026-05-03T06:43:40.799Z</time></trkpt><trkpt lat="41.3988676" lon="13.0738715"><ele>6.166666666666667</ele><time>2026-05-03T06:43:42.799Z</time></trkpt><trkpt lat="41.3988049" lon="13.0739504"><ele>6.333333333333334</ele><time>2026-05-03T06:43:44.799Z</time></trkpt><trkpt lat="41.3987388" lon="13.0740346"><ele>6.5</ele><time>2026-05-03T06:43:46.799Z</time></trkpt><trkpt lat="41.3986753" lon="13.0741158"><ele>6.666666666666667</ele><time>2026-05-03T06:43:48.799Z</time></trkpt><trkpt lat="41.3986104" lon="13.0741949"><ele>6.833333333333334</ele><time>2026-05-03T06:43:50.799Z</time></trkpt><trkpt lat="41.3985436" lon="13.0742836"><ele>7.0</ele><time>2026-05-03T06:43:52.799Z</time></trkpt><trkpt lat="41.3984773" lon="13.0743661"><ele>7.0</ele><time>2026-05-03T06:43:54.799Z</time></trkpt><trkpt lat="41.3984119" lon="13.0744465"><ele>6.999999999999999</ele><time>2026-05-03T06:43:56.799Z</time></trkpt><trkpt lat="41.3983475" lon="13.0745308"><ele>6.999999999999999</ele><time>2026-05-03T06:43:58.799Z</time></trkpt><trkpt lat="41.3982826" lon="13.0746141"><ele>7.0</ele><time>2026-05-03T06:44:00.799Z</time></trkpt><trkpt lat="41.3982173" lon="13.0746975"><ele>7.0</ele><time>2026-05-03T06:44:02.799Z</time></trkpt><trkpt lat="41.3981503" lon="13.0747791"><ele>7.0</ele><time>2026-05-03T06:44:04.799Z</time></trkpt><trkpt lat="41.398088" lon="13.0748618"><ele>6.999999999999999</ele><time>2026-05-03T06:44:06.799Z</time></trkpt><trkpt lat="41.398023" lon="13.0749477"><ele>6.999999999999999</ele><time>2026-05-03T06:44:08.8Z</time></trkpt><trkpt lat="41.3979599" lon="13.0750265"><ele>7.0</ele><time>2026-05-03T06:44:10.799Z</time></trkpt><trkpt lat="41.3978945" lon="13.0751092"><ele>7.0</ele><time>2026-05-03T06:44:12.799Z</time></trkpt><trkpt lat="41.3978021" lon="13.0752318"><ele>8.0</ele><time>2026-05-03T06:44:15.009Z</time></trkpt><trkpt lat="41.3977395" lon="13.0753153"><ele>9.0</ele><time>2026-05-03T06:44:17.009Z</time></trkpt><trkpt lat="41.397669" lon="13.075392"><ele>10.0</ele><time>2026-05-03T06:44:19.009Z</time></trkpt><trkpt lat="41.3976102" lon="13.0754757"><ele>11.0</ele><time>2026-05-03T06:44:21.009Z</time></trkpt><trkpt lat="41.3975461" lon="13.0755622"><ele>11.999999999999998</ele><time>2026-05-03T06:44:23.009Z</time></trkpt><trkpt lat="41.3974856" lon="13.0756454"><ele>13.0</ele><time>2026-05-03T06:44:25.009Z</time></trkpt><trkpt lat="41.397416" lon="13.0757214"><ele>13.2</ele><time>2026-05-03T06:44:27.01Z</time></trkpt><trkpt lat="41.3973527" lon="13.0758008"><ele>13.4</ele><time>2026-05-03T06:44:29.009Z</time></trkpt><trkpt lat="41.3972889" lon="13.075887"><ele>13.599999999999998</ele><time>2026-05-03T06:44:31.01Z</time></trkpt><trkpt lat="41.3972246" lon="13.0759735"><ele>13.799999999999999</ele><time>2026-05-03T06:44:33.009Z</time></trkpt><trkpt lat="41.397157" lon="13.076061"><ele>14.0</ele><time>2026-05-03T06:44:35.009Z</time></trkpt><trkpt lat="41.3970857" lon="13.0761445"><ele>12.799999999999999</ele><time>2026-05-03T06:44:37.009Z</time></trkpt><trkpt lat="41.3970188" lon="13.0762379"><ele>11.599999999999998</ele><time>2026-05-03T06:44:39.009Z</time></trkpt><trkpt lat="41.3969463" lon="13.0763323"><ele>10.4</ele><time>2026-05-03T06:44:41.01Z</time></trkpt><trkpt lat="41.3968791" lon="13.0764227"><ele>9.2</ele><time>2026-05-03T06:44:43.009Z</time></trkpt><trkpt lat="41.3968033" lon="13.0765163"><ele>8.0</ele><time>2026-05-03T06:44:45.01Z</time></trkpt><trkpt lat="41.3967288" lon="13.0766092"><ele>8.0</ele><time>2026-05-03T06:44:47.009Z</time></trkpt><trkpt lat="41.3966593" lon="13.0767096"><ele>8.0</ele><time>2026-05-03T06:44:49.01Z</time></trkpt><trkpt lat="41.3965874" lon="13.0768061"><ele>8.0</ele><time>2026-05-03T06:44:51.009Z</time></trkpt><trkpt lat="41.3965114" lon="13.0768992"><ele>8.0</ele><time>2026-05-03T06:44:53.01Z</time></trkpt><trkpt lat="41.3964389" lon="13.0769989"><ele>8.0</ele><time>2026-05-03T06:44:55.01Z</time></trkpt><trkpt lat="41.3963599" lon="13.0770986"><ele>8.200000000000001</ele><time>2026-05-03T06:44:57.009Z</time></trkpt><trkpt lat="41.3962829" lon="13.0771935"><ele>8.4</ele><time>2026-05-03T06:44:59.01Z</time></trkpt><trkpt lat="41.3962118" lon="13.0772864"><ele>8.600000000000001</ele><time>2026-05-03T06:45:01.009Z</time></trkpt><trkpt lat="41.3961354" lon="13.0773842"><ele>8.8</ele><time>2026-05-03T06:45:03.009Z</time></trkpt><trkpt lat="41.3960549" lon="13.0774841"><ele>9.0</ele><time>2026-05-03T06:45:05.009Z</time></trkpt><trkpt lat="41.3959771" lon="13.0775768"><ele>9.0</ele><time>2026-05-03T06:45:07.009Z</time></trkpt><trkpt lat="41.395896" lon="13.0776731"><ele>9.0</ele><time>2026-05-03T06:45:09.01Z</time></trkpt><trkpt lat="41.3958224" lon="13.0777736"><ele>9.0</ele><time>2026-05-03T06:45:11.009Z</time></trkpt><trkpt lat="41.3957474" lon="13.0778755"><ele>9.0</ele><time>2026-05-03T06:45:13.009Z</time></trkpt><trkpt lat="41.3956703" lon="13.0779682"><ele>9.0</ele><time>2026-05-03T06:45:15.009Z</time></trkpt><trkpt lat="41.3955946" lon="13.0780676"><ele>9.0</ele><time>2026-05-03T06:45:17.009Z</time></trkpt><trkpt lat="41.3955181" lon="13.0781662"><ele>9.0</ele><time>2026-05-03T06:45:19.009Z</time></trkpt><trkpt lat="41.3954456" lon="13.0782661"><ele>9.0</ele><time>2026-05-03T06:45:21.009Z</time></trkpt><trkpt lat="41.3953693" lon="13.0783621"><ele>9.0</ele><time>2026-05-03T06:45:23.009Z</time></trkpt><trkpt lat="41.395294" lon="13.0784618"><ele>9.0</ele><time>2026-05-03T06:45:25.009Z</time></trkpt><trkpt lat="41.395216" lon="13.0785602"><ele>8.6</ele><time>2026-05-03T06:45:27.009Z</time></trkpt><trkpt lat="41.395144" lon="13.0786561"><ele>8.2</ele><time>2026-05-03T06:45:29.01Z</time></trkpt><trkpt lat="41.3950683" lon="13.0787511"><ele>7.799999999999999</ele><time>2026-05-03T06:45:31.01Z</time></trkpt><trkpt lat="41.3949916" lon="13.0788511"><ele>7.3999999999999995</ele><time>2026-05-03T06:45:33.009Z</time></trkpt><trkpt lat="41.3949119" lon="13.0789445"><ele>7.0</ele><time>2026-05-03T06:45:35.009Z</time></trkpt><trkpt lat="41.3948317" lon="13.0790469"><ele>6.8</ele><time>2026-05-03T06:45:37.009Z</time></trkpt><trkpt lat="41.394758" lon="13.0791452"><ele>6.6</ele><time>2026-05-03T06:45:39.009Z</time></trkpt><trkpt lat="41.3946841" lon="13.0792454"><ele>6.3999999999999995</ele><time>2026-05-03T06:45:41.009Z</time></trkpt><trkpt lat="41.3946109" lon="13.0793414"><ele>6.199999999999999</ele><time>2026-05-03T06:45:43.009Z</time></trkpt><trkpt lat="41.394539" lon="13.0794315"><ele>6.0</ele><time>2026-05-03T06:45:45.009Z</time></trkpt><trkpt lat="41.3944665" lon="13.079526"><ele>6.4</ele><time>2026-05-03T06:45:47.009Z</time></trkpt><trkpt lat="41.3943953" lon="13.0796209"><ele>6.8</ele><time>2026-05-03T06:45:49.009Z</time></trkpt><trkpt lat="41.3943257" lon="13.0797168"><ele>7.200000000000001</ele><time>2026-05-03T06:45:51.009Z</time></trkpt><trkpt lat="41.39425" lon="13.0798094"><ele>7.6000000000000005</ele><time>2026-05-03T06:45:53.01Z</time></trkpt><trkpt lat="41.3941757" lon="13.0799032"><ele>8.0</ele><time>2026-05-03T06:45:55.009Z</time></trkpt><trkpt lat="41.3941046" lon="13.0799959"><ele>8.0</ele><time>2026-05-03T06:45:57.009Z</time></trkpt><trkpt lat="41.3940329" lon="13.0800842"><ele>8.0</ele><time>2026-05-03T06:45:59.009Z</time></trkpt><trkpt lat="41.3939657" lon="13.0801771"><ele>8.0</ele><time>2026-05-03T06:46:01.01Z</time></trkpt><trkpt lat="41.393901" lon="13.0802673"><ele>8.0</ele><time>2026-05-03T06:46:03.009Z</time></trkpt><trkpt lat="41.3938318" lon="13.0803649"><ele>8.0</ele><time>2026-05-03T06:46:05.009Z</time></trkpt><trkpt lat="41.3937593" lon="13.0804531"><ele>8.0</ele><time>2026-05-03T06:46:07.009Z</time></trkpt><trkpt lat="41.3936867" lon="13.0805451"><ele>8.0</ele><time>2026-05-03T06:46:09.01Z</time></trkpt><trkpt lat="41.3936111" lon="13.0806381"><ele>8.0</ele><time>2026-05-03T06:46:11.009Z</time></trkpt><trkpt lat="41.3935357" lon="13.0807352"><ele>8.0</ele><time>2026-05-03T06:46:13.009Z</time></trkpt><trkpt lat="41.3934678" lon="13.0808275"><ele>8.0</ele><time>2026-05-03T06:46:15.009Z</time></trkpt><trkpt lat="41.3933973" lon="13.0809185"><ele>8.0</ele><time>2026-05-03T06:46:17.01Z</time></trkpt><trkpt lat="41.3933236" lon="13.0810107"><ele>8.0</ele><time>2026-05-03T06:46:19.009Z</time></trkpt><trkpt lat="41.3932502" lon="13.0811023"><ele>8.0</ele><time>2026-05-03T06:46:21.009Z</time></trkpt><trkpt lat="41.3931817" lon="13.0811927"><ele>8.0</ele><time>2026-05-03T06:46:23.01Z</time></trkpt><trkpt lat="41.3931098" lon="13.0812867"><ele>8.0</ele><time>2026-05-03T06:46:25.009Z</time></trkpt><trkpt lat="41.3930417" lon="13.0813767"><ele>7.6000000000000005</ele><time>2026-05-03T06:46:27.009Z</time></trkpt><trkpt lat="41.3929677" lon="13.0814712"><ele>7.200000000000001</ele><time>2026-05-03T06:46:29.009Z</time></trkpt><trkpt lat="41.3928943" lon="13.0815688"><ele>6.8</ele><time>2026-05-03T06:46:31.009Z</time></trkpt><trkpt lat="41.3928238" lon="13.0816629"><ele>6.4</ele><time>2026-05-03T06:46:33.009Z</time></trkpt><trkpt lat="41.3927545" lon="13.0817524"><ele>6.0</ele><time>2026-05-03T06:46:35.01Z</time></trkpt><trkpt lat="41.3926823" lon="13.0818388"><ele>6.8</ele><time>2026-05-03T06:46:37.008Z</time></trkpt><trkpt lat="41.3926089" lon="13.081926"><ele>7.6</ele><time>2026-05-03T06:46:39.009Z</time></trkpt><trkpt lat="41.3925362" lon="13.0820213"><ele>8.4</ele><time>2026-05-03T06:46:41.01Z</time></trkpt><trkpt lat="41.392464" lon="13.0821155"><ele>9.2</ele><time>2026-05-03T06:46:43.009Z</time></trkpt><trkpt lat="41.3923911" lon="13.0822099"><ele>10.0</ele><time>2026-05-03T06:46:45.009Z</time></trkpt><trkpt lat="41.39232" lon="13.0823054"><ele>10.0</ele><time>2026-05-03T06:46:47.009Z</time></trkpt><trkpt lat="41.3922456" lon="13.0823907"><ele>10.0</ele><time>2026-05-03T06:46:49.009Z</time></trkpt><trkpt lat="41.3921744" lon="13.082484"><ele>10.0</ele><time>2026-05-03T06:46:51.01Z</time></trkpt><trkpt lat="41.3921029" lon="13.082583"><ele>10.0</ele><time>2026-05-03T06:46:53.009Z</time></trkpt><trkpt lat="41.3920311" lon="13.0826711"><ele>10.0</ele><time>2026-05-03T06:46:55.009Z</time></trkpt><trkpt lat="41.3919573" lon="13.0827629"><ele>9.6</ele><time>2026-05-03T06:46:57.009Z</time></trkpt><trkpt lat="41.3918836" lon="13.0828521"><ele>9.2</ele><time>2026-05-03T06:46:59.009Z</time></trkpt><trkpt lat="41.3918132" lon="13.0829481"><ele>8.8</ele><time>2026-05-03T06:47:01.01Z</time></trkpt><trkpt lat="41.3917434" lon="13.0830397"><ele>8.4</ele><time>2026-05-03T06:47:03.009Z</time></trkpt><trkpt lat="41.3916748" lon="13.0831323"><ele>8.0</ele><time>2026-05-03T06:47:05.009Z</time></trkpt><trkpt lat="41.3916017" lon="13.0832151"><ele>7.800000000000001</ele><time>2026-05-03T06:47:07.009Z</time></trkpt><trkpt lat="41.3915318" lon="13.0833022"><ele>7.6000000000000005</ele><time>2026-05-03T06:47:09.01Z</time></trkpt><trkpt lat="41.3914651" lon="13.0833928"><ele>7.3999999999999995</ele><time>2026-05-03T06:47:11.009Z</time></trkpt><trkpt lat="41.3913965" lon="13.0834865"><ele>7.199999999999999</ele><time>2026-05-03T06:47:13.01Z</time></trkpt><trkpt lat="41.3913279" lon="13.0835764"><ele>7.0</ele><time>2026-05-03T06:47:15.009Z</time></trkpt><trkpt lat="41.3912596" lon="13.0836602"><ele>7.0</ele><time>2026-05-03T06:47:17.009Z</time></trkpt><trkpt lat="41.3911929" lon="13.0837498"><ele>6.999999999999999</ele><time>2026-05-03T06:47:19.01Z</time></trkpt><trkpt lat="41.3911237" lon="13.0838366"><ele>6.999999999999999</ele><time>2026-05-03T06:47:21.009Z</time></trkpt><trkpt lat="41.3910534" lon="13.0839292"><ele>7.0</ele><time>2026-05-03T06:47:23.009Z</time></trkpt><trkpt lat="41.3909849" lon="13.0840177"><ele>7.0</ele><time>2026-05-03T06:47:25.009Z</time></trkpt><trkpt lat="41.3909163" lon="13.084097"><ele>7.199999999999999</ele><time>2026-05-03T06:47:27.01Z</time></trkpt><trkpt lat="41.3908453" lon="13.0841853"><ele>7.3999999999999995</ele><time>2026-05-03T06:47:29.01Z</time></trkpt><trkpt lat="41.3907787" lon="13.0842796"><ele>7.6000000000000005</ele><time>2026-05-03T06:47:31.01Z</time></trkpt><trkpt lat="41.3907067" lon="13.084367"><ele>7.800000000000001</ele><time>2026-05-03T06:47:33.01Z</time></trkpt><trkpt lat="41.3906335" lon="13.0844591"><ele>8.0</ele><time>2026-05-03T06:47:35.009Z</time></trkpt><trkpt lat="41.3905669" lon="13.0845478"><ele>8.200000000000001</ele><time>2026-05-03T06:47:37.01Z</time></trkpt><trkpt lat="41.3904966" lon="13.0846406"><ele>8.4</ele><time>2026-05-03T06:47:39.01Z</time></trkpt><trkpt lat="41.3904261" lon="13.0847381"><ele>8.600000000000001</ele><time>2026-05-03T06:47:41.009Z</time></trkpt><trkpt lat="41.3903531" lon="13.0848241"><ele>8.8</ele><time>2026-05-03T06:47:43.009Z</time></trkpt><trkpt lat="41.390277" lon="13.0849165"><ele>9.0</ele><time>2026-05-03T06:47:45.009Z</time></trkpt><trkpt lat="41.3902005" lon="13.0850112"><ele>9.0</ele><time>2026-05-03T06:47:47.01Z</time></trkpt><trkpt lat="41.3901277" lon="13.0851024"><ele>9.0</ele><time>2026-05-03T06:47:49.009Z</time></trkpt><trkpt lat="41.3900517" lon="13.0851921"><ele>9.0</ele><time>2026-05-03T06:47:51.01Z</time></trkpt><trkpt lat="41.3899863" lon="13.0852832"><ele>9.0</ele><time>2026-05-03T06:47:53.009Z</time></trkpt><trkpt lat="41.3899193" lon="13.0853763"><ele>9.0</ele><time>2026-05-03T06:47:55.009Z</time></trkpt><trkpt lat="41.3898479" lon="13.0854623"><ele>9.0</ele><time>2026-05-03T06:47:57.009Z</time></trkpt><trkpt lat="41.3897798" lon="13.0855536"><ele>9.0</ele><time>2026-05-03T06:47:59.009Z</time></trkpt><trkpt lat="41.3897151" lon="13.0856492"><ele>9.0</ele><time>2026-05-03T06:48:01.009Z</time></trkpt><trkpt lat="41.3896402" lon="13.0857358"><ele>9.0</ele><time>2026-05-03T06:48:03.01Z</time></trkpt><trkpt lat="41.3895631" lon="13.0858227"><ele>9.0</ele><time>2026-05-03T06:48:05.009Z</time></trkpt><trkpt lat="41.3894899" lon="13.085915"><ele>8.4</ele><time>2026-05-03T06:48:07.009Z</time></trkpt><trkpt lat="41.3894237" lon="13.0860095"><ele>7.800000000000001</ele><time>2026-05-03T06:48:09.009Z</time></trkpt><trkpt lat="41.3893531" lon="13.0861004"><ele>7.199999999999999</ele><time>2026-05-03T06:48:11.01Z</time></trkpt><trkpt lat="41.3892789" lon="13.086193"><ele>6.6</ele><time>2026-05-03T06:48:13.009Z</time></trkpt><trkpt lat="41.3892075" lon="13.0862841"><ele>6.0</ele><time>2026-05-03T06:48:15.01Z</time></trkpt><trkpt lat="41.3891363" lon="13.0863747"><ele>6.0</ele><time>2026-05-03T06:48:17.009Z</time></trkpt><trkpt lat="41.3890686" lon="13.0864663"><ele>6.0</ele><time>2026-05-03T06:48:19.009Z</time></trkpt><trkpt lat="41.3889952" lon="13.0865556"><ele>6.0</ele><time>2026-05-03T06:48:21.009Z</time></trkpt><trkpt lat="41.3889216" lon="13.0866508"><ele>6.0</ele><time>2026-05-03T06:48:23.01Z</time></trkpt><trkpt lat="41.3888515" lon="13.086743"><ele>6.0</ele><time>2026-05-03T06:48:25.009Z</time></trkpt><trkpt lat="41.38878" lon="13.0868373"><ele>5.6</ele><time>2026-05-03T06:48:27.009Z</time></trkpt><trkpt lat="41.3887111" lon="13.0869289"><ele>5.199999999999999</ele><time>2026-05-03T06:48:29.01Z</time></trkpt><trkpt lat="41.3886341" lon="13.0870209"><ele>4.800000000000001</ele><time>2026-05-03T06:48:31.009Z</time></trkpt><trkpt lat="41.3885605" lon="13.0871201"><ele>4.4</ele><time>2026-05-03T06:48:33.009Z</time></trkpt><trkpt lat="41.3884879" lon="13.0872134"><ele>4.0</ele><time>2026-05-03T06:48:35.01Z</time></trkpt><trkpt lat="41.3884126" lon="13.087308"><ele>4.0</ele><time>2026-05-03T06:48:37.009Z</time></trkpt><trkpt lat="41.3883345" lon="13.0874065"><ele>4.0</ele><time>2026-05-03T06:48:39.009Z</time></trkpt><trkpt lat="41.3882634" lon="13.0875"><ele>4.0</ele><time>2026-05-03T06:48:41.01Z</time></trkpt><trkpt lat="41.3881874" lon="13.0875933"><ele>4.0</ele><time>2026-05-03T06:48:43.009Z</time></trkpt><trkpt lat="41.3881168" lon="13.0876845"><ele>4.0</ele><time>2026-05-03T06:48:45.01Z</time></trkpt><trkpt lat="41.3880482" lon="13.0877797"><ele>4.0</ele><time>2026-05-03T06:48:47.01Z</time></trkpt><trkpt lat="41.3879741" lon="13.0878699"><ele>4.0</ele><time>2026-05-03T06:48:49.01Z</time></trkpt><trkpt lat="41.3879008" lon="13.0879613"><ele>4.0</ele><time>2026-05-03T06:48:51.01Z</time></trkpt><trkpt lat="41.3878251" lon="13.0880543"><ele>4.0</ele><time>2026-05-03T06:48:53.009Z</time></trkpt><trkpt lat="41.3877522" lon="13.0881506"><ele>4.0</ele><time>2026-05-03T06:48:55.009Z</time></trkpt><trkpt lat="41.3876797" lon="13.0882402"><ele>4.2</ele><time>2026-05-03T06:48:57.01Z</time></trkpt><trkpt lat="41.3876095" lon="13.0883299"><ele>4.4</ele><time>2026-05-03T06:48:59.009Z</time></trkpt><trkpt lat="41.387542" lon="13.0884207"><ele>4.6</ele><time>2026-05-03T06:49:01.009Z</time></trkpt><trkpt lat="41.3874694" lon="13.0885162"><ele>4.8</ele><time>2026-05-03T06:49:03.01Z</time></trkpt><trkpt lat="41.3873976" lon="13.0886091"><ele>5.0</ele><time>2026-05-03T06:49:05.009Z</time></trkpt><trkpt lat="41.3873213" lon="13.0887007"><ele>5.0</ele><time>2026-05-03T06:49:07.01Z</time></trkpt><trkpt lat="41.3872494" lon="13.0887894"><ele>5.0</ele><time>2026-05-03T06:49:09.01Z</time></trkpt><trkpt lat="41.3871783" lon="13.0888856"><ele>5.0</ele><time>2026-05-03T06:49:11.009Z</time></trkpt><trkpt lat="41.3871093" lon="13.0889719"><ele>5.0</ele><time>2026-05-03T06:49:13.01Z</time></trkpt><trkpt lat="41.3870361" lon="13.0890622"><ele>5.0</ele><time>2026-05-03T06:49:15.01Z</time></trkpt><trkpt lat="41.3869613" lon="13.0891571"><ele>5.4</ele><time>2026-05-03T06:49:17.01Z</time></trkpt><trkpt lat="41.3868878" lon="13.0892519"><ele>5.8</ele><time>2026-05-03T06:49:19.01Z</time></trkpt><trkpt lat="41.3868161" lon="13.0893473"><ele>6.199999999999999</ele><time>2026-05-03T06:49:21.01Z</time></trkpt><trkpt lat="41.3867395" lon="13.0894384"><ele>6.6</ele><time>2026-05-03T06:49:23.009Z</time></trkpt><trkpt lat="41.3866668" lon="13.0895299"><ele>7.0</ele><time>2026-05-03T06:49:25.009Z</time></trkpt><trkpt lat="41.3865946" lon="13.089626"><ele>7.0</ele><time>2026-05-03T06:49:27.01Z</time></trkpt><trkpt lat="41.3865206" lon="13.0897169"><ele>6.999999999999999</ele><time>2026-05-03T06:49:29.01Z</time></trkpt><trkpt lat="41.386449" lon="13.0898144"><ele>6.999999999999999</ele><time>2026-05-03T06:49:31.009Z</time></trkpt><trkpt lat="41.3863709" lon="13.0899106"><ele>7.0</ele><time>2026-05-03T06:49:33.009Z</time></trkpt><trkpt lat="41.3862971" lon="13.0900068"><ele>7.0</ele><time>2026-05-03T06:49:35.009Z</time></trkpt><trkpt lat="41.3862232" lon="13.0900995"><ele>6.6</ele><time>2026-05-03T06:49:37.009Z</time></trkpt><trkpt lat="41.3861501" lon="13.0901962"><ele>6.199999999999999</ele><time>2026-05-03T06:49:39.009Z</time></trkpt><trkpt lat="41.3860769" lon="13.0902924"><ele>5.8</ele><time>2026-05-03T06:49:41.009Z</time></trkpt><trkpt lat="41.3860017" lon="13.090387"><ele>5.4</ele><time>2026-05-03T06:49:43.009Z</time></trkpt><trkpt lat="41.3859319" lon="13.090475"><ele>5.0</ele><time>2026-05-03T06:49:45.009Z</time></trkpt><trkpt lat="41.3858609" lon="13.0905702"><ele>5.0</ele><time>2026-05-03T06:49:47.01Z</time></trkpt><trkpt lat="41.385785" lon="13.0906694"><ele>5.0</ele><time>2026-05-03T06:49:49.009Z</time></trkpt><trkpt lat="41.3857139" lon="13.0907613"><ele>5.0</ele><time>2026-05-03T06:49:51.01Z</time></trkpt><trkpt lat="41.3856415" lon="13.0908547"><ele>5.0</ele><time>2026-05-03T06:49:53.009Z</time></trkpt><trkpt lat="41.385568" lon="13.0909477"><ele>5.0</ele><time>2026-05-03T06:49:55.009Z</time></trkpt><trkpt lat="41.3854924" lon="13.0910416"><ele>5.2</ele><time>2026-05-03T06:49:57.01Z</time></trkpt><trkpt lat="41.3854171" lon="13.0911362"><ele>5.4</ele><time>2026-05-03T06:49:59.009Z</time></trkpt><trkpt lat="41.385344" lon="13.0912361"><ele>5.6</ele><time>2026-05-03T06:50:01.009Z</time></trkpt><trkpt lat="41.385275" lon="13.0913289"><ele>5.8</ele><time>2026-05-03T06:50:03.009Z</time></trkpt><trkpt lat="41.3852047" lon="13.0914214"><ele>6.0</ele><time>2026-05-03T06:50:05.01Z</time></trkpt><trkpt lat="41.3851347" lon="13.0915017"><ele>6.0</ele><time>2026-05-03T06:50:07.009Z</time></trkpt><trkpt lat="41.3850682" lon="13.0915855"><ele>6.0</ele><time>2026-05-03T06:50:09.01Z</time></trkpt><trkpt lat="41.3850086" lon="13.0916639"><ele>6.0</ele><time>2026-05-03T06:50:11.009Z</time></trkpt><trkpt lat="41.3849505" lon="13.0917305"><ele>6.0</ele><time>2026-05-03T06:50:13.01Z</time></trkpt><trkpt lat="41.3848948" lon="13.0918035"><ele>6.0</ele><time>2026-05-03T06:50:15.009Z</time></trkpt><trkpt lat="41.3848411" lon="13.0918713"><ele>6.0</ele><time>2026-05-03T06:50:17.009Z</time></trkpt><trkpt lat="41.384783" lon="13.0919443"><ele>5.857142857142857</ele><time>2026-05-03T06:50:19.009Z</time></trkpt><trkpt lat="41.3847241" lon="13.0920163"><ele>5.714285714285714</ele><time>2026-05-03T06:50:21.009Z</time></trkpt><trkpt lat="41.3846716" lon="13.0920882"><ele>5.571428571428571</ele><time>2026-05-03T06:50:23.01Z</time></trkpt><trkpt lat="41.3846215" lon="13.0921572"><ele>5.428571428571429</ele><time>2026-05-03T06:50:25.01Z</time></trkpt><trkpt lat="41.3845775" lon="13.0922311"><ele>5.285714285714286</ele><time>2026-05-03T06:50:27.009Z</time></trkpt><trkpt lat="41.3845427" lon="13.0923038"><ele>5.142857142857142</ele><time>2026-05-03T06:50:29.009Z</time></trkpt><trkpt lat="41.3844827" lon="13.0923412"><ele>5.0</ele><time>2026-05-03T06:50:31.009Z</time></trkpt><trkpt lat="41.3844241" lon="13.0922949"><ele>5.0</ele><time>2026-05-03T06:50:33.009Z</time></trkpt><trkpt lat="41.3843718" lon="13.0922299"><ele>5.0</ele><time>2026-05-03T06:50:35.009Z</time></trkpt><trkpt lat="41.3842965" lon="13.0921802"><ele>5.0</ele><time>2026-05-03T06:50:37.01Z</time></trkpt><trkpt lat="41.3842128" lon="13.0922095"><ele>5.0</ele><time>2026-05-03T06:50:39.009Z</time></trkpt><trkpt lat="41.3841575" lon="13.0923056"><ele>5.0</ele><time>2026-05-03T06:50:41.01Z</time></trkpt><trkpt lat="41.384114" lon="13.0924093"><ele>5.0</ele><time>2026-05-03T06:50:43.01Z</time></trkpt><trkpt lat="41.3840621" lon="13.0925012"><ele>5.0</ele><time>2026-05-03T06:50:45.01Z</time></trkpt><trkpt lat="41.3840037" lon="13.0925901"><ele>5.0</ele><time>2026-05-03T06:50:47.009Z</time></trkpt><trkpt lat="41.3839386" lon="13.0926722"><ele>5.0</ele><time>2026-05-03T06:50:49.01Z</time></trkpt><trkpt lat="41.3838691" lon="13.0927554"><ele>5.0</ele><time>2026-05-03T06:50:51.009Z</time></trkpt><trkpt lat="41.3838006" lon="13.0928434"><ele>5.0</ele><time>2026-05-03T06:50:53.009Z</time></trkpt><trkpt lat="41.3837324" lon="13.0929311"><ele>5.0</ele><time>2026-05-03T06:50:55.009Z</time></trkpt><trkpt lat="41.3836618" lon="13.0930194"><ele>5.0</ele><time>2026-05-03T06:50:57.01Z</time></trkpt><trkpt lat="41.3835875" lon="13.0931017"><ele>5.0</ele><time>2026-05-03T06:50:59.009Z</time></trkpt><trkpt lat="41.3835185" lon="13.0931841"><ele>5.0</ele><time>2026-05-03T06:51:01.01Z</time></trkpt><trkpt lat="41.3834512" lon="13.0932746"><ele>5.0</ele><time>2026-05-03T06:51:03.01Z</time></trkpt><trkpt lat="41.3833853" lon="13.0933623"><ele>5.0</ele><time>2026-05-03T06:51:05.01Z</time></trkpt><trkpt lat="41.3833155" lon="13.0934463"><ele>5.0</ele><time>2026-05-03T06:51:07.009Z</time></trkpt><trkpt lat="41.3832517" lon="13.0935336"><ele>5.0</ele><time>2026-05-03T06:51:09.009Z</time></trkpt><trkpt lat="41.3831852" lon="13.0936231"><ele>5.0</ele><time>2026-05-03T06:51:11.01Z</time></trkpt><trkpt lat="41.3831139" lon="13.0937094"><ele>5.0</ele><time>2026-05-03T06:51:13.009Z</time></trkpt><trkpt lat="41.3830557" lon="13.0937984"><ele>5.0</ele><time>2026-05-03T06:51:15.01Z</time></trkpt><trkpt lat="41.3829901" lon="13.093891"><ele>5.0</ele><time>2026-05-03T06:51:17.01Z</time></trkpt><trkpt lat="41.382921" lon="13.0939802"><ele>5.0</ele><time>2026-05-03T06:51:19.01Z</time></trkpt><trkpt lat="41.3828557" lon="13.0940692"><ele>5.0</ele><time>2026-05-03T06:51:21.01Z</time></trkpt><trkpt lat="41.3827854" lon="13.0941521"><ele>5.0</ele><time>2026-05-03T06:51:23.01Z</time></trkpt><trkpt lat="41.3827114" lon="13.0942409"><ele>5.2</ele><time>2026-05-03T06:51:25.01Z</time></trkpt><trkpt lat="41.3826447" lon="13.0943318"><ele>5.4</ele><time>2026-05-03T06:51:27.01Z</time></trkpt><trkpt lat="41.382575" lon="13.0944154"><ele>5.6</ele><time>2026-05-03T06:51:29.009Z</time></trkpt><trkpt lat="41.3825051" lon="13.0945053"><ele>5.8</ele><time>2026-05-03T06:51:31.01Z</time></trkpt><trkpt lat="41.3824349" lon="13.094593"><ele>6.0</ele><time>2026-05-03T06:51:33.009Z</time></trkpt><trkpt lat="41.3823628" lon="13.0946815"><ele>6.0</ele><time>2026-05-03T06:51:35.009Z</time></trkpt><trkpt lat="41.3822933" lon="13.0947698"><ele>6.0</ele><time>2026-05-03T06:51:37.01Z</time></trkpt><trkpt lat="41.3822172" lon="13.0948562"><ele>6.0</ele><time>2026-05-03T06:51:39.01Z</time></trkpt><trkpt lat="41.3821474" lon="13.0949464"><ele>6.0</ele><time>2026-05-03T06:51:41.009Z</time></trkpt><trkpt lat="41.3820741" lon="13.0950339"><ele>6.0</ele><time>2026-05-03T06:51:43.009Z</time></trkpt><trkpt lat="41.3820069" lon="13.0951296"><ele>6.0</ele><time>2026-05-03T06:51:45.01Z</time></trkpt><trkpt lat="41.3819354" lon="13.0952281"><ele>6.0</ele><time>2026-05-03T06:51:47.009Z</time></trkpt><trkpt lat="41.3818637" lon="13.0953185"><ele>6.0</ele><time>2026-05-03T06:51:49.009Z</time></trkpt><trkpt lat="41.3817917" lon="13.0954161"><ele>6.0</ele><time>2026-05-03T06:51:51.01Z</time></trkpt><trkpt lat="41.381724" lon="13.0954987"><ele>6.0</ele><time>2026-05-03T06:51:53.01Z</time></trkpt><trkpt lat="41.3816518" lon="13.0955847"><ele>6.0</ele><time>2026-05-03T06:51:55.009Z</time></trkpt><trkpt lat="41.3815812" lon="13.0956799"><ele>6.0</ele><time>2026-05-03T06:51:57.01Z</time></trkpt><trkpt lat="41.381509" lon="13.0957683"><ele>6.0</ele><time>2026-05-03T06:51:59.009Z</time></trkpt><trkpt lat="41.3814448" lon="13.0958538"><ele>6.0</ele><time>2026-05-03T06:52:01.009Z</time></trkpt><trkpt lat="41.3813793" lon="13.0959475"><ele>6.0</ele><time>2026-05-03T06:52:03.01Z</time></trkpt><trkpt lat="41.3813134" lon="13.0960382"><ele>6.0</ele><time>2026-05-03T06:52:05.009Z</time></trkpt><trkpt lat="41.3812422" lon="13.0961238"><ele>6.0</ele><time>2026-05-03T06:52:07.009Z</time></trkpt><trkpt lat="41.3811691" lon="13.0962089"><ele>6.0</ele><time>2026-05-03T06:52:09.009Z</time></trkpt><trkpt lat="41.3810989" lon="13.0962967"><ele>6.0</ele><time>2026-05-03T06:52:11.01Z</time></trkpt><trkpt lat="41.381028" lon="13.096384"><ele>6.0</ele><time>2026-05-03T06:52:13.009Z</time></trkpt><trkpt lat="41.3809597" lon="13.0964725"><ele>6.0</ele><time>2026-05-03T06:52:15.01Z</time></trkpt><trkpt lat="41.3808916" lon="13.0965615"><ele>6.0</ele><time>2026-05-03T06:52:17.01Z</time></trkpt><trkpt lat="41.3808223" lon="13.0966507"><ele>6.0</ele><time>2026-05-03T06:52:19.01Z</time></trkpt><trkpt lat="41.3807546" lon="13.0967395"><ele>6.0</ele><time>2026-05-03T06:52:21.01Z</time></trkpt><trkpt lat="41.3806834" lon="13.0968252"><ele>6.0</ele><time>2026-05-03T06:52:23.01Z</time></trkpt><trkpt lat="41.380616" lon="13.0969137"><ele>6.199999999999999</ele><time>2026-05-03T06:52:25.01Z</time></trkpt><trkpt lat="41.3805484" lon="13.097002"><ele>6.3999999999999995</ele><time>2026-05-03T06:52:27.009Z</time></trkpt><trkpt lat="41.3804833" lon="13.0970905"><ele>6.6</ele><time>2026-05-03T06:52:29.01Z</time></trkpt><trkpt lat="41.3804101" lon="13.0971835"><ele>6.8</ele><time>2026-05-03T06:52:31.009Z</time></trkpt><trkpt lat="41.3803389" lon="13.097272"><ele>7.0</ele><time>2026-05-03T06:52:33.01Z</time></trkpt><trkpt lat="41.3802664" lon="13.0973691"><ele>6.6</ele><time>2026-05-03T06:52:35.009Z</time></trkpt><trkpt lat="41.3801914" lon="13.097457"><ele>6.199999999999999</ele><time>2026-05-03T06:52:37.01Z</time></trkpt><trkpt lat="41.3801175" lon="13.0975515"><ele>5.8</ele><time>2026-05-03T06:52:39.009Z</time></trkpt><trkpt lat="41.3800463" lon="13.0976443"><ele>5.4</ele><time>2026-05-03T06:52:41.01Z</time></trkpt><trkpt lat="41.3799764" lon="13.0977367"><ele>5.0</ele><time>2026-05-03T06:52:43.009Z</time></trkpt><trkpt lat="41.3799076" lon="13.097828"><ele>5.0</ele><time>2026-05-03T06:52:45.009Z</time></trkpt><trkpt lat="41.3798311" lon="13.0979196"><ele>5.0</ele><time>2026-05-03T06:52:47.009Z</time></trkpt><trkpt lat="41.3797608" lon="13.0980109"><ele>5.0</ele><time>2026-05-03T06:52:49.009Z</time></trkpt><trkpt lat="41.3796935" lon="13.0981047"><ele>5.0</ele><time>2026-05-03T06:52:51.009Z</time></trkpt><trkpt lat="41.3796292" lon="13.0981814"><ele>5.0</ele><time>2026-05-03T06:52:53.009Z</time></trkpt><trkpt lat="41.3795674" lon="13.0982529"><ele>5.0</ele><time>2026-05-03T06:52:55.009Z</time></trkpt><trkpt lat="41.3795111" lon="13.0983277"><ele>5.0</ele><time>2026-05-03T06:52:57.009Z</time></trkpt><trkpt lat="41.3794579" lon="13.0983934"><ele>5.0</ele><time>2026-05-03T06:52:59.009Z</time></trkpt><trkpt lat="41.3794051" lon="13.0984594"><ele>5.0</ele><time>2026-05-03T06:53:01.009Z</time></trkpt><trkpt lat="41.3793588" lon="13.0985239"><ele>5.0</ele><time>2026-05-03T06:53:03.01Z</time></trkpt><trkpt lat="41.3793125" lon="13.0985909"><ele>5.0</ele><time>2026-05-03T06:53:05.01Z</time></trkpt><trkpt lat="41.3792653" lon="13.0986528"><ele>5.0</ele><time>2026-05-03T06:53:07.01Z</time></trkpt><trkpt lat="41.3792128" lon="13.0987178"><ele>5.0</ele><time>2026-05-03T06:53:09.009Z</time></trkpt><trkpt lat="41.3791562" lon="13.0987847"><ele>5.0</ele><time>2026-05-03T06:53:11.01Z</time></trkpt><trkpt lat="41.3790923" lon="13.0988696"><ele>5.0</ele><time>2026-05-03T06:53:13.009Z</time></trkpt><trkpt lat="41.379028" lon="13.0989521"><ele>5.0</ele><time>2026-05-03T06:53:15.01Z</time></trkpt><trkpt lat="41.3789589" lon="13.0990387"><ele>5.0</ele><time>2026-05-03T06:53:17.009Z</time></trkpt><trkpt lat="41.3788873" lon="13.0991289"><ele>5.0</ele><time>2026-05-03T06:53:19.009Z</time></trkpt><trkpt lat="41.3788178" lon="13.0992186"><ele>4.6</ele><time>2026-05-03T06:53:21.009Z</time></trkpt><trkpt lat="41.378748" lon="13.0993052"><ele>4.2</ele><time>2026-05-03T06:53:23.01Z</time></trkpt><trkpt lat="41.3786813" lon="13.0993953"><ele>3.8</ele><time>2026-05-03T06:53:25.01Z</time></trkpt><trkpt lat="41.3786064" lon="13.0994835"><ele>3.4</ele><time>2026-05-03T06:53:27.01Z</time></trkpt><trkpt lat="41.3785419" lon="13.0995738"><ele>3.0</ele><time>2026-05-03T06:53:29.009Z</time></trkpt><trkpt lat="41.3784653" lon="13.0996661"><ele>3.0</ele><time>2026-05-03T06:53:31.009Z</time></trkpt><trkpt lat="41.3783916" lon="13.0997612"><ele>3.0</ele><time>2026-05-03T06:53:33.009Z</time></trkpt><trkpt lat="41.3783214" lon="13.0998478"><ele>3.0</ele><time>2026-05-03T06:53:35.01Z</time></trkpt><trkpt lat="41.3782459" lon="13.0999366"><ele>3.0</ele><time>2026-05-03T06:53:37.009Z</time></trkpt><trkpt lat="41.3781739" lon="13.100031"><ele>3.0</ele><time>2026-05-03T06:53:39.01Z</time></trkpt><trkpt lat="41.3781058" lon="13.100121"><ele>3.4</ele><time>2026-05-03T06:53:41.009Z</time></trkpt><trkpt lat="41.3780356" lon="13.100212"><ele>3.8</ele><time>2026-05-03T06:53:43.01Z</time></trkpt><trkpt lat="41.3779604" lon="13.1003036"><ele>4.2</ele><time>2026-05-03T06:53:45.009Z</time></trkpt><trkpt lat="41.3778892" lon="13.100396"><ele>4.6</ele><time>2026-05-03T06:53:47.009Z</time></trkpt><trkpt lat="41.3778176" lon="13.1004869"><ele>5.0</ele><time>2026-05-03T06:53:49.01Z</time></trkpt><trkpt lat="41.3777499" lon="13.1005794"><ele>5.0</ele><time>2026-05-03T06:53:51.009Z</time></trkpt><trkpt lat="41.3776813" lon="13.1006725"><ele>5.0</ele><time>2026-05-03T06:53:53.01Z</time></trkpt><trkpt lat="41.3776093" lon="13.100768"><ele>5.0</ele><time>2026-05-03T06:53:55.009Z</time></trkpt><trkpt lat="41.377536" lon="13.1008592"><ele>5.0</ele><time>2026-05-03T06:53:57.009Z</time></trkpt><trkpt lat="41.3774614" lon="13.1009515"><ele>5.0</ele><time>2026-05-03T06:53:59.01Z</time></trkpt><trkpt lat="41.3773847" lon="13.1010416"><ele>5.0</ele><time>2026-05-03T06:54:01.009Z</time></trkpt><trkpt lat="41.3773122" lon="13.1011359"><ele>5.0</ele><time>2026-05-03T06:54:03.009Z</time></trkpt><trkpt lat="41.3772372" lon="13.1012314"><ele>5.0</ele><time>2026-05-03T06:54:05.01Z</time></trkpt><trkpt lat="41.3771694" lon="13.1013295"><ele>5.0</ele><time>2026-05-03T06:54:07.009Z</time></trkpt><trkpt lat="41.3770994" lon="13.1014255"><ele>5.0</ele><time>2026-05-03T06:54:09.009Z</time></trkpt><trkpt lat="41.3770255" lon="13.1015166"><ele>5.4</ele><time>2026-05-03T06:54:11.009Z</time></trkpt><trkpt lat="41.3769517" lon="13.1016122"><ele>5.8</ele><time>2026-05-03T06:54:13.01Z</time></trkpt><trkpt lat="41.3768792" lon="13.1017069"><ele>6.199999999999999</ele><time>2026-05-03T06:54:15.01Z</time></trkpt><trkpt lat="41.3768066" lon="13.1017986"><ele>6.6</ele><time>2026-05-03T06:54:17.01Z</time></trkpt><trkpt lat="41.3767339" lon="13.1018953"><ele>7.0</ele><time>2026-05-03T06:54:19.009Z</time></trkpt><trkpt lat="41.3766627" lon="13.1019905"><ele>7.0</ele><time>2026-05-03T06:54:21.009Z</time></trkpt><trkpt lat="41.3765855" lon="13.1020831"><ele>6.999999999999999</ele><time>2026-05-03T06:54:23.009Z</time></trkpt><trkpt lat="41.3765126" lon="13.1021785"><ele>6.999999999999999</ele><time>2026-05-03T06:54:25.009Z</time></trkpt><trkpt lat="41.3764361" lon="13.1022755"><ele>7.0</ele><time>2026-05-03T06:54:27.01Z</time></trkpt><trkpt lat="41.3763593" lon="13.1023746"><ele>7.0</ele><time>2026-05-03T06:54:29.01Z</time></trkpt><trkpt lat="41.3762904" lon="13.1024686"><ele>6.8</ele><time>2026-05-03T06:54:31.009Z</time></trkpt><trkpt lat="41.3762189" lon="13.1025619"><ele>6.6</ele><time>2026-05-03T06:54:33.009Z</time></trkpt><trkpt lat="41.3761504" lon="13.1026578"><ele>6.3999999999999995</ele><time>2026-05-03T06:54:35.009Z</time></trkpt><trkpt lat="41.3760746" lon="13.1027464"><ele>6.199999999999999</ele><time>2026-05-03T06:54:37.009Z</time></trkpt><trkpt lat="41.3760005" lon="13.1028408"><ele>6.0</ele><time>2026-05-03T06:54:39.009Z</time></trkpt><trkpt lat="41.3759294" lon="13.102937"><ele>6.0</ele><time>2026-05-03T06:54:41.01Z</time></trkpt><trkpt lat="41.3758581" lon="13.1030261"><ele>6.0</ele><time>2026-05-03T06:54:43.009Z</time></trkpt><trkpt lat="41.3757854" lon="13.1031175"><ele>6.0</ele><time>2026-05-03T06:54:45.01Z</time></trkpt><trkpt lat="41.3757126" lon="13.1032091"><ele>6.0</ele><time>2026-05-03T06:54:47.01Z</time></trkpt><trkpt lat="41.3756392" lon="13.1033"><ele>6.0</ele><time>2026-05-03T06:54:49.01Z</time></trkpt><trkpt lat="41.3755665" lon="13.1033953"><ele>6.0</ele><time>2026-05-03T06:54:51.009Z</time></trkpt><trkpt lat="41.3754965" lon="13.103486"><ele>6.0</ele><time>2026-05-03T06:54:53.009Z</time></trkpt><trkpt lat="41.3754285" lon="13.1035734"><ele>6.0</ele><time>2026-05-03T06:54:55.009Z</time></trkpt><trkpt lat="41.3753555" lon="13.1036635"><ele>6.0</ele><time>2026-05-03T06:54:57.009Z</time></trkpt><trkpt lat="41.375285" lon="13.1037528"><ele>6.0</ele><time>2026-05-03T06:54:59.009Z</time></trkpt><trkpt lat="41.3752184" lon="13.1038448"><ele>6.0</ele><time>2026-05-03T06:55:01.01Z</time></trkpt><trkpt lat="41.3751443" lon="13.1039307"><ele>6.0</ele><time>2026-05-03T06:55:03.01Z</time></trkpt><trkpt lat="41.3750671" lon="13.1040182"><ele>6.0</ele><time>2026-05-03T06:55:05.01Z</time></trkpt><trkpt lat="41.3749932" lon="13.1041174"><ele>6.0</ele><time>2026-05-03T06:55:07.009Z</time></trkpt><trkpt lat="41.3749218" lon="13.1042115"><ele>6.0</ele><time>2026-05-03T06:55:09.009Z</time></trkpt><trkpt lat="41.3748492" lon="13.1043077"><ele>5.8</ele><time>2026-05-03T06:55:11.009Z</time></trkpt><trkpt lat="41.3747805" lon="13.1044061"><ele>5.6</ele><time>2026-05-03T06:55:13.009Z</time></trkpt><trkpt lat="41.3747093" lon="13.1044978"><ele>5.4</ele><time>2026-05-03T06:55:15.009Z</time></trkpt><trkpt lat="41.3746365" lon="13.1045958"><ele>5.2</ele><time>2026-05-03T06:55:17.009Z</time></trkpt><trkpt lat="41.3745665" lon="13.1046868"><ele>5.0</ele><time>2026-05-03T06:55:19.01Z</time></trkpt><trkpt lat="41.3744938" lon="13.1047751"><ele>5.0</ele><time>2026-05-03T06:55:21.009Z</time></trkpt><trkpt lat="41.37442" lon="13.104864"><ele>5.0</ele><time>2026-05-03T06:55:23.01Z</time></trkpt><trkpt lat="41.3743491" lon="13.1049599"><ele>5.0</ele><time>2026-05-03T06:55:25.009Z</time></trkpt><trkpt lat="41.3742804" lon="13.105049"><ele>5.0</ele><time>2026-05-03T06:55:27.009Z</time></trkpt><trkpt lat="41.3742109" lon="13.1051392"><ele>5.0</ele><time>2026-05-03T06:55:29.009Z</time></trkpt><trkpt lat="41.3741384" lon="13.1052238"><ele>5.0</ele><time>2026-05-03T06:55:31.009Z</time></trkpt><trkpt lat="41.374071" lon="13.1053153"><ele>5.0</ele><time>2026-05-03T06:55:33.01Z</time></trkpt><trkpt lat="41.3739992" lon="13.1054017"><ele>5.0</ele><time>2026-05-03T06:55:35.009Z</time></trkpt><trkpt lat="41.3739304" lon="13.1054928"><ele>5.0</ele><time>2026-05-03T06:55:37.009Z</time></trkpt><trkpt lat="41.3738625" lon="13.1055838"><ele>5.0</ele><time>2026-05-03T06:55:39.009Z</time></trkpt><trkpt lat="41.3737933" lon="13.1056751"><ele>5.2</ele><time>2026-05-03T06:55:41.01Z</time></trkpt><trkpt lat="41.3737193" lon="13.1057658"><ele>5.4</ele><time>2026-05-03T06:55:43.009Z</time></trkpt><trkpt lat="41.3736501" lon="13.1058557"><ele>5.6</ele><time>2026-05-03T06:55:45.01Z</time></trkpt><trkpt lat="41.3735798" lon="13.1059485"><ele>5.8</ele><time>2026-05-03T06:55:47.009Z</time></trkpt><trkpt lat="41.3735113" lon="13.1060414"><ele>6.0</ele><time>2026-05-03T06:55:49.009Z</time></trkpt><trkpt lat="41.3734411" lon="13.1061321"><ele>6.0</ele><time>2026-05-03T06:55:51.009Z</time></trkpt><trkpt lat="41.3733712" lon="13.1062191"><ele>6.0</ele><time>2026-05-03T06:55:53.01Z</time></trkpt><trkpt lat="41.3733004" lon="13.1063109"><ele>6.0</ele><time>2026-05-03T06:55:55.009Z</time></trkpt><trkpt lat="41.3732275" lon="13.1064004"><ele>6.0</ele><time>2026-05-03T06:55:57.009Z</time></trkpt><trkpt lat="41.3731583" lon="13.1064917"><ele>6.0</ele><time>2026-05-03T06:55:59.01Z</time></trkpt><trkpt lat="41.373085" lon="13.1065791"><ele>5.6</ele><time>2026-05-03T06:56:01.01Z</time></trkpt><trkpt lat="41.3730166" lon="13.1066708"><ele>5.199999999999999</ele><time>2026-05-03T06:56:03.009Z</time></trkpt><trkpt lat="41.3729471" lon="13.1067613"><ele>4.800000000000001</ele><time>2026-05-03T06:56:05.01Z</time></trkpt><trkpt lat="41.3728782" lon="13.1068482"><ele>4.4</ele><time>2026-05-03T06:56:07.009Z</time></trkpt><trkpt lat="41.3728076" lon="13.106934"><ele>4.0</ele><time>2026-05-03T06:56:09.01Z</time></trkpt><trkpt lat="41.3727422" lon="13.1070242"><ele>4.0</ele><time>2026-05-03T06:56:11.009Z</time></trkpt><trkpt lat="41.3726747" lon="13.1071101"><ele>4.0</ele><time>2026-05-03T06:56:13.01Z</time></trkpt><trkpt lat="41.3726062" lon="13.1071994"><ele>4.0</ele><time>2026-05-03T06:56:15.009Z</time></trkpt><trkpt lat="41.3725352" lon="13.107293"><ele>4.0</ele><time>2026-05-03T06:56:17.009Z</time></trkpt><trkpt lat="41.372463" lon="13.1073844"><ele>4.0</ele><time>2026-05-03T06:56:19.01Z</time></trkpt><trkpt lat="41.3723885" lon="13.1074748"><ele>3.8000000000000003</ele><time>2026-05-03T06:56:21.009Z</time></trkpt><trkpt lat="41.3723161" lon="13.1075618"><ele>3.6000000000000005</ele><time>2026-05-03T06:56:23.01Z</time></trkpt><trkpt lat="41.3722485" lon="13.107653"><ele>3.4</ele><time>2026-05-03T06:56:25.01Z</time></trkpt><trkpt lat="41.3721783" lon="13.1077494"><ele>3.2</ele><time>2026-05-03T06:56:27.009Z</time></trkpt><trkpt lat="41.3721078" lon="13.1078429"><ele>3.0</ele><time>2026-05-03T06:56:29.009Z</time></trkpt><trkpt lat="41.3720338" lon="13.1079296"><ele>3.0</ele><time>2026-05-03T06:56:31.01Z</time></trkpt><trkpt lat="41.3719647" lon="13.1080202"><ele>3.0</ele><time>2026-05-03T06:56:33.01Z</time></trkpt><trkpt lat="41.3718943" lon="13.1081107"><ele>3.0</ele><time>2026-05-03T06:56:35.009Z</time></trkpt><trkpt lat="41.3718246" lon="13.1082018"><ele>3.0</ele><time>2026-05-03T06:56:37.01Z</time></trkpt><trkpt lat="41.3717556" lon="13.1082915"><ele>3.0</ele><time>2026-05-03T06:56:39.01Z</time></trkpt><trkpt lat="41.371691" lon="13.1083818"><ele>3.4</ele><time>2026-05-03T06:56:41.01Z</time></trkpt><trkpt lat="41.3716239" lon="13.1084735"><ele>3.8</ele><time>2026-05-03T06:56:43.01Z</time></trkpt><trkpt lat="41.3715514" lon="13.1085619"><ele>4.2</ele><time>2026-05-03T06:56:45.009Z</time></trkpt><trkpt lat="41.3714835" lon="13.108649"><ele>4.6</ele><time>2026-05-03T06:56:47.01Z</time></trkpt><trkpt lat="41.3714177" lon="13.1087357"><ele>5.0</ele><time>2026-05-03T06:56:49.009Z</time></trkpt><trkpt lat="41.3713542" lon="13.1088154"><ele>4.8</ele><time>2026-05-03T06:56:51.01Z</time></trkpt><trkpt lat="41.3712924" lon="13.1088983"><ele>4.6</ele><time>2026-05-03T06:56:53.009Z</time></trkpt><trkpt lat="41.3712221" lon="13.1089848"><ele>4.4</ele><time>2026-05-03T06:56:55.009Z</time></trkpt><trkpt lat="41.3711539" lon="13.1090759"><ele>4.2</ele><time>2026-05-03T06:56:57.009Z</time></trkpt><trkpt lat="41.371086" lon="13.1091665"><ele>4.0</ele><time>2026-05-03T06:56:59.009Z</time></trkpt><trkpt lat="41.3710143" lon="13.1092536"><ele>4.0</ele><time>2026-05-03T06:57:01.009Z</time></trkpt><trkpt lat="41.3709449" lon="13.1093438"><ele>4.0</ele><time>2026-05-03T06:57:03.009Z</time></trkpt><trkpt lat="41.3708705" lon="13.1094353"><ele>4.0</ele><time>2026-05-03T06:57:05.009Z</time></trkpt><trkpt lat="41.3707982" lon="13.1095302"><ele>4.0</ele><time>2026-05-03T06:57:07.009Z</time></trkpt><trkpt lat="41.3707267" lon="13.1096201"><ele>4.0</ele><time>2026-05-03T06:57:09.009Z</time></trkpt><trkpt lat="41.3706576" lon="13.1097132"><ele>3.9999999999999996</ele><time>2026-05-03T06:57:11.01Z</time></trkpt><trkpt lat="41.3705873" lon="13.109798"><ele>4.0</ele><time>2026-05-03T06:57:13.009Z</time></trkpt><trkpt lat="41.3705251" lon="13.1098754"><ele>4.0</ele><time>2026-05-03T06:57:15.01Z</time></trkpt><trkpt lat="41.3704682" lon="13.1099492"><ele>4.0</ele><time>2026-05-03T06:57:17.01Z</time></trkpt><trkpt lat="41.3704115" lon="13.110027"><ele>3.9999999999999996</ele><time>2026-05-03T06:57:19.01Z</time></trkpt><trkpt lat="41.3703477" lon="13.1100989"><ele>4.0</ele><time>2026-05-03T06:57:21.01Z</time></trkpt><trkpt lat="41.3702877" lon="13.1101798"><ele>3.833333333333333</ele><time>2026-05-03T06:57:23.01Z</time></trkpt><trkpt lat="41.3702269" lon="13.1102606"><ele>3.6666666666666665</ele><time>2026-05-03T06:57:25.01Z</time></trkpt><trkpt lat="41.3701635" lon="13.1103389"><ele>3.5</ele><time>2026-05-03T06:57:27.009Z</time></trkpt><trkpt lat="41.3701007" lon="13.1104207"><ele>3.333333333333333</ele><time>2026-05-03T06:57:29.009Z</time></trkpt><trkpt lat="41.3700314" lon="13.1105041"><ele>3.1666666666666665</ele><time>2026-05-03T06:57:31.009Z</time></trkpt><trkpt lat="41.3699632" lon="13.1105845"><ele>3.0</ele><time>2026-05-03T06:57:33.01Z</time></trkpt><trkpt lat="41.3698984" lon="13.1106669"><ele>3.2</ele><time>2026-05-03T06:57:35.009Z</time></trkpt><trkpt lat="41.3698357" lon="13.1107567"><ele>3.4</ele><time>2026-05-03T06:57:37.01Z</time></trkpt><trkpt lat="41.3697701" lon="13.1108404"><ele>3.6000000000000005</ele><time>2026-05-03T06:57:39.009Z</time></trkpt><trkpt lat="41.3697027" lon="13.1109282"><ele>3.8000000000000003</ele><time>2026-05-03T06:57:41.009Z</time></trkpt><trkpt lat="41.369636" lon="13.1110099"><ele>4.0</ele><time>2026-05-03T06:57:43.009Z</time></trkpt><trkpt lat="41.3695728" lon="13.1110967"><ele>4.0</ele><time>2026-05-03T06:57:45.01Z</time></trkpt><trkpt lat="41.3695107" lon="13.1111806"><ele>4.0</ele><time>2026-05-03T06:57:47.01Z</time></trkpt><trkpt lat="41.3694454" lon="13.1112625"><ele>4.0</ele><time>2026-05-03T06:57:49.009Z</time></trkpt><trkpt lat="41.369376" lon="13.111351"><ele>4.0</ele><time>2026-05-03T06:57:51.01Z</time></trkpt><trkpt lat="41.3693081" lon="13.1114404"><ele>4.0</ele><time>2026-05-03T06:57:53.009Z</time></trkpt><trkpt lat="41.3692356" lon="13.1115308"><ele>4.4</ele><time>2026-05-03T06:57:55.009Z</time></trkpt><trkpt lat="41.3691647" lon="13.1116142"><ele>4.800000000000001</ele><time>2026-05-03T06:57:57.009Z</time></trkpt><trkpt lat="41.3690976" lon="13.1116997"><ele>5.199999999999999</ele><time>2026-05-03T06:57:59.009Z</time></trkpt><trkpt lat="41.3690326" lon="13.1117882"><ele>5.6</ele><time>2026-05-03T06:58:01.01Z</time></trkpt><trkpt lat="41.3689665" lon="13.1118786"><ele>6.0</ele><time>2026-05-03T06:58:03.01Z</time></trkpt><trkpt lat="41.3688953" lon="13.1119602"><ele>5.8</ele><time>2026-05-03T06:58:05.009Z</time></trkpt><trkpt lat="41.3688231" lon="13.1120514"><ele>5.6</ele><time>2026-05-03T06:58:07.009Z</time></trkpt><trkpt lat="41.3687543" lon="13.1121461"><ele>5.4</ele><time>2026-05-03T06:58:09.009Z</time></trkpt><trkpt lat="41.3686847" lon="13.1122424"><ele>5.2</ele><time>2026-05-03T06:58:11.01Z</time></trkpt><trkpt lat="41.3686075" lon="13.1123298"><ele>5.0</ele><time>2026-05-03T06:58:13.01Z</time></trkpt><trkpt lat="41.368534" lon="13.1124249"><ele>5.0</ele><time>2026-05-03T06:58:15.01Z</time></trkpt><trkpt lat="41.3684609" lon="13.1125123"><ele>5.0</ele><time>2026-05-03T06:58:17.009Z</time></trkpt><trkpt lat="41.3683931" lon="13.1126023"><ele>5.0</ele><time>2026-05-03T06:58:19.01Z</time></trkpt><trkpt lat="41.3683227" lon="13.1126913"><ele>5.0</ele><time>2026-05-03T06:58:21.01Z</time></trkpt><trkpt lat="41.3682548" lon="13.1127842"><ele>5.0</ele><time>2026-05-03T06:58:23.009Z</time></trkpt><trkpt lat="41.3681836" lon="13.1128787"><ele>5.0</ele><time>2026-05-03T06:58:25.009Z</time></trkpt><trkpt lat="41.3681139" lon="13.1129696"><ele>5.0</ele><time>2026-05-03T06:58:27.009Z</time></trkpt><trkpt lat="41.3680423" lon="13.113062"><ele>5.0</ele><time>2026-05-03T06:58:29.009Z</time></trkpt><trkpt lat="41.3679693" lon="13.1131553"><ele>5.0</ele><time>2026-05-03T06:58:31.01Z</time></trkpt><trkpt lat="41.3678958" lon="13.1132504"><ele>5.0</ele><time>2026-05-03T06:58:33.009Z</time></trkpt><trkpt lat="41.3678198" lon="13.1133422"><ele>4.8</ele><time>2026-05-03T06:58:35.01Z</time></trkpt><trkpt lat="41.3677492" lon="13.1134385"><ele>4.6</ele><time>2026-05-03T06:58:37.009Z</time></trkpt><trkpt lat="41.3676783" lon="13.1135278"><ele>4.4</ele><time>2026-05-03T06:58:39.01Z</time></trkpt><trkpt lat="41.367604" lon="13.1136223"><ele>4.2</ele><time>2026-05-03T06:58:41.009Z</time></trkpt><trkpt lat="41.3675362" lon="13.1137132"><ele>4.0</ele><time>2026-05-03T06:58:43.009Z</time></trkpt><trkpt lat="41.3674617" lon="13.1138074"><ele>4.0</ele><time>2026-05-03T06:58:45.01Z</time></trkpt><trkpt lat="41.3673831" lon="13.1138976"><ele>4.0</ele><time>2026-05-03T06:58:47.01Z</time></trkpt><trkpt lat="41.3673092" lon="13.1139909"><ele>4.0</ele><time>2026-05-03T06:58:49.01Z</time></trkpt><trkpt lat="41.3672387" lon="13.1140882"><ele>4.0</ele><time>2026-05-03T06:58:51.01Z</time></trkpt><trkpt lat="41.3671651" lon="13.1141816"><ele>4.0</ele><time>2026-05-03T06:58:53.009Z</time></trkpt><trkpt lat="41.3670909" lon="13.1142774"><ele>4.0</ele><time>2026-05-03T06:58:55.01Z</time></trkpt><trkpt lat="41.3670156" lon="13.114367"><ele>4.0</ele><time>2026-05-03T06:58:57.01Z</time></trkpt><trkpt lat="41.3669427" lon="13.1144605"><ele>4.0</ele><time>2026-05-03T06:58:59.01Z</time></trkpt><trkpt lat="41.3668734" lon="13.1145552"><ele>4.0</ele><time>2026-05-03T06:59:01.01Z</time></trkpt><trkpt lat="41.3667994" lon="13.1146486"><ele>4.0</ele><time>2026-05-03T06:59:03.01Z</time></trkpt><trkpt lat="41.3667265" lon="13.1147416"><ele>4.0</ele><time>2026-05-03T06:59:05.009Z</time></trkpt><trkpt lat="41.3666517" lon="13.1148366"><ele>4.0</ele><time>2026-05-03T06:59:07.01Z</time></trkpt><trkpt lat="41.3665793" lon="13.1149319"><ele>4.0</ele><time>2026-05-03T06:59:09.009Z</time></trkpt><trkpt lat="41.3665055" lon="13.1150243"><ele>4.0</ele><time>2026-05-03T06:59:11.009Z</time></trkpt><trkpt lat="41.3664367" lon="13.1151193"><ele>4.0</ele><time>2026-05-03T06:59:13.009Z</time></trkpt><trkpt lat="41.366364" lon="13.1152116"><ele>3.4000000000000004</ele><time>2026-05-03T06:59:15.01Z</time></trkpt><trkpt lat="41.3662924" lon="13.1153061"><ele>2.8000000000000003</ele><time>2026-05-03T06:59:17.009Z</time></trkpt><trkpt lat="41.3662182" lon="13.1154003"><ele>2.2</ele><time>2026-05-03T06:59:19.009Z</time></trkpt><trkpt lat="41.3661431" lon="13.1154917"><ele>1.6</ele><time>2026-05-03T06:59:21.009Z</time></trkpt><trkpt lat="41.3660756" lon="13.1155805"><ele>1.0</ele><time>2026-05-03T06:59:23.01Z</time></trkpt><trkpt lat="41.3660107" lon="13.1156604"><ele>1.0</ele><time>2026-05-03T06:59:25.009Z</time></trkpt><trkpt lat="41.3659508" lon="13.1157353"><ele>0.9999999999999999</ele><time>2026-05-03T06:59:27.009Z</time></trkpt><trkpt lat="41.3658957" lon="13.1158102"><ele>1.0</ele><time>2026-05-03T06:59:29.01Z</time></trkpt><trkpt lat="41.3658376" lon="13.1158795"><ele>1.0</ele><time>2026-05-03T06:59:31.009Z</time></trkpt><trkpt lat="41.3657856" lon="13.1159434"><ele>0.9999999999999999</ele><time>2026-05-03T06:59:33.009Z</time></trkpt><trkpt lat="41.3657386" lon="13.1160158"><ele>1.0</ele><time>2026-05-03T06:59:35.01Z</time></trkpt><trkpt lat="41.3656917" lon="13.11608"><ele>1.0</ele><time>2026-05-03T06:59:37.01Z</time></trkpt><trkpt lat="41.3656423" lon="13.116139"><ele>0.9999999999999999</ele><time>2026-05-03T06:59:39.01Z</time></trkpt><trkpt lat="41.3655847" lon="13.1162024"><ele>1.0</ele><time>2026-05-03T06:59:41.01Z</time></trkpt><trkpt lat="41.3655239" lon="13.1162734"><ele>1.0</ele><time>2026-05-03T06:59:43.01Z</time></trkpt><trkpt lat="41.3654659" lon="13.1163451"><ele>1.0</ele><time>2026-05-03T06:59:45.009Z</time></trkpt><trkpt lat="41.3654025" lon="13.1164188"><ele>0.9999999999999999</ele><time>2026-05-03T06:59:47.009Z</time></trkpt><trkpt lat="41.3653357" lon="13.1164869"><ele>1.0</ele><time>2026-05-03T06:59:49.009Z</time></trkpt><trkpt lat="41.3652552" lon="13.1165249"><ele>1.0</ele><time>2026-05-03T06:59:51.009Z</time></trkpt><trkpt lat="41.3651667" lon="13.1165182"><ele>1.0</ele><time>2026-05-03T06:59:53.009Z</time></trkpt><trkpt lat="41.3650781" lon="13.1164788"><ele>1.0</ele><time>2026-05-03T06:59:55.009Z</time></trkpt><trkpt lat="41.3649968" lon="13.1164177"><ele>1.0</ele><time>2026-05-03T06:59:57.01Z</time></trkpt><trkpt lat="41.3649298" lon="13.1163248"><ele>1.0</ele><time>2026-05-03T06:59:59.009Z</time></trkpt><trkpt lat="41.3648614" lon="13.1162333"><ele>1.0</ele><time>2026-05-03T07:00:01.01Z</time></trkpt><trkpt lat="41.364789" lon="13.1161254"><ele>1.0</ele><time>2026-05-03T07:00:03.009Z</time></trkpt><trkpt lat="41.3647087" lon="13.1160134"><ele>1.0</ele><time>2026-05-03T07:00:05.01Z</time></trkpt><trkpt lat="41.3646266" lon="13.1158987"><ele>1.0</ele><time>2026-05-03T07:00:07.009Z</time></trkpt><trkpt lat="41.3645477" lon="13.115788"><ele>1.6</ele><time>2026-05-03T07:00:09.01Z</time></trkpt><trkpt lat="41.3644716" lon="13.1156754"><ele>2.2</ele><time>2026-05-03T07:00:11.009Z</time></trkpt><trkpt lat="41.3643976" lon="13.115565"><ele>2.8000000000000003</ele><time>2026-05-03T07:00:13.009Z</time></trkpt><trkpt lat="41.3643187" lon="13.1154599"><ele>3.4000000000000004</ele><time>2026-05-03T07:00:15.009Z</time></trkpt><trkpt lat="41.3642435" lon="13.1153496"><ele>4.0</ele><time>2026-05-03T07:00:17.009Z</time></trkpt><trkpt lat="41.3641699" lon="13.1152403"><ele>4.0</ele><time>2026-05-03T07:00:19.009Z</time></trkpt><trkpt lat="41.3640955" lon="13.1151307"><ele>4.0</ele><time>2026-05-03T07:00:21.01Z</time></trkpt><trkpt lat="41.3640203" lon="13.1150192"><ele>4.0</ele><time>2026-05-03T07:00:23.009Z</time></trkpt><trkpt lat="41.3639462" lon="13.1149076"><ele>4.0</ele><time>2026-05-03T07:00:25.01Z</time></trkpt><trkpt lat="41.3638714" lon="13.1147941"><ele>4.0</ele><time>2026-05-03T07:00:27.009Z</time></trkpt><trkpt lat="41.363791" lon="13.1146902"><ele>4.4</ele><time>2026-05-03T07:00:29.009Z</time></trkpt><trkpt lat="41.363718" lon="13.1145825"><ele>4.800000000000001</ele><time>2026-05-03T07:00:31.01Z</time></trkpt><trkpt lat="41.3636386" lon="13.114471"><ele>5.199999999999999</ele><time>2026-05-03T07:00:33.009Z</time></trkpt><trkpt lat="41.3635604" lon="13.1143679"><ele>5.6</ele><time>2026-05-03T07:00:35.009Z</time></trkpt><trkpt lat="41.3634812" lon="13.1142612"><ele>6.0</ele><time>2026-05-03T07:00:37.01Z</time></trkpt><trkpt lat="41.3634107" lon="13.1141498"><ele>5.6</ele><time>2026-05-03T07:00:39.009Z</time></trkpt><trkpt lat="41.3633334" lon="13.1140411"><ele>5.199999999999999</ele><time>2026-05-03T07:00:41.009Z</time></trkpt><trkpt lat="41.3632531" lon="13.1139329"><ele>4.800000000000001</ele><time>2026-05-03T07:00:43.009Z</time></trkpt><trkpt lat="41.3631794" lon="13.1138267"><ele>4.4</ele><time>2026-05-03T07:00:45.01Z</time></trkpt><trkpt lat="41.3631039" lon="13.1137219"><ele>4.0</ele><time>2026-05-03T07:00:47.009Z</time></trkpt><trkpt lat="41.3630291" lon="13.1136109"><ele>4.0</ele><time>2026-05-03T07:00:49.009Z</time></trkpt><trkpt lat="41.3629486" lon="13.1134992"><ele>4.0</ele><time>2026-05-03T07:00:51.009Z</time></trkpt><trkpt lat="41.3628684" lon="13.1133901"><ele>4.0</ele><time>2026-05-03T07:00:53.01Z</time></trkpt><trkpt lat="41.3627926" lon="13.113281"><ele>4.0</ele><time>2026-05-03T07:00:55.009Z</time></trkpt><trkpt lat="41.3627122" lon="13.113173"><ele>4.0</ele><time>2026-05-03T07:00:57.01Z</time></trkpt><trkpt lat="41.3626333" lon="13.1130622"><ele>4.0</ele><time>2026-05-03T07:00:59.01Z</time></trkpt><trkpt lat="41.3625537" lon="13.1129489"><ele>4.0</ele><time>2026-05-03T07:01:01.009Z</time></trkpt><trkpt lat="41.3624771" lon="13.1128346"><ele>4.0</ele><time>2026-05-03T07:01:03.009Z</time></trkpt><trkpt lat="41.3623989" lon="13.1127253"><ele>4.0</ele><time>2026-05-03T07:01:05.009Z</time></trkpt><trkpt lat="41.3623176" lon="13.1126161"><ele>4.0</ele><time>2026-05-03T07:01:07.009Z</time></trkpt><trkpt lat="41.3622422" lon="13.1125027"><ele>4.0</ele><time>2026-05-03T07:01:09.009Z</time></trkpt><trkpt lat="41.3621674" lon="13.1123925"><ele>4.0</ele><time>2026-05-03T07:01:11.01Z</time></trkpt><trkpt lat="41.362088" lon="13.1122884"><ele>4.0</ele><time>2026-05-03T07:01:13.009Z</time></trkpt><trkpt lat="41.3620144" lon="13.1121831"><ele>4.0</ele><time>2026-05-03T07:01:15.01Z</time></trkpt><trkpt lat="41.3619347" lon="13.1120766"><ele>4.0</ele><time>2026-05-03T07:01:17.009Z</time></trkpt><trkpt lat="41.3618515" lon="13.1119575"><ele>4.0</ele><time>2026-05-03T07:01:19.01Z</time></trkpt><trkpt lat="41.3617763" lon="13.1118486"><ele>4.0</ele><time>2026-05-03T07:01:21.01Z</time></trkpt><trkpt lat="41.3616931" lon="13.1117457"><ele>4.0</ele><time>2026-05-03T07:01:23.01Z</time></trkpt><trkpt lat="41.3616161" lon="13.111633"><ele>4.0</ele><time>2026-05-03T07:01:25.009Z</time></trkpt><trkpt lat="41.3615426" lon="13.1115249"><ele>4.0</ele><time>2026-05-03T07:01:27.009Z</time></trkpt><trkpt lat="41.361461" lon="13.1114163"><ele>4.0</ele><time>2026-05-03T07:01:29.009Z</time></trkpt><trkpt lat="41.3613842" lon="13.1113087"><ele>4.0</ele><time>2026-05-03T07:01:31.01Z</time></trkpt><trkpt lat="41.3613105" lon="13.1112023"><ele>4.0</ele><time>2026-05-03T07:01:33.01Z</time></trkpt><trkpt lat="41.3612369" lon="13.1110932"><ele>4.0</ele><time>2026-05-03T07:01:35.01Z</time></trkpt><trkpt lat="41.3611556" lon="13.1109898"><ele>4.0</ele><time>2026-05-03T07:01:37.009Z</time></trkpt><trkpt lat="41.3610808" lon="13.1108822"><ele>4.0</ele><time>2026-05-03T07:01:39.01Z</time></trkpt><trkpt lat="41.3610057" lon="13.110774"><ele>4.0</ele><time>2026-05-03T07:01:41.01Z</time></trkpt><trkpt lat="41.3609324" lon="13.110665"><ele>4.0</ele><time>2026-05-03T07:01:43.009Z</time></trkpt><trkpt lat="41.3608592" lon="13.1105538"><ele>4.0</ele><time>2026-05-03T07:01:45.009Z</time></trkpt><trkpt lat="41.3607822" lon="13.1104513"><ele>4.0</ele><time>2026-05-03T07:01:47.009Z</time></trkpt><trkpt lat="41.3607081" lon="13.1103487"><ele>4.2</ele><time>2026-05-03T07:01:49.009Z</time></trkpt><trkpt lat="41.3606367" lon="13.1102451"><ele>4.4</ele><time>2026-05-03T07:01:51.009Z</time></trkpt><trkpt lat="41.3605601" lon="13.1101444"><ele>4.6</ele><time>2026-05-03T07:01:53.009Z</time></trkpt><trkpt lat="41.3604876" lon="13.1100354"><ele>4.8</ele><time>2026-05-03T07:01:55.01Z</time></trkpt><trkpt lat="41.360414" lon="13.1099307"><ele>5.0</ele><time>2026-05-03T07:01:57.01Z</time></trkpt><trkpt lat="41.3603382" lon="13.1098311"><ele>5.0</ele><time>2026-05-03T07:01:59.009Z</time></trkpt><trkpt lat="41.3602672" lon="13.1097267"><ele>5.0</ele><time>2026-05-03T07:02:01.009Z</time></trkpt><trkpt lat="41.3601879" lon="13.1096331"><ele>5.0</ele><time>2026-05-03T07:02:03.01Z</time></trkpt><trkpt lat="41.3601214" lon="13.1095275"><ele>5.0</ele><time>2026-05-03T07:02:05.009Z</time></trkpt><trkpt lat="41.3600531" lon="13.109425"><ele>5.0</ele><time>2026-05-03T07:02:07.01Z</time></trkpt><trkpt lat="41.3599757" lon="13.1093236"><ele>5.0</ele><time>2026-05-03T07:02:09.009Z</time></trkpt><trkpt lat="41.3599023" lon="13.1092218"><ele>5.0</ele><time>2026-05-03T07:02:11.009Z</time></trkpt><trkpt lat="41.3598284" lon="13.1091196"><ele>5.0</ele><time>2026-05-03T07:02:13.01Z</time></trkpt><trkpt lat="41.3597559" lon="13.109019"><ele>5.0</ele><time>2026-05-03T07:02:15.01Z</time></trkpt><trkpt lat="41.3596842" lon="13.1089194"><ele>5.0</ele><time>2026-05-03T07:02:17.009Z</time></trkpt><trkpt lat="41.3596139" lon="13.1088123"><ele>5.0</ele><time>2026-05-03T07:02:19.009Z</time></trkpt><trkpt lat="41.3595429" lon="13.1087196"><ele>5.0</ele><time>2026-05-03T07:02:21.01Z</time></trkpt><trkpt lat="41.3594704" lon="13.1086172"><ele>5.0</ele><time>2026-05-03T07:02:23.01Z</time></trkpt><trkpt lat="41.3593981" lon="13.1085189"><ele>5.0</ele><time>2026-05-03T07:02:25.01Z</time></trkpt><trkpt lat="41.3593352" lon="13.1084212"><ele>5.0</ele><time>2026-05-03T07:02:27.009Z</time></trkpt><trkpt lat="41.359262" lon="13.10832"><ele>4.8</ele><time>2026-05-03T07:02:29.009Z</time></trkpt><trkpt lat="41.3591868" lon="13.1082195"><ele>4.6</ele><time>2026-05-03T07:02:31.01Z</time></trkpt><trkpt lat="41.3591164" lon="13.1081173"><ele>4.4</ele><time>2026-05-03T07:02:33.01Z</time></trkpt><trkpt lat="41.3590436" lon="13.1080199"><ele>4.2</ele><time>2026-05-03T07:02:35.01Z</time></trkpt><trkpt lat="41.3589723" lon="13.1079182"><ele>4.0</ele><time>2026-05-03T07:02:37.009Z</time></trkpt><trkpt lat="41.3589043" lon="13.1078164"><ele>4.2</ele><time>2026-05-03T07:02:39.01Z</time></trkpt><trkpt lat="41.3588303" lon="13.1077134"><ele>4.4</ele><time>2026-05-03T07:02:41.009Z</time></trkpt><trkpt lat="41.35876" lon="13.1076209"><ele>4.6</ele><time>2026-05-03T07:02:43.01Z</time></trkpt><trkpt lat="41.3586886" lon="13.1075267"><ele>4.8</ele><time>2026-05-03T07:02:45.01Z</time></trkpt><trkpt lat="41.3586176" lon="13.1074257"><ele>5.0</ele><time>2026-05-03T07:02:47.01Z</time></trkpt><trkpt lat="41.3585483" lon="13.1073217"><ele>5.0</ele><time>2026-05-03T07:02:49.009Z</time></trkpt><trkpt lat="41.3584794" lon="13.1072194"><ele>5.0</ele><time>2026-05-03T07:02:51.009Z</time></trkpt><trkpt lat="41.3584097" lon="13.1071179"><ele>5.0</ele><time>2026-05-03T07:02:53.009Z</time></trkpt><trkpt lat="41.3583354" lon="13.1070174"><ele>5.0</ele><time>2026-05-03T07:02:55.009Z</time></trkpt><trkpt lat="41.3582617" lon="13.106914"><ele>5.0</ele><time>2026-05-03T07:02:57.01Z</time></trkpt><trkpt lat="41.358189" lon="13.1068133"><ele>5.0</ele><time>2026-05-03T07:02:59.01Z</time></trkpt><trkpt lat="41.3581186" lon="13.1067149"><ele>5.0</ele><time>2026-05-03T07:03:01.009Z</time></trkpt><trkpt lat="41.3580462" lon="13.1066106"><ele>5.0</ele><time>2026-05-03T07:03:03.009Z</time></trkpt><trkpt lat="41.3579709" lon="13.1065088"><ele>5.0</ele><time>2026-05-03T07:03:05.01Z</time></trkpt><trkpt lat="41.3579001" lon="13.1064082"><ele>5.0</ele><time>2026-05-03T07:03:07.01Z</time></trkpt><trkpt lat="41.357827" lon="13.106311"><ele>5.8</ele><time>2026-05-03T07:03:09.009Z</time></trkpt><trkpt lat="41.3577553" lon="13.1062119"><ele>6.6</ele><time>2026-05-03T07:03:11.009Z</time></trkpt><trkpt lat="41.3576821" lon="13.1061186"><ele>7.4</ele><time>2026-05-03T07:03:13.009Z</time></trkpt><trkpt lat="41.3576129" lon="13.1060156"><ele>8.2</ele><time>2026-05-03T07:03:15.009Z</time></trkpt><trkpt lat="41.3575433" lon="13.1059138"><ele>9.0</ele><time>2026-05-03T07:03:17.009Z</time></trkpt><trkpt lat="41.3574773" lon="13.1058168"><ele>8.6</ele><time>2026-05-03T07:03:19.01Z</time></trkpt><trkpt lat="41.3574107" lon="13.1057223"><ele>8.2</ele><time>2026-05-03T07:03:21.01Z</time></trkpt><trkpt lat="41.3573394" lon="13.1056226"><ele>7.799999999999999</ele><time>2026-05-03T07:03:23.01Z</time></trkpt><trkpt lat="41.3572721" lon="13.1055212"><ele>7.3999999999999995</ele><time>2026-05-03T07:03:25.01Z</time></trkpt><trkpt lat="41.3572053" lon="13.1054306"><ele>7.0</ele><time>2026-05-03T07:03:27.009Z</time></trkpt><trkpt lat="41.3571339" lon="13.1053363"><ele>6.8</ele><time>2026-05-03T07:03:29.009Z</time></trkpt><trkpt lat="41.3570679" lon="13.1052437"><ele>6.6</ele><time>2026-05-03T07:03:31.009Z</time></trkpt><trkpt lat="41.3569965" lon="13.1051536"><ele>6.3999999999999995</ele><time>2026-05-03T07:03:33.009Z</time></trkpt><trkpt lat="41.356926" lon="13.105054"><ele>6.199999999999999</ele><time>2026-05-03T07:03:35.01Z</time></trkpt><trkpt lat="41.3568581" lon="13.1049589"><ele>6.0</ele><time>2026-05-03T07:03:37.01Z</time></trkpt><trkpt lat="41.3567956" lon="13.1048626"><ele>5.8</ele><time>2026-05-03T07:03:39.009Z</time></trkpt><trkpt lat="41.3567309" lon="13.1047697"><ele>5.6</ele><time>2026-05-03T07:03:41.01Z</time></trkpt><trkpt lat="41.3566661" lon="13.1046811"><ele>5.4</ele><time>2026-05-03T07:03:43.01Z</time></trkpt><trkpt lat="41.3565955" lon="13.1045824"><ele>5.2</ele><time>2026-05-03T07:03:45.009Z</time></trkpt><trkpt lat="41.3565308" lon="13.1044888"><ele>5.0</ele><time>2026-05-03T07:03:47.009Z</time></trkpt><trkpt lat="41.3564629" lon="13.1043966"><ele>5.0</ele><time>2026-05-03T07:03:49.009Z</time></trkpt><trkpt lat="41.3563964" lon="13.1043056"><ele>5.0</ele><time>2026-05-03T07:03:51.009Z</time></trkpt><trkpt lat="41.3563347" lon="13.1042067"><ele>5.0</ele><time>2026-05-03T07:03:53.009Z</time></trkpt><trkpt lat="41.3562682" lon="13.1041167"><ele>5.0</ele><time>2026-05-03T07:03:55.009Z</time></trkpt><trkpt lat="41.356201" lon="13.104023"><ele>5.0</ele><time>2026-05-03T07:03:57.009Z</time></trkpt><trkpt lat="41.356131" lon="13.1039356"><ele>5.2</ele><time>2026-05-03T07:03:59.01Z</time></trkpt><trkpt lat="41.3560676" lon="13.1038421"><ele>5.4</ele><time>2026-05-03T07:04:01.009Z</time></trkpt><trkpt lat="41.3560086" lon="13.1037496"><ele>5.6</ele><time>2026-05-03T07:04:03.009Z</time></trkpt><trkpt lat="41.3559399" lon="13.1036574"><ele>5.8</ele><time>2026-05-03T07:04:05.009Z</time></trkpt><trkpt lat="41.3558741" lon="13.1035612"><ele>6.0</ele><time>2026-05-03T07:04:07.009Z</time></trkpt><trkpt lat="41.35581" lon="13.1034707"><ele>6.0</ele><time>2026-05-03T07:04:09.009Z</time></trkpt><trkpt lat="41.3557403" lon="13.1033783"><ele>6.0</ele><time>2026-05-03T07:04:11.009Z</time></trkpt><trkpt lat="41.3556699" lon="13.1032862"><ele>6.0</ele><time>2026-05-03T07:04:13.009Z</time></trkpt><trkpt lat="41.3556008" lon="13.10319"><ele>6.0</ele><time>2026-05-03T07:04:15.009Z</time></trkpt><trkpt lat="41.3555335" lon="13.1030946"><ele>6.0</ele><time>2026-05-03T07:04:17.009Z</time></trkpt><trkpt lat="41.3554694" lon="13.1030033"><ele>6.199999999999999</ele><time>2026-05-03T07:04:19.009Z</time></trkpt><trkpt lat="41.355398" lon="13.1029049"><ele>6.3999999999999995</ele><time>2026-05-03T07:04:21.009Z</time></trkpt><trkpt lat="41.3553328" lon="13.1028094"><ele>6.6</ele><time>2026-05-03T07:04:23.009Z</time></trkpt><trkpt lat="41.3552678" lon="13.102713"><ele>6.8</ele><time>2026-05-03T07:04:25.009Z</time></trkpt><trkpt lat="41.3551976" lon="13.1026192"><ele>7.0</ele><time>2026-05-03T07:04:27.01Z</time></trkpt><trkpt lat="41.3551294" lon="13.1025283"><ele>7.0</ele><time>2026-05-03T07:04:29.009Z</time></trkpt><trkpt lat="41.355067" lon="13.1024303"><ele>6.999999999999999</ele><time>2026-05-03T07:04:31.01Z</time></trkpt><trkpt lat="41.3549999" lon="13.1023388"><ele>6.999999999999999</ele><time>2026-05-03T07:04:33.01Z</time></trkpt><trkpt lat="41.3549323" lon="13.1022486"><ele>7.0</ele><time>2026-05-03T07:04:35.01Z</time></trkpt><trkpt lat="41.3548621" lon="13.1021558"><ele>7.0</ele><time>2026-05-03T07:04:37.01Z</time></trkpt><trkpt lat="41.3547962" lon="13.1020588"><ele>6.8</ele><time>2026-05-03T07:04:39.01Z</time></trkpt><trkpt lat="41.3547317" lon="13.1019628"><ele>6.6</ele><time>2026-05-03T07:04:41.009Z</time></trkpt><trkpt lat="41.3546693" lon="13.1018726"><ele>6.3999999999999995</ele><time>2026-05-03T07:04:43.01Z</time></trkpt><trkpt lat="41.3546014" lon="13.1017773"><ele>6.199999999999999</ele><time>2026-05-03T07:04:45.009Z</time></trkpt><trkpt lat="41.3545366" lon="13.101687"><ele>6.0</ele><time>2026-05-03T07:04:47.009Z</time></trkpt><trkpt lat="41.3544725" lon="13.1015955"><ele>6.4</ele><time>2026-05-03T07:04:49.009Z</time></trkpt><trkpt lat="41.3544052" lon="13.1014949"><ele>6.8</ele><time>2026-05-03T07:04:51.009Z</time></trkpt><trkpt lat="41.3543352" lon="13.1013992"><ele>7.200000000000001</ele><time>2026-05-03T07:04:53.01Z</time></trkpt><trkpt lat="41.3542645" lon="13.1013051"><ele>7.6000000000000005</ele><time>2026-05-03T07:04:55.009Z</time></trkpt><trkpt lat="41.3541936" lon="13.1012045"><ele>8.0</ele><time>2026-05-03T07:04:57.01Z</time></trkpt><trkpt lat="41.3541265" lon="13.1011141"><ele>8.0</ele><time>2026-05-03T07:04:59.009Z</time></trkpt><trkpt lat="41.3540623" lon="13.1010171"><ele>8.0</ele><time>2026-05-03T07:05:01.01Z</time></trkpt><trkpt lat="41.3539996" lon="13.1009239"><ele>8.0</ele><time>2026-05-03T07:05:03.01Z</time></trkpt><trkpt lat="41.3539323" lon="13.1008315"><ele>8.0</ele><time>2026-05-03T07:05:05.009Z</time></trkpt><trkpt lat="41.3538672" lon="13.1007437"><ele>8.0</ele><time>2026-05-03T07:05:07.009Z</time></trkpt><trkpt lat="41.3538021" lon="13.1006588"><ele>7.4</ele><time>2026-05-03T07:05:09.009Z</time></trkpt><trkpt lat="41.3537438" lon="13.1005744"><ele>6.800000000000001</ele><time>2026-05-03T07:05:11.009Z</time></trkpt><trkpt lat="41.353679" lon="13.1004871"><ele>6.2</ele><time>2026-05-03T07:05:13.009Z</time></trkpt><trkpt lat="41.3536169" lon="13.1003977"><ele>5.6</ele><time>2026-05-03T07:05:15.01Z</time></trkpt><trkpt lat="41.3535576" lon="13.1003044"><ele>5.0</ele><time>2026-05-03T07:05:17.009Z</time></trkpt><trkpt lat="41.3534887" lon="13.1002118"><ele>5.0</ele><time>2026-05-03T07:05:19.009Z</time></trkpt><trkpt lat="41.3534217" lon="13.1001233"><ele>5.0</ele><time>2026-05-03T07:05:21.009Z</time></trkpt><trkpt lat="41.3533558" lon="13.1000338"><ele>5.0</ele><time>2026-05-03T07:05:23.009Z</time></trkpt><trkpt lat="41.3532895" lon="13.099936"><ele>5.0</ele><time>2026-05-03T07:05:25.009Z</time></trkpt><trkpt lat="41.3532253" lon="13.0998414"><ele>5.0</ele><time>2026-05-03T07:05:27.009Z</time></trkpt><trkpt lat="41.3531578" lon="13.0997487"><ele>5.4</ele><time>2026-05-03T07:05:29.009Z</time></trkpt><trkpt lat="41.3530929" lon="13.0996515"><ele>5.8</ele><time>2026-05-03T07:05:31.01Z</time></trkpt><trkpt lat="41.3530237" lon="13.0995596"><ele>6.199999999999999</ele><time>2026-05-03T07:05:33.009Z</time></trkpt><trkpt lat="41.3529509" lon="13.0994646"><ele>6.6</ele><time>2026-05-03T07:05:35.009Z</time></trkpt><trkpt lat="41.3528809" lon="13.0993714"><ele>7.0</ele><time>2026-05-03T07:05:37.009Z</time></trkpt><trkpt lat="41.3528127" lon="13.0992835"><ele>6.8</ele><time>2026-05-03T07:05:39.009Z</time></trkpt><trkpt lat="41.3527416" lon="13.0991896"><ele>6.6</ele><time>2026-05-03T07:05:41.01Z</time></trkpt><trkpt lat="41.3526715" lon="13.0991041"><ele>6.3999999999999995</ele><time>2026-05-03T07:05:43.009Z</time></trkpt><trkpt lat="41.3525993" lon="13.0990189"><ele>6.199999999999999</ele><time>2026-05-03T07:05:45.009Z</time></trkpt><trkpt lat="41.3525244" lon="13.0989271"><ele>6.0</ele><time>2026-05-03T07:05:47.01Z</time></trkpt><trkpt lat="41.352456" lon="13.0988317"><ele>6.0</ele><time>2026-05-03T07:05:49.01Z</time></trkpt><trkpt lat="41.3523829" lon="13.0987367"><ele>6.0</ele><time>2026-05-03T07:05:51.01Z</time></trkpt><trkpt lat="41.3523125" lon="13.098647"><ele>6.0</ele><time>2026-05-03T07:05:53.01Z</time></trkpt><trkpt lat="41.3522417" lon="13.0985634"><ele>6.0</ele><time>2026-05-03T07:05:55.01Z</time></trkpt><trkpt lat="41.3521713" lon="13.0984759"><ele>6.0</ele><time>2026-05-03T07:05:57.009Z</time></trkpt><trkpt lat="41.3520993" lon="13.0983847"><ele>6.199999999999999</ele><time>2026-05-03T07:05:59.01Z</time></trkpt><trkpt lat="41.3520295" lon="13.098292"><ele>6.3999999999999995</ele><time>2026-05-03T07:06:01.009Z</time></trkpt><trkpt lat="41.3519604" lon="13.0982024"><ele>6.6</ele><time>2026-05-03T07:06:03.009Z</time></trkpt><trkpt lat="41.3518916" lon="13.0981131"><ele>6.8</ele><time>2026-05-03T07:06:05.009Z</time></trkpt><trkpt lat="41.3518243" lon="13.0980317"><ele>7.0</ele><time>2026-05-03T07:06:07.009Z</time></trkpt><trkpt lat="41.3517528" lon="13.0979495"><ele>7.0</ele><time>2026-05-03T07:06:09.008Z</time></trkpt><trkpt lat="41.3516815" lon="13.097861"><ele>6.999999999999999</ele><time>2026-05-03T07:06:11.008Z</time></trkpt><trkpt lat="41.3516124" lon="13.097774"><ele>6.999999999999999</ele><time>2026-05-03T07:06:13.008Z</time></trkpt><trkpt lat="41.3515444" lon="13.0976893"><ele>7.0</ele><time>2026-05-03T07:06:15.008Z</time></trkpt><trkpt lat="41.351478" lon="13.097604"><ele>7.0</ele><time>2026-05-03T07:06:17.009Z</time></trkpt><trkpt lat="41.3514164" lon="13.0975233"><ele>7.000000000000001</ele><time>2026-05-03T07:06:19.008Z</time></trkpt><trkpt lat="41.3513685" lon="13.0974374"><ele>7.0</ele><time>2026-05-03T07:06:21.009Z</time></trkpt><trkpt lat="41.351382" lon="13.0973367"><ele>7.0</ele><time>2026-05-03T07:06:23.009Z</time></trkpt><trkpt lat="41.3514321" lon="13.0972573"><ele>7.0</ele><time>2026-05-03T07:06:25.009Z</time></trkpt><trkpt lat="41.351489" lon="13.0971846"><ele>7.000000000000001</ele><time>2026-05-03T07:06:27.008Z</time></trkpt><trkpt lat="41.3515436" lon="13.0971053"><ele>7.0</ele><time>2026-05-03T07:06:29.009Z</time></trkpt><trkpt lat="41.3516067" lon="13.0970258"><ele>7.000000000000001</ele><time>2026-05-03T07:06:31.008Z</time></trkpt><trkpt lat="41.3516626" lon="13.0969509"><ele>7.0</ele><time>2026-05-03T07:06:33.008Z</time></trkpt><trkpt lat="41.351727" lon="13.0968668"><ele>7.0</ele><time>2026-05-03T07:06:35.008Z</time></trkpt><trkpt lat="41.3517847" lon="13.0967806"><ele>7.0</ele><time>2026-05-03T07:06:37.009Z</time></trkpt><trkpt lat="41.3518445" lon="13.0966965"><ele>7.000000000000001</ele><time>2026-05-03T07:06:39.009Z</time></trkpt><trkpt lat="41.3519032" lon="13.0966218"><ele>7.0</ele><time>2026-05-03T07:06:41.008Z</time></trkpt><trkpt lat="41.3519656" lon="13.0965412"><ele>7.000000000000001</ele><time>2026-05-03T07:06:43.008Z</time></trkpt><trkpt lat="41.3520315" lon="13.0964612"><ele>7.0</ele><time>2026-05-03T07:06:45.009Z</time></trkpt><trkpt lat="41.3520925" lon="13.0963716"><ele>7.0</ele><time>2026-05-03T07:06:47.008Z</time></trkpt><trkpt lat="41.3521491" lon="13.096281"><ele>7.0</ele><time>2026-05-03T07:06:49.009Z</time></trkpt><trkpt lat="41.3522149" lon="13.0962034"><ele>7.000000000000001</ele><time>2026-05-03T07:06:51.009Z</time></trkpt><trkpt lat="41.3522725" lon="13.0961175"><ele>7.0</ele><time>2026-05-03T07:06:53.009Z</time></trkpt><trkpt lat="41.3523337" lon="13.0960388"><ele>7.0</ele><time>2026-05-03T07:06:55.008Z</time></trkpt><trkpt lat="41.3523961" lon="13.0959475"><ele>6.999999999999999</ele><time>2026-05-03T07:06:57.009Z</time></trkpt><trkpt lat="41.3524626" lon="13.0958572"><ele>6.999999999999999</ele><time>2026-05-03T07:06:59.008Z</time></trkpt><trkpt lat="41.3525356" lon="13.0957544"><ele>7.0</ele><time>2026-05-03T07:07:01.008Z</time></trkpt><trkpt lat="41.3526093" lon="13.0956662"><ele>7.0</ele><time>2026-05-03T07:07:03.009Z</time></trkpt><trkpt lat="41.352675" lon="13.0955698"><ele>7.0</ele><time>2026-05-03T07:07:05.008Z</time></trkpt><trkpt lat="41.3527466" lon="13.0954737"><ele>6.999999999999999</ele><time>2026-05-03T07:07:07.009Z</time></trkpt><trkpt lat="41.3528135" lon="13.095381"><ele>6.999999999999999</ele><time>2026-05-03T07:07:09.008Z</time></trkpt><trkpt lat="41.3528787" lon="13.0952931"><ele>7.0</ele><time>2026-05-03T07:07:11.008Z</time></trkpt><trkpt lat="41.352941" lon="13.0951984"><ele>7.0</ele><time>2026-05-03T07:07:13.008Z</time></trkpt><trkpt lat="41.3530049" lon="13.0951107"><ele>7.3999999999999995</ele><time>2026-05-03T07:07:15.008Z</time></trkpt><trkpt lat="41.3530691" lon="13.095028"><ele>7.799999999999999</ele><time>2026-05-03T07:07:17.009Z</time></trkpt><trkpt lat="41.353133" lon="13.0949312"><ele>8.2</ele><time>2026-05-03T07:07:19.009Z</time></trkpt><trkpt lat="41.3531952" lon="13.0948481"><ele>8.6</ele><time>2026-05-03T07:07:21.009Z</time></trkpt><trkpt lat="41.3532563" lon="13.0947562"><ele>9.0</ele><time>2026-05-03T07:07:23.008Z</time></trkpt><trkpt lat="41.3533208" lon="13.0946752"><ele>9.2</ele><time>2026-05-03T07:07:25.009Z</time></trkpt><trkpt lat="41.3533915" lon="13.0945932"><ele>9.4</ele><time>2026-05-03T07:07:27.008Z</time></trkpt><trkpt lat="41.3534588" lon="13.0945023"><ele>9.6</ele><time>2026-05-03T07:07:29.008Z</time></trkpt><trkpt lat="41.3535315" lon="13.0944222"><ele>9.8</ele><time>2026-05-03T07:07:31.008Z</time></trkpt><trkpt lat="41.3535987" lon="13.0943386"><ele>10.0</ele><time>2026-05-03T07:07:33.009Z</time></trkpt><trkpt lat="41.3536678" lon="13.0942575"><ele>10.0</ele><time>2026-05-03T07:07:35.009Z</time></trkpt><trkpt lat="41.3537407" lon="13.094194"><ele>10.0</ele><time>2026-05-03T07:07:37.009Z</time></trkpt><trkpt lat="41.3538281" lon="13.0941439"><ele>10.0</ele><time>2026-05-03T07:07:39.009Z</time></trkpt><trkpt lat="41.3539126" lon="13.094085"><ele>10.0</ele><time>2026-05-03T07:07:41.008Z</time></trkpt><trkpt lat="41.3539916" lon="13.0940329"><ele>10.0</ele><time>2026-05-03T07:07:43.008Z</time></trkpt><trkpt lat="41.3540711" lon="13.0939807"><ele>9.8</ele><time>2026-05-03T07:07:45.009Z</time></trkpt><trkpt lat="41.3541562" lon="13.0939237"><ele>9.6</ele><time>2026-05-03T07:07:47.008Z</time></trkpt><trkpt lat="41.3542359" lon="13.0938708"><ele>9.4</ele><time>2026-05-03T07:07:49.008Z</time></trkpt><trkpt lat="41.3543139" lon="13.0938146"><ele>9.2</ele><time>2026-05-03T07:07:51.009Z</time></trkpt><trkpt lat="41.354389" lon="13.093754"><ele>9.0</ele><time>2026-05-03T07:07:53.009Z</time></trkpt><trkpt lat="41.354468" lon="13.0936933"><ele>9.0</ele><time>2026-05-03T07:07:55.008Z</time></trkpt><trkpt lat="41.3545514" lon="13.0936419"><ele>9.0</ele><time>2026-05-03T07:07:57.009Z</time></trkpt><trkpt lat="41.3546348" lon="13.0935852"><ele>9.0</ele><time>2026-05-03T07:07:59.008Z</time></trkpt><trkpt lat="41.3547177" lon="13.0935321"><ele>9.0</ele><time>2026-05-03T07:08:01.009Z</time></trkpt><trkpt lat="41.3547942" lon="13.0934745"><ele>9.0</ele><time>2026-05-03T07:08:03.009Z</time></trkpt><trkpt lat="41.3548746" lon="13.093418"><ele>9.166666666666666</ele><time>2026-05-03T07:08:05.009Z</time></trkpt><trkpt lat="41.3549546" lon="13.0933626"><ele>9.333333333333334</ele><time>2026-05-03T07:08:07.009Z</time></trkpt><trkpt lat="41.3550323" lon="13.0933106"><ele>9.5</ele><time>2026-05-03T07:08:09.009Z</time></trkpt><trkpt lat="41.3551131" lon="13.0932529"><ele>9.666666666666668</ele><time>2026-05-03T07:08:11.008Z</time></trkpt><trkpt lat="41.3551907" lon="13.0931997"><ele>9.833333333333334</ele><time>2026-05-03T07:08:13.008Z</time></trkpt><trkpt lat="41.3552686" lon="13.093144"><ele>10.0</ele><time>2026-05-03T07:08:15.008Z</time></trkpt><trkpt lat="41.3553508" lon="13.0930894"><ele>10.0</ele><time>2026-05-03T07:08:17.008Z</time></trkpt><trkpt lat="41.3554256" lon="13.0930275"><ele>10.0</ele><time>2026-05-03T07:08:19.009Z</time></trkpt><trkpt lat="41.3555041" lon="13.0929709"><ele>10.0</ele><time>2026-05-03T07:08:21.009Z</time></trkpt><trkpt lat="41.3555827" lon="13.0929178"><ele>10.0</ele><time>2026-05-03T07:08:23.008Z</time></trkpt><trkpt lat="41.355663" lon="13.0928652"><ele>10.0</ele><time>2026-05-03T07:08:25.008Z</time></trkpt><trkpt lat="41.3557413" lon="13.0928107"><ele>10.0</ele><time>2026-05-03T07:08:27.008Z</time></trkpt><trkpt lat="41.3558255" lon="13.0927497"><ele>10.333333333333334</ele><time>2026-05-03T07:08:29.008Z</time></trkpt><trkpt lat="41.3559022" lon="13.0926934"><ele>10.666666666666668</ele><time>2026-05-03T07:08:31.008Z</time></trkpt><trkpt lat="41.3559811" lon="13.0926375"><ele>11.0</ele><time>2026-05-03T07:08:33.009Z</time></trkpt><trkpt lat="41.3560572" lon="13.0925889"><ele>11.333333333333334</ele><time>2026-05-03T07:08:35.008Z</time></trkpt><trkpt lat="41.3561405" lon="13.0925334"><ele>11.666666666666666</ele><time>2026-05-03T07:08:37.009Z</time></trkpt><trkpt lat="41.3562188" lon="13.0924745"><ele>12.0</ele><time>2026-05-03T07:08:39.008Z</time></trkpt><trkpt lat="41.3562999" lon="13.0924207"><ele>11.666666666666666</ele><time>2026-05-03T07:08:41.009Z</time></trkpt><trkpt lat="41.3563765" lon="13.0923681"><ele>11.333333333333334</ele><time>2026-05-03T07:08:43.009Z</time></trkpt><trkpt lat="41.3564498" lon="13.092318"><ele>11.0</ele><time>2026-05-03T07:08:45.008Z</time></trkpt><trkpt lat="41.3565282" lon="13.0922628"><ele>10.666666666666668</ele><time>2026-05-03T07:08:47.008Z</time></trkpt><trkpt lat="41.3566022" lon="13.0922094"><ele>10.333333333333334</ele><time>2026-05-03T07:08:49.008Z</time></trkpt><trkpt lat="41.3566792" lon="13.0921544"><ele>10.0</ele><time>2026-05-03T07:08:51.008Z</time></trkpt><trkpt lat="41.3567598" lon="13.0920974"><ele>10.0</ele><time>2026-05-03T07:08:53.008Z</time></trkpt><trkpt lat="41.3568381" lon="13.0920415"><ele>10.0</ele><time>2026-05-03T07:08:55.008Z</time></trkpt><trkpt lat="41.3569222" lon="13.0919834"><ele>10.0</ele><time>2026-05-03T07:08:57.008Z</time></trkpt><trkpt lat="41.356995" lon="13.091927"><ele>10.0</ele><time>2026-05-03T07:08:59.009Z</time></trkpt><trkpt lat="41.3570695" lon="13.0918743"><ele>10.0</ele><time>2026-05-03T07:09:01.008Z</time></trkpt><trkpt lat="41.3571406" lon="13.0918242"><ele>10.0</ele><time>2026-05-03T07:09:03.009Z</time></trkpt><trkpt lat="41.3572176" lon="13.0917708"><ele>10.166666666666668</ele><time>2026-05-03T07:09:05.009Z</time></trkpt><trkpt lat="41.3572942" lon="13.0917289"><ele>10.333333333333334</ele><time>2026-05-03T07:09:07.008Z</time></trkpt><trkpt lat="41.3573704" lon="13.0916771"><ele>10.5</ele><time>2026-05-03T07:09:09.009Z</time></trkpt><trkpt lat="41.3574452" lon="13.0916253"><ele>10.666666666666666</ele><time>2026-05-03T07:09:11.008Z</time></trkpt><trkpt lat="41.3575171" lon="13.0915721"><ele>10.833333333333332</ele><time>2026-05-03T07:09:13.009Z</time></trkpt><trkpt lat="41.3575908" lon="13.091524"><ele>11.0</ele><time>2026-05-03T07:09:15.009Z</time></trkpt><trkpt lat="41.3576579" lon="13.0914686"><ele>11.0</ele><time>2026-05-03T07:09:17.008Z</time></trkpt><trkpt lat="41.3577269" lon="13.0914106"><ele>11.0</ele><time>2026-05-03T07:09:19.008Z</time></trkpt><trkpt lat="41.3578034" lon="13.0913616"><ele>11.0</ele><time>2026-05-03T07:09:21.008Z</time></trkpt><trkpt lat="41.3578832" lon="13.0913129"><ele>11.0</ele><time>2026-05-03T07:09:23.008Z</time></trkpt><trkpt lat="41.3579606" lon="13.0912572"><ele>11.0</ele><time>2026-05-03T07:09:25.009Z</time></trkpt><trkpt lat="41.3580362" lon="13.0912014"><ele>11.0</ele><time>2026-05-03T07:09:27.008Z</time></trkpt><trkpt lat="41.3581155" lon="13.0911504"><ele>11.0</ele><time>2026-05-03T07:09:29.009Z</time></trkpt><trkpt lat="41.358195" lon="13.0910927"><ele>11.0</ele><time>2026-05-03T07:09:31.008Z</time></trkpt><trkpt lat="41.3582739" lon="13.0910338"><ele>11.0</ele><time>2026-05-03T07:09:33.008Z</time></trkpt><trkpt lat="41.3583551" lon="13.0909791"><ele>11.0</ele><time>2026-05-03T07:09:35.008Z</time></trkpt><trkpt lat="41.3584406" lon="13.0909198"><ele>11.0</ele><time>2026-05-03T07:09:37.009Z</time></trkpt><trkpt lat="41.3585224" lon="13.0908678"><ele>11.0</ele><time>2026-05-03T07:09:39.009Z</time></trkpt><trkpt lat="41.3586044" lon="13.0908045"><ele>11.0</ele><time>2026-05-03T07:09:41.009Z</time></trkpt><trkpt lat="41.3586887" lon="13.0907446"><ele>11.0</ele><time>2026-05-03T07:09:43.008Z</time></trkpt><trkpt lat="41.3587685" lon="13.0906944"><ele>11.0</ele><time>2026-05-03T07:09:45.008Z</time></trkpt><trkpt lat="41.3588516" lon="13.0906397"><ele>11.0</ele><time>2026-05-03T07:09:47.008Z</time></trkpt><trkpt lat="41.3589311" lon="13.0905761"><ele>11.166666666666666</ele><time>2026-05-03T07:09:49.008Z</time></trkpt><trkpt lat="41.3590086" lon="13.0905127"><ele>11.333333333333332</ele><time>2026-05-03T07:09:51.008Z</time></trkpt><trkpt lat="41.3590824" lon="13.0904554"><ele>11.5</ele><time>2026-05-03T07:09:53.009Z</time></trkpt><trkpt lat="41.359157" lon="13.0904136"><ele>11.666666666666666</ele><time>2026-05-03T07:09:55.008Z</time></trkpt><trkpt lat="41.3592305" lon="13.0903597"><ele>11.833333333333334</ele><time>2026-05-03T07:09:57.008Z</time></trkpt><trkpt lat="41.3593043" lon="13.0903048"><ele>12.0</ele><time>2026-05-03T07:09:59.008Z</time></trkpt><trkpt lat="41.3593798" lon="13.0902503"><ele>12.0</ele><time>2026-05-03T07:10:01.009Z</time></trkpt><trkpt lat="41.3594511" lon="13.0901983"><ele>12.0</ele><time>2026-05-03T07:10:03.008Z</time></trkpt><trkpt lat="41.3595253" lon="13.0901451"><ele>12.0</ele><time>2026-05-03T07:10:05.008Z</time></trkpt><trkpt lat="41.3595955" lon="13.0900929"><ele>12.0</ele><time>2026-05-03T07:10:07.008Z</time></trkpt><trkpt lat="41.3596766" lon="13.090047"><ele>12.0</ele><time>2026-05-03T07:10:09.009Z</time></trkpt><trkpt lat="41.3597584" lon="13.089995"><ele>12.0</ele><time>2026-05-03T07:10:11.008Z</time></trkpt><trkpt lat="41.3598415" lon="13.0899433"><ele>11.4</ele><time>2026-05-03T07:10:13.008Z</time></trkpt><trkpt lat="41.3599232" lon="13.0898857"><ele>10.799999999999999</ele><time>2026-05-03T07:10:15.009Z</time></trkpt><trkpt lat="41.3600034" lon="13.0898332"><ele>10.2</ele><time>2026-05-03T07:10:17.009Z</time></trkpt><trkpt lat="41.360083" lon="13.0897697"><ele>9.6</ele><time>2026-05-03T07:10:19.008Z</time></trkpt><trkpt lat="41.3601648" lon="13.0897073"><ele>9.0</ele><time>2026-05-03T07:10:21.009Z</time></trkpt><trkpt lat="41.3602442" lon="13.0896435"><ele>9.0</ele><time>2026-05-03T07:10:23.008Z</time></trkpt><trkpt lat="41.3603259" lon="13.089581"><ele>9.0</ele><time>2026-05-03T07:10:25.009Z</time></trkpt><trkpt lat="41.3604045" lon="13.0895045"><ele>9.0</ele><time>2026-05-03T07:10:27.009Z</time></trkpt><trkpt lat="41.3604831" lon="13.0894154"><ele>9.0</ele><time>2026-05-03T07:10:29.008Z</time></trkpt><trkpt lat="41.3605564" lon="13.0893296"><ele>9.0</ele><time>2026-05-03T07:10:31.008Z</time></trkpt><trkpt lat="41.3606232" lon="13.0892452"><ele>9.2</ele><time>2026-05-03T07:10:33.008Z</time></trkpt><trkpt lat="41.3606903" lon="13.0891571"><ele>9.4</ele><time>2026-05-03T07:10:35.008Z</time></trkpt><trkpt lat="41.3607568" lon="13.089074"><ele>9.6</ele><time>2026-05-03T07:10:37.009Z</time></trkpt><trkpt lat="41.3608255" lon="13.0889909"><ele>9.8</ele><time>2026-05-03T07:10:39.009Z</time></trkpt><trkpt lat="41.3608902" lon="13.0889098"><ele>10.0</ele><time>2026-05-03T07:10:41.008Z</time></trkpt><trkpt lat="41.3609578" lon="13.0888268"><ele>10.0</ele><time>2026-05-03T07:10:43.008Z</time></trkpt><trkpt lat="41.3610267" lon="13.0887386"><ele>10.0</ele><time>2026-05-03T07:10:45.008Z</time></trkpt><trkpt lat="41.3610926" lon="13.0886481"><ele>10.0</ele><time>2026-05-03T07:10:47.008Z</time></trkpt><trkpt lat="41.3611628" lon="13.0885645"><ele>10.0</ele><time>2026-05-03T07:10:49.008Z</time></trkpt><trkpt lat="41.3612306" lon="13.0884778"><ele>10.0</ele><time>2026-05-03T07:10:51.009Z</time></trkpt><trkpt lat="41.3612966" lon="13.0883925"><ele>10.0</ele><time>2026-05-03T07:10:53.008Z</time></trkpt><trkpt lat="41.3613606" lon="13.0883078"><ele>10.0</ele><time>2026-05-03T07:10:55.008Z</time></trkpt><trkpt lat="41.3614254" lon="13.0882219"><ele>10.0</ele><time>2026-05-03T07:10:57.009Z</time></trkpt><trkpt lat="41.3614911" lon="13.088141"><ele>10.0</ele><time>2026-05-03T07:10:59.009Z</time></trkpt><trkpt lat="41.3615542" lon="13.0880551"><ele>10.0</ele><time>2026-05-03T07:11:01.008Z</time></trkpt><trkpt lat="41.3616188" lon="13.0879733"><ele>10.333333333333334</ele><time>2026-05-03T07:11:03.008Z</time></trkpt><trkpt lat="41.3616869" lon="13.0878922"><ele>10.666666666666668</ele><time>2026-05-03T07:11:05.009Z</time></trkpt><trkpt lat="41.361755" lon="13.0878131"><ele>11.0</ele><time>2026-05-03T07:11:07.008Z</time></trkpt><trkpt lat="41.3618169" lon="13.0877312"><ele>11.333333333333334</ele><time>2026-05-03T07:11:09.008Z</time></trkpt><trkpt lat="41.3618803" lon="13.0876511"><ele>11.666666666666666</ele><time>2026-05-03T07:11:11.008Z</time></trkpt><trkpt lat="41.3619423" lon="13.0875708"><ele>12.0</ele><time>2026-05-03T07:11:13.009Z</time></trkpt><trkpt lat="41.3620036" lon="13.0874842"><ele>12.0</ele><time>2026-05-03T07:11:15.009Z</time></trkpt><trkpt lat="41.3620682" lon="13.0874015"><ele>12.0</ele><time>2026-05-03T07:11:17.009Z</time></trkpt><trkpt lat="41.3621346" lon="13.0873233"><ele>12.0</ele><time>2026-05-03T07:11:19.009Z</time></trkpt><trkpt lat="41.3621966" lon="13.0872474"><ele>12.0</ele><time>2026-05-03T07:11:21.008Z</time></trkpt><trkpt lat="41.3622559" lon="13.0871683"><ele>12.0</ele><time>2026-05-03T07:11:23.009Z</time></trkpt><trkpt lat="41.3623157" lon="13.0870908"><ele>12.0</ele><time>2026-05-03T07:11:25.008Z</time></trkpt><trkpt lat="41.3623803" lon="13.0870139"><ele>12.0</ele><time>2026-05-03T07:11:27.009Z</time></trkpt><trkpt lat="41.3624435" lon="13.08693"><ele>12.0</ele><time>2026-05-03T07:11:29.009Z</time></trkpt><trkpt lat="41.3625007" lon="13.0868567"><ele>12.0</ele><time>2026-05-03T07:11:31.008Z</time></trkpt><trkpt lat="41.3625638" lon="13.0867786"><ele>12.0</ele><time>2026-05-03T07:11:33.008Z</time></trkpt><trkpt lat="41.362626" lon="13.0866957"><ele>12.0</ele><time>2026-05-03T07:11:35.009Z</time></trkpt><trkpt lat="41.3626838" lon="13.0866193"><ele>12.0</ele><time>2026-05-03T07:11:37.008Z</time></trkpt><trkpt lat="41.362746" lon="13.0865368"><ele>11.833333333333334</ele><time>2026-05-03T07:11:39.008Z</time></trkpt><trkpt lat="41.3628088" lon="13.0864623"><ele>11.666666666666666</ele><time>2026-05-03T07:11:41.008Z</time></trkpt><trkpt lat="41.3628736" lon="13.0863797"><ele>11.5</ele><time>2026-05-03T07:11:43.008Z</time></trkpt><trkpt lat="41.3629316" lon="13.0862998"><ele>11.333333333333332</ele><time>2026-05-03T07:11:45.009Z</time></trkpt><trkpt lat="41.3629991" lon="13.0862194"><ele>11.166666666666666</ele><time>2026-05-03T07:11:47.009Z</time></trkpt><trkpt lat="41.3630633" lon="13.0861381"><ele>11.0</ele><time>2026-05-03T07:11:49.008Z</time></trkpt><trkpt lat="41.3631257" lon="13.0860546"><ele>11.333333333333332</ele><time>2026-05-03T07:11:51.008Z</time></trkpt><trkpt lat="41.3631892" lon="13.0859742"><ele>11.666666666666666</ele><time>2026-05-03T07:11:53.009Z</time></trkpt><trkpt lat="41.3632526" lon="13.0858936"><ele>12.0</ele><time>2026-05-03T07:11:55.008Z</time></trkpt><trkpt lat="41.3633168" lon="13.0858168"><ele>12.333333333333332</ele><time>2026-05-03T07:11:57.008Z</time></trkpt><trkpt lat="41.3633754" lon="13.0857314"><ele>12.666666666666666</ele><time>2026-05-03T07:11:59.009Z</time></trkpt><trkpt lat="41.3634384" lon="13.0856536"><ele>13.0</ele><time>2026-05-03T07:12:01.009Z</time></trkpt><trkpt lat="41.3635043" lon="13.085575"><ele>12.999999999999998</ele><time>2026-05-03T07:12:03.008Z</time></trkpt><trkpt lat="41.3635681" lon="13.0854959"><ele>13.0</ele><time>2026-05-03T07:12:05.008Z</time></trkpt><trkpt lat="41.3636287" lon="13.0854123"><ele>13.0</ele><time>2026-05-03T07:12:07.008Z</time></trkpt><trkpt lat="41.3636908" lon="13.0853336"><ele>13.0</ele><time>2026-05-03T07:12:09.008Z</time></trkpt><trkpt lat="41.3637553" lon="13.0852627"><ele>12.999999999999998</ele><time>2026-05-03T07:12:11.009Z</time></trkpt><trkpt lat="41.3638161" lon="13.0851844"><ele>13.0</ele><time>2026-05-03T07:12:13.008Z</time></trkpt><trkpt lat="41.3638801" lon="13.0851037"><ele>12.166666666666666</ele><time>2026-05-03T07:12:15.009Z</time></trkpt><trkpt lat="41.3639413" lon="13.0850211"><ele>11.333333333333332</ele><time>2026-05-03T07:12:17.008Z</time></trkpt><trkpt lat="41.3640058" lon="13.0849361"><ele>10.5</ele><time>2026-05-03T07:12:19.009Z</time></trkpt><trkpt lat="41.3640708" lon="13.0848517"><ele>9.666666666666666</ele><time>2026-05-03T07:12:21.008Z</time></trkpt><trkpt lat="41.3641371" lon="13.0847687"><ele>8.833333333333332</ele><time>2026-05-03T07:12:23.009Z</time></trkpt><trkpt lat="41.3642024" lon="13.0846871"><ele>8.0</ele><time>2026-05-03T07:12:25.008Z</time></trkpt><trkpt lat="41.3642668" lon="13.0846029"><ele>7.999999999999999</ele><time>2026-05-03T07:12:27.008Z</time></trkpt><trkpt lat="41.364327" lon="13.0845285"><ele>8.0</ele><time>2026-05-03T07:12:29.008Z</time></trkpt><trkpt lat="41.3643904" lon="13.0844422"><ele>8.0</ele><time>2026-05-03T07:12:31.009Z</time></trkpt><trkpt lat="41.3644509" lon="13.0843626"><ele>8.0</ele><time>2026-05-03T07:12:33.009Z</time></trkpt><trkpt lat="41.3645122" lon="13.0842847"><ele>7.999999999999999</ele><time>2026-05-03T07:12:35.008Z</time></trkpt><trkpt lat="41.3645782" lon="13.0842037"><ele>8.0</ele><time>2026-05-03T07:12:37.009Z</time></trkpt><trkpt lat="41.3646404" lon="13.0841227"><ele>8.5</ele><time>2026-05-03T07:12:39.008Z</time></trkpt><trkpt lat="41.364708" lon="13.0840426"><ele>9.0</ele><time>2026-05-03T07:12:41.008Z</time></trkpt><trkpt lat="41.3647681" lon="13.0839575"><ele>9.5</ele><time>2026-05-03T07:12:43.008Z</time></trkpt><trkpt lat="41.3648312" lon="13.0838782"><ele>10.0</ele><time>2026-05-03T07:12:45.009Z</time></trkpt><trkpt lat="41.3648935" lon="13.0837952"><ele>10.5</ele><time>2026-05-03T07:12:47.009Z</time></trkpt><trkpt lat="41.3649586" lon="13.0837171"><ele>11.0</ele><time>2026-05-03T07:12:49.008Z</time></trkpt><trkpt lat="41.3650197" lon="13.0836356"><ele>11.0</ele><time>2026-05-03T07:12:51.009Z</time></trkpt><trkpt lat="41.365081" lon="13.0835578"><ele>11.0</ele><time>2026-05-03T07:12:53.009Z</time></trkpt><trkpt lat="41.3651442" lon="13.0834751"><ele>11.0</ele><time>2026-05-03T07:12:55.008Z</time></trkpt><trkpt lat="41.3652042" lon="13.0833909"><ele>11.0</ele><time>2026-05-03T07:12:57.009Z</time></trkpt><trkpt lat="41.3652652" lon="13.0833139"><ele>11.0</ele><time>2026-05-03T07:12:59.009Z</time></trkpt><trkpt lat="41.3653168" lon="13.0832485"><ele>11.0</ele><time>2026-05-03T07:13:01.009Z</time></trkpt><trkpt lat="41.3653888" lon="13.0832324"><ele>11.0</ele><time>2026-05-03T07:13:08.009Z</time></trkpt><trkpt lat="41.3654091" lon="13.0831469"><ele>11.0</ele><time>2026-05-03T07:16:45.009Z</time></trkpt><trkpt lat="41.3654604" lon="13.0830715"><ele>11.0</ele><time>2026-05-03T07:16:48.01Z</time></trkpt><trkpt lat="41.3655255" lon="13.0829902"><ele>11.0</ele><time>2026-05-03T07:16:51.01Z</time></trkpt><trkpt lat="41.3655762" lon="13.0829187"><ele>11.0</ele><time>2026-05-03T07:16:53.01Z</time></trkpt><trkpt lat="41.3656291" lon="13.0828405"><ele>11.0</ele><time>2026-05-03T07:16:55.009Z</time></trkpt><trkpt lat="41.3656883" lon="13.0827693"><ele>11.0</ele><time>2026-05-03T07:16:57.01Z</time></trkpt><trkpt lat="41.3657407" lon="13.0826901"><ele>11.0</ele><time>2026-05-03T07:16:59.009Z</time></trkpt><trkpt lat="41.3657991" lon="13.0826218"><ele>11.0</ele><time>2026-05-03T07:17:01.01Z</time></trkpt><trkpt lat="41.3658577" lon="13.0825491"><ele>11.0</ele><time>2026-05-03T07:17:03.01Z</time></trkpt><trkpt lat="41.3659191" lon="13.0824793"><ele>11.0</ele><time>2026-05-03T07:17:05.009Z</time></trkpt><trkpt lat="41.3659843" lon="13.0824015"><ele>11.0</ele><time>2026-05-03T07:17:07.009Z</time></trkpt><trkpt lat="41.3660492" lon="13.0823195"><ele>11.0</ele><time>2026-05-03T07:17:09.009Z</time></trkpt><trkpt lat="41.3661092" lon="13.0822367"><ele>11.0</ele><time>2026-05-03T07:17:11.01Z</time></trkpt><trkpt lat="41.3661783" lon="13.0821604"><ele>11.0</ele><time>2026-05-03T07:17:13.009Z</time></trkpt><trkpt lat="41.3662448" lon="13.0820784"><ele>11.0</ele><time>2026-05-03T07:17:15.009Z</time></trkpt><trkpt lat="41.3663089" lon="13.0819973"><ele>11.0</ele><time>2026-05-03T07:17:17.009Z</time></trkpt><trkpt lat="41.3663756" lon="13.0819119"><ele>11.0</ele><time>2026-05-03T07:17:19.009Z</time></trkpt><trkpt lat="41.3664464" lon="13.0818272"><ele>11.200000000000001</ele><time>2026-05-03T07:17:21.009Z</time></trkpt><trkpt lat="41.3665092" lon="13.081738"><ele>11.4</ele><time>2026-05-03T07:17:23.01Z</time></trkpt><trkpt lat="41.3665755" lon="13.0816543"><ele>11.6</ele><time>2026-05-03T07:17:25.009Z</time></trkpt><trkpt lat="41.3666409" lon="13.0815701"><ele>11.8</ele><time>2026-05-03T07:17:27.009Z</time></trkpt><trkpt lat="41.3667008" lon="13.0814862"><ele>12.0</ele><time>2026-05-03T07:17:29.01Z</time></trkpt><trkpt lat="41.3667644" lon="13.0813981"><ele>12.0</ele><time>2026-05-03T07:17:31.01Z</time></trkpt><trkpt lat="41.3668262" lon="13.0813199"><ele>12.0</ele><time>2026-05-03T07:17:33.01Z</time></trkpt><trkpt lat="41.3668896" lon="13.0812226"><ele>12.0</ele><time>2026-05-03T07:17:35.009Z</time></trkpt><trkpt lat="41.3669556" lon="13.081147"><ele>12.0</ele><time>2026-05-03T07:17:37.01Z</time></trkpt><trkpt lat="41.367022" lon="13.081077"><ele>12.0</ele><time>2026-05-03T07:17:39.009Z</time></trkpt><trkpt lat="41.367088" lon="13.0809982"><ele>12.0</ele><time>2026-05-03T07:17:41.01Z</time></trkpt><trkpt lat="41.3671526" lon="13.0809176"><ele>12.0</ele><time>2026-05-03T07:17:43.01Z</time></trkpt><trkpt lat="41.3672176" lon="13.0808351"><ele>12.0</ele><time>2026-05-03T07:17:45.01Z</time></trkpt><trkpt lat="41.3672862" lon="13.0807549"><ele>12.0</ele><time>2026-05-03T07:17:47.009Z</time></trkpt><trkpt lat="41.3673529" lon="13.0806698"><ele>12.0</ele><time>2026-05-03T07:17:49.009Z</time></trkpt><trkpt lat="41.3674199" lon="13.0805832"><ele>12.0</ele><time>2026-05-03T07:17:51.009Z</time></trkpt><trkpt lat="41.3674857" lon="13.0804963"><ele>12.0</ele><time>2026-05-03T07:17:53.009Z</time></trkpt><trkpt lat="41.3675476" lon="13.0804071"><ele>12.0</ele><time>2026-05-03T07:17:55.009Z</time></trkpt><trkpt lat="41.3676115" lon="13.0803185"><ele>12.0</ele><time>2026-05-03T07:17:57.01Z</time></trkpt><trkpt lat="41.3676795" lon="13.0802406"><ele>12.0</ele><time>2026-05-03T07:17:59.01Z</time></trkpt><trkpt lat="41.3677418" lon="13.0801611"><ele>12.0</ele><time>2026-05-03T07:18:01.009Z</time></trkpt><trkpt lat="41.3677975" lon="13.0800788"><ele>12.0</ele><time>2026-05-03T07:18:03.009Z</time></trkpt><trkpt lat="41.3678658" lon="13.0800025"><ele>12.0</ele><time>2026-05-03T07:18:05.009Z</time></trkpt><trkpt lat="41.3679314" lon="13.0799261"><ele>12.0</ele><time>2026-05-03T07:18:07.009Z</time></trkpt><trkpt lat="41.3679987" lon="13.07984"><ele>12.0</ele><time>2026-05-03T07:18:09.083Z</time></trkpt><trkpt lat="41.3680593" lon="13.0797532"><ele>12.0</ele><time>2026-05-03T07:18:11.009Z</time></trkpt><trkpt lat="41.3681264" lon="13.0796658"><ele>12.0</ele><time>2026-05-03T07:18:13.009Z</time></trkpt><trkpt lat="41.3681972" lon="13.0795855"><ele>11.833333333333334</ele><time>2026-05-03T07:18:15.009Z</time></trkpt><trkpt lat="41.3682669" lon="13.0795083"><ele>11.666666666666666</ele><time>2026-05-03T07:18:17.009Z</time></trkpt><trkpt lat="41.3683326" lon="13.0794262"><ele>11.5</ele><time>2026-05-03T07:18:19.01Z</time></trkpt><trkpt lat="41.3683945" lon="13.0793412"><ele>11.333333333333332</ele><time>2026-05-03T07:18:21.009Z</time></trkpt><trkpt lat="41.3684523" lon="13.0792558"><ele>11.166666666666666</ele><time>2026-05-03T07:18:23.009Z</time></trkpt><trkpt lat="41.3685112" lon="13.0791669"><ele>11.0</ele><time>2026-05-03T07:18:25.01Z</time></trkpt><trkpt lat="41.3685805" lon="13.0790856"><ele>11.0</ele><time>2026-05-03T07:18:27.01Z</time></trkpt><trkpt lat="41.368649" lon="13.0790027"><ele>11.0</ele><time>2026-05-03T07:18:29.009Z</time></trkpt><trkpt lat="41.3687143" lon="13.0789197"><ele>11.0</ele><time>2026-05-03T07:18:31.01Z</time></trkpt><trkpt lat="41.3687775" lon="13.0788413"><ele>11.0</ele><time>2026-05-03T07:18:33.009Z</time></trkpt><trkpt lat="41.3688417" lon="13.0787605"><ele>11.0</ele><time>2026-05-03T07:18:35.01Z</time></trkpt><trkpt lat="41.3689047" lon="13.0786801"><ele>11.0</ele><time>2026-05-03T07:18:37.01Z</time></trkpt><trkpt lat="41.368974" lon="13.0785931"><ele>11.200000000000001</ele><time>2026-05-03T07:18:39.009Z</time></trkpt><trkpt lat="41.3690445" lon="13.0785084"><ele>11.4</ele><time>2026-05-03T07:18:41.009Z</time></trkpt><trkpt lat="41.369108" lon="13.0784256"><ele>11.6</ele><time>2026-05-03T07:18:43.009Z</time></trkpt><trkpt lat="41.3691761" lon="13.0783422"><ele>11.8</ele><time>2026-05-03T07:18:45.009Z</time></trkpt><trkpt lat="41.3692418" lon="13.0782572"><ele>12.0</ele><time>2026-05-03T07:18:47.009Z</time></trkpt><trkpt lat="41.3693125" lon="13.0781728"><ele>12.0</ele><time>2026-05-03T07:18:49.009Z</time></trkpt><trkpt lat="41.3693842" lon="13.078085"><ele>12.0</ele><time>2026-05-03T07:18:51.009Z</time></trkpt><trkpt lat="41.3694496" lon="13.0779991"><ele>12.0</ele><time>2026-05-03T07:18:53.009Z</time></trkpt><trkpt lat="41.3695123" lon="13.0779121"><ele>12.0</ele><time>2026-05-03T07:18:55.009Z</time></trkpt><trkpt lat="41.3695834" lon="13.0778238"><ele>12.0</ele><time>2026-05-03T07:18:57.009Z</time></trkpt><trkpt lat="41.3696505" lon="13.0777343"><ele>11.8</ele><time>2026-05-03T07:18:59.009Z</time></trkpt><trkpt lat="41.3697197" lon="13.0776412"><ele>11.6</ele><time>2026-05-03T07:19:01.009Z</time></trkpt><trkpt lat="41.3697858" lon="13.077549"><ele>11.4</ele><time>2026-05-03T07:19:03.01Z</time></trkpt><trkpt lat="41.3698549" lon="13.0774476"><ele>11.200000000000001</ele><time>2026-05-03T07:19:05.01Z</time></trkpt><trkpt lat="41.3699268" lon="13.0773547"><ele>11.0</ele><time>2026-05-03T07:19:07.01Z</time></trkpt><trkpt lat="41.3700027" lon="13.0772654"><ele>11.0</ele><time>2026-05-03T07:19:09.01Z</time></trkpt><trkpt lat="41.3700734" lon="13.0771731"><ele>11.0</ele><time>2026-05-03T07:19:11.01Z</time></trkpt><trkpt lat="41.3701449" lon="13.0770842"><ele>11.0</ele><time>2026-05-03T07:19:13.009Z</time></trkpt><trkpt lat="41.3702167" lon="13.0769961"><ele>11.0</ele><time>2026-05-03T07:19:15.009Z</time></trkpt><trkpt lat="41.3702848" lon="13.0769085"><ele>11.0</ele><time>2026-05-03T07:19:17.009Z</time></trkpt><trkpt lat="41.3703571" lon="13.0768234"><ele>11.0</ele><time>2026-05-03T07:19:19.01Z</time></trkpt><trkpt lat="41.3704301" lon="13.0767355"><ele>11.0</ele><time>2026-05-03T07:19:21.009Z</time></trkpt><trkpt lat="41.3705079" lon="13.0766425"><ele>11.0</ele><time>2026-05-03T07:19:23.01Z</time></trkpt><trkpt lat="41.3705786" lon="13.076547"><ele>11.0</ele><time>2026-05-03T07:19:25.01Z</time></trkpt><trkpt lat="41.3706532" lon="13.0764457"><ele>11.0</ele><time>2026-05-03T07:19:27.01Z</time></trkpt><trkpt lat="41.3707236" lon="13.0763579"><ele>11.600000000000001</ele><time>2026-05-03T07:19:29.01Z</time></trkpt><trkpt lat="41.3707892" lon="13.0762704"><ele>12.2</ele><time>2026-05-03T07:19:31.008Z</time></trkpt><trkpt lat="41.3708582" lon="13.0761857"><ele>12.799999999999999</ele><time>2026-05-03T07:19:33.009Z</time></trkpt><trkpt lat="41.3709279" lon="13.0760945"><ele>13.399999999999999</ele><time>2026-05-03T07:19:35.009Z</time></trkpt><trkpt lat="41.3709988" lon="13.0760018"><ele>14.0</ele><time>2026-05-03T07:19:37.008Z</time></trkpt><trkpt lat="41.3710706" lon="13.0759142"><ele>14.0</ele><time>2026-05-03T07:19:39.008Z</time></trkpt><trkpt lat="41.3711423" lon="13.0758209"><ele>13.999999999999998</ele><time>2026-05-03T07:19:41.007Z</time></trkpt><trkpt lat="41.3712119" lon="13.0757292"><ele>13.999999999999998</ele><time>2026-05-03T07:19:43.007Z</time></trkpt><trkpt lat="41.3712856" lon="13.0756398"><ele>14.0</ele><time>2026-05-03T07:19:45.008Z</time></trkpt><trkpt lat="41.3713589" lon="13.0755457"><ele>14.0</ele><time>2026-05-03T07:19:47.008Z</time></trkpt><trkpt lat="41.3714281" lon="13.0754547"><ele>13.6</ele><time>2026-05-03T07:19:49.007Z</time></trkpt><trkpt lat="41.3714981" lon="13.0753633"><ele>13.2</ele><time>2026-05-03T07:19:51.007Z</time></trkpt><trkpt lat="41.3715681" lon="13.0752685"><ele>12.799999999999999</ele><time>2026-05-03T07:19:53.008Z</time></trkpt><trkpt lat="41.3716339" lon="13.0751774"><ele>12.399999999999999</ele><time>2026-05-03T07:19:55.008Z</time></trkpt><trkpt lat="41.3716993" lon="13.0751192"><ele>12.0</ele><time>2026-05-03T07:19:57.008Z</time></trkpt><trkpt lat="41.3717728" lon="13.0750667"><ele>12.0</ele><time>2026-05-03T07:19:59.007Z</time></trkpt><trkpt lat="41.3718243" lon="13.0749966"><ele>12.0</ele><time>2026-05-03T07:20:01.008Z</time></trkpt><trkpt lat="41.3718748" lon="13.0749044"><ele>12.0</ele><time>2026-05-03T07:20:03.007Z</time></trkpt><trkpt lat="41.3719317" lon="13.0748112"><ele>12.0</ele><time>2026-05-03T07:20:05.008Z</time></trkpt><trkpt lat="41.3719944" lon="13.074721"><ele>12.0</ele><time>2026-05-03T07:20:07.008Z</time></trkpt><trkpt lat="41.3720589" lon="13.0746283"><ele>12.0</ele><time>2026-05-03T07:20:09.007Z</time></trkpt><trkpt lat="41.3721281" lon="13.0745381"><ele>12.0</ele><time>2026-05-03T07:20:11.008Z</time></trkpt><trkpt lat="41.3721932" lon="13.0744447"><ele>12.0</ele><time>2026-05-03T07:20:13.008Z</time></trkpt><trkpt lat="41.3722668" lon="13.0743578"><ele>12.0</ele><time>2026-05-03T07:20:15.007Z</time></trkpt><trkpt lat="41.3723362" lon="13.0742538"><ele>12.0</ele><time>2026-05-03T07:20:17.008Z</time></trkpt><trkpt lat="41.3724041" lon="13.0741612"><ele>12.0</ele><time>2026-05-03T07:20:19.007Z</time></trkpt><trkpt lat="41.3724766" lon="13.0740665"><ele>12.0</ele><time>2026-05-03T07:20:21.008Z</time></trkpt><trkpt lat="41.3725504" lon="13.0739733"><ele>12.0</ele><time>2026-05-03T07:20:23.007Z</time></trkpt><trkpt lat="41.3726253" lon="13.073878"><ele>12.0</ele><time>2026-05-03T07:20:25.008Z</time></trkpt><trkpt lat="41.3727008" lon="13.0737762"><ele>12.0</ele><time>2026-05-03T07:20:27.007Z</time></trkpt><trkpt lat="41.3727726" lon="13.0736704"><ele>12.0</ele><time>2026-05-03T07:20:29.007Z</time></trkpt><trkpt lat="41.3728466" lon="13.0735721"><ele>12.0</ele><time>2026-05-03T07:20:31.007Z</time></trkpt><trkpt lat="41.3729253" lon="13.0734695"><ele>12.0</ele><time>2026-05-03T07:20:33.007Z</time></trkpt><trkpt lat="41.3730035" lon="13.0733717"><ele>12.0</ele><time>2026-05-03T07:20:35.007Z</time></trkpt><trkpt lat="41.3730789" lon="13.0732706"><ele>12.0</ele><time>2026-05-03T07:20:37.008Z</time></trkpt><trkpt lat="41.3731471" lon="13.073171"><ele>12.0</ele><time>2026-05-03T07:20:39.008Z</time></trkpt><trkpt lat="41.373218" lon="13.0730782"><ele>12.0</ele><time>2026-05-03T07:20:41.007Z</time></trkpt><trkpt lat="41.3732888" lon="13.0729795"><ele>12.0</ele><time>2026-05-03T07:20:43.007Z</time></trkpt><trkpt lat="41.3733604" lon="13.0728886"><ele>12.0</ele><time>2026-05-03T07:20:45.008Z</time></trkpt><trkpt lat="41.3734377" lon="13.0727919"><ele>12.0</ele><time>2026-05-03T07:20:47.008Z</time></trkpt><trkpt lat="41.3735073" lon="13.0726994"><ele>12.0</ele><time>2026-05-03T07:20:49.007Z</time></trkpt><trkpt lat="41.3735801" lon="13.0726082"><ele>12.0</ele><time>2026-05-03T07:20:51.007Z</time></trkpt><trkpt lat="41.3736538" lon="13.0725132"><ele>12.0</ele><time>2026-05-03T07:20:53.007Z</time></trkpt><trkpt lat="41.3737211" lon="13.0724235"><ele>12.0</ele><time>2026-05-03T07:20:55.007Z</time></trkpt><trkpt lat="41.3737804" lon="13.0723286"><ele>12.0</ele><time>2026-05-03T07:20:57.007Z</time></trkpt><trkpt lat="41.3738446" lon="13.0722365"><ele>12.0</ele><time>2026-05-03T07:20:59.007Z</time></trkpt><trkpt lat="41.3739094" lon="13.0721518"><ele>12.2</ele><time>2026-05-03T07:21:01.007Z</time></trkpt><trkpt lat="41.3739804" lon="13.0720616"><ele>12.399999999999999</ele><time>2026-05-03T07:21:03.007Z</time></trkpt><trkpt lat="41.3740453" lon="13.0719732"><ele>12.600000000000001</ele><time>2026-05-03T07:21:05.007Z</time></trkpt><trkpt lat="41.3741083" lon="13.0718841"><ele>12.8</ele><time>2026-05-03T07:21:07.007Z</time></trkpt><trkpt lat="41.3741751" lon="13.0717971"><ele>13.0</ele><time>2026-05-03T07:21:09.008Z</time></trkpt><trkpt lat="41.3742405" lon="13.071706"><ele>13.0</ele><time>2026-05-03T07:21:11.007Z</time></trkpt><trkpt lat="41.3743119" lon="13.0716186"><ele>13.0</ele><time>2026-05-03T07:21:13.007Z</time></trkpt><trkpt lat="41.3743721" lon="13.0715257"><ele>13.0</ele><time>2026-05-03T07:21:15.008Z</time></trkpt><trkpt lat="41.3744399" lon="13.0714401"><ele>13.0</ele><time>2026-05-03T07:21:17.007Z</time></trkpt><trkpt lat="41.3745073" lon="13.0713573"><ele>13.0</ele><time>2026-05-03T07:21:19.008Z</time></trkpt><trkpt lat="41.3745703" lon="13.0712755"><ele>13.0</ele><time>2026-05-03T07:21:21.007Z</time></trkpt><trkpt lat="41.3746382" lon="13.0711968"><ele>13.0</ele><time>2026-05-03T07:21:23.008Z</time></trkpt><trkpt lat="41.3747025" lon="13.0711103"><ele>13.0</ele><time>2026-05-03T07:21:25.007Z</time></trkpt><trkpt lat="41.3747643" lon="13.0710158"><ele>13.0</ele><time>2026-05-03T07:21:27.007Z</time></trkpt><trkpt lat="41.3748271" lon="13.0709275"><ele>13.0</ele><time>2026-05-03T07:21:29.008Z</time></trkpt><trkpt lat="41.3748905" lon="13.0708416"><ele>12.999999999999998</ele><time>2026-05-03T07:21:31.007Z</time></trkpt><trkpt lat="41.3749541" lon="13.0707656"><ele>13.0</ele><time>2026-05-03T07:21:33.007Z</time></trkpt><trkpt lat="41.3750208" lon="13.0706821"><ele>13.0</ele><time>2026-05-03T07:21:35.007Z</time></trkpt><trkpt lat="41.3750828" lon="13.0705931"><ele>13.0</ele><time>2026-05-03T07:21:37.008Z</time></trkpt><trkpt lat="41.3751469" lon="13.0705143"><ele>12.999999999999998</ele><time>2026-05-03T07:21:39.007Z</time></trkpt><trkpt lat="41.3752126" lon="13.0704284"><ele>13.0</ele><time>2026-05-03T07:21:41.007Z</time></trkpt><trkpt lat="41.3752748" lon="13.0703412"><ele>13.0</ele><time>2026-05-03T07:21:43.008Z</time></trkpt><trkpt lat="41.3753381" lon="13.0702594"><ele>13.0</ele><time>2026-05-03T07:21:45.007Z</time></trkpt><trkpt lat="41.3753986" lon="13.0701678"><ele>13.0</ele><time>2026-05-03T07:21:47.007Z</time></trkpt><trkpt lat="41.3754652" lon="13.0700741"><ele>13.0</ele><time>2026-05-03T07:21:49.007Z</time></trkpt><trkpt lat="41.3755327" lon="13.069987"><ele>13.0</ele><time>2026-05-03T07:21:51.007Z</time></trkpt><trkpt lat="41.3756025" lon="13.0698965"><ele>13.0</ele><time>2026-05-03T07:21:53.007Z</time></trkpt><trkpt lat="41.3756698" lon="13.0698066"><ele>13.0</ele><time>2026-05-03T07:21:55.007Z</time></trkpt><trkpt lat="41.3757342" lon="13.0697211"><ele>13.0</ele><time>2026-05-03T07:21:57.007Z</time></trkpt><trkpt lat="41.3757974" lon="13.0696377"><ele>13.0</ele><time>2026-05-03T07:21:59.008Z</time></trkpt><trkpt lat="41.3758701" lon="13.0695362"><ele>13.0</ele><time>2026-05-03T07:22:01.007Z</time></trkpt><trkpt lat="41.3759414" lon="13.0694425"><ele>13.0</ele><time>2026-05-03T07:22:03.007Z</time></trkpt><trkpt lat="41.3760066" lon="13.0693533"><ele>13.0</ele><time>2026-05-03T07:22:05.008Z</time></trkpt><trkpt lat="41.3760765" lon="13.0692657"><ele>13.0</ele><time>2026-05-03T07:22:07.007Z</time></trkpt><trkpt lat="41.3761413" lon="13.0691746"><ele>13.0</ele><time>2026-05-03T07:22:09.007Z</time></trkpt><trkpt lat="41.3762103" lon="13.069082"><ele>13.0</ele><time>2026-05-03T07:22:11.008Z</time></trkpt><trkpt lat="41.3762821" lon="13.068997"><ele>12.8</ele><time>2026-05-03T07:22:13.008Z</time></trkpt><trkpt lat="41.3763467" lon="13.0689065"><ele>12.600000000000001</ele><time>2026-05-03T07:22:15.007Z</time></trkpt><trkpt lat="41.376413" lon="13.0688185"><ele>12.399999999999999</ele><time>2026-05-03T07:22:17.007Z</time></trkpt><trkpt lat="41.3764785" lon="13.0687283"><ele>12.2</ele><time>2026-05-03T07:22:19.007Z</time></trkpt><trkpt lat="41.3765456" lon="13.0686398"><ele>12.0</ele><time>2026-05-03T07:22:21.008Z</time></trkpt><trkpt lat="41.3766118" lon="13.0685544"><ele>12.0</ele><time>2026-05-03T07:22:23.007Z</time></trkpt><trkpt lat="41.3766792" lon="13.0684702"><ele>12.0</ele><time>2026-05-03T07:22:25.007Z</time></trkpt><trkpt lat="41.3767461" lon="13.0683799"><ele>12.0</ele><time>2026-05-03T07:22:27.008Z</time></trkpt><trkpt lat="41.3768177" lon="13.0682921"><ele>12.0</ele><time>2026-05-03T07:22:29.007Z</time></trkpt><trkpt lat="41.3768856" lon="13.0681986"><ele>12.0</ele><time>2026-05-03T07:22:31.007Z</time></trkpt><trkpt lat="41.3769515" lon="13.0681103"><ele>12.0</ele><time>2026-05-03T07:22:33.007Z</time></trkpt><trkpt lat="41.3770208" lon="13.0680262"><ele>12.0</ele><time>2026-05-03T07:22:35.008Z</time></trkpt><trkpt lat="41.3770863" lon="13.0679335"><ele>12.0</ele><time>2026-05-03T07:22:37.008Z</time></trkpt><trkpt lat="41.3771563" lon="13.0678373"><ele>12.0</ele><time>2026-05-03T07:22:39.007Z</time></trkpt><trkpt lat="41.377224" lon="13.0677448"><ele>12.0</ele><time>2026-05-03T07:22:41.008Z</time></trkpt><trkpt lat="41.3772933" lon="13.0676548"><ele>12.0</ele><time>2026-05-03T07:22:43.007Z</time></trkpt><trkpt lat="41.3773637" lon="13.0675681"><ele>12.0</ele><time>2026-05-03T07:22:45.007Z</time></trkpt><trkpt lat="41.3774246" lon="13.0674706"><ele>12.0</ele><time>2026-05-03T07:22:47.007Z</time></trkpt><trkpt lat="41.3774956" lon="13.0673847"><ele>12.0</ele><time>2026-05-03T07:22:49.008Z</time></trkpt><trkpt lat="41.377564" lon="13.067291"><ele>12.0</ele><time>2026-05-03T07:22:51.007Z</time></trkpt><trkpt lat="41.3776297" lon="13.0671945"><ele>12.0</ele><time>2026-05-03T07:22:53.008Z</time></trkpt><trkpt lat="41.3776947" lon="13.0670995"><ele>12.0</ele><time>2026-05-03T07:22:55.007Z</time></trkpt><trkpt lat="41.3777592" lon="13.0670058"><ele>12.0</ele><time>2026-05-03T07:22:57.007Z</time></trkpt><trkpt lat="41.3778303" lon="13.0669182"><ele>12.0</ele><time>2026-05-03T07:22:59.007Z</time></trkpt><trkpt lat="41.3778918" lon="13.0668227"><ele>12.0</ele><time>2026-05-03T07:23:01.007Z</time></trkpt><trkpt lat="41.3779499" lon="13.06673"><ele>12.0</ele><time>2026-05-03T07:23:03.008Z</time></trkpt><trkpt lat="41.3780052" lon="13.0666332"><ele>12.0</ele><time>2026-05-03T07:23:05.008Z</time></trkpt><trkpt lat="41.3780626" lon="13.0665336"><ele>12.0</ele><time>2026-05-03T07:23:07.007Z</time></trkpt><trkpt lat="41.3781195" lon="13.0664337"><ele>12.0</ele><time>2026-05-03T07:23:09.007Z</time></trkpt><trkpt lat="41.3781749" lon="13.0663375"><ele>12.0</ele><time>2026-05-03T07:23:11.008Z</time></trkpt><trkpt lat="41.3782353" lon="13.0662331"><ele>12.0</ele><time>2026-05-03T07:23:13.008Z</time></trkpt><trkpt lat="41.3782938" lon="13.0661334"><ele>12.0</ele><time>2026-05-03T07:23:15.007Z</time></trkpt><trkpt lat="41.3783521" lon="13.066038"><ele>12.0</ele><time>2026-05-03T07:23:17.008Z</time></trkpt><trkpt lat="41.3784088" lon="13.0659334"><ele>12.0</ele><time>2026-05-03T07:23:19.008Z</time></trkpt><trkpt lat="41.378459" lon="13.0658256"><ele>12.0</ele><time>2026-05-03T07:23:21.007Z</time></trkpt><trkpt lat="41.3785131" lon="13.0657193"><ele>12.0</ele><time>2026-05-03T07:23:23.008Z</time></trkpt><trkpt lat="41.3785702" lon="13.0656167"><ele>12.0</ele><time>2026-05-03T07:23:25.007Z</time></trkpt><trkpt lat="41.3786218" lon="13.0655158"><ele>12.0</ele><time>2026-05-03T07:23:27.007Z</time></trkpt><trkpt lat="41.3786787" lon="13.0654158"><ele>12.0</ele><time>2026-05-03T07:23:29.007Z</time></trkpt><trkpt lat="41.3787352" lon="13.0653098"><ele>12.0</ele><time>2026-05-03T07:23:31.008Z</time></trkpt><trkpt lat="41.3787895" lon="13.0652015"><ele>12.0</ele><time>2026-05-03T07:23:33.007Z</time></trkpt><trkpt lat="41.378848" lon="13.0650956"><ele>12.0</ele><time>2026-05-03T07:23:35.007Z</time></trkpt><trkpt lat="41.378905" lon="13.0649954"><ele>12.0</ele><time>2026-05-03T07:23:37.007Z</time></trkpt><trkpt lat="41.378965" lon="13.0648912"><ele>12.0</ele><time>2026-05-03T07:23:39.008Z</time></trkpt><trkpt lat="41.3790195" lon="13.064786"><ele>12.0</ele><time>2026-05-03T07:23:41.008Z</time></trkpt><trkpt lat="41.3790769" lon="13.0646797"><ele>12.2</ele><time>2026-05-03T07:23:43.008Z</time></trkpt><trkpt lat="41.3791361" lon="13.0645758"><ele>12.399999999999999</ele><time>2026-05-03T07:23:45.008Z</time></trkpt><trkpt lat="41.3791924" lon="13.0644753"><ele>12.600000000000001</ele><time>2026-05-03T07:23:47.007Z</time></trkpt><trkpt lat="41.3792503" lon="13.0643738"><ele>12.8</ele><time>2026-05-03T07:23:49.008Z</time></trkpt><trkpt lat="41.379306" lon="13.0642696"><ele>13.0</ele><time>2026-05-03T07:23:51.007Z</time></trkpt><trkpt lat="41.379362" lon="13.0641649"><ele>13.0</ele><time>2026-05-03T07:23:53.007Z</time></trkpt><trkpt lat="41.3794212" lon="13.0640567"><ele>13.0</ele><time>2026-05-03T07:23:55.007Z</time></trkpt><trkpt lat="41.3794741" lon="13.0639527"><ele>13.0</ele><time>2026-05-03T07:23:57.008Z</time></trkpt><trkpt lat="41.3795324" lon="13.0638454"><ele>13.0</ele><time>2026-05-03T07:23:59.008Z</time></trkpt><trkpt lat="41.3795896" lon="13.0637423"><ele>13.0</ele><time>2026-05-03T07:24:01.007Z</time></trkpt><trkpt lat="41.3796468" lon="13.0636418"><ele>12.8</ele><time>2026-05-03T07:24:03.007Z</time></trkpt><trkpt lat="41.3797054" lon="13.0635372"><ele>12.600000000000001</ele><time>2026-05-03T07:24:05.008Z</time></trkpt><trkpt lat="41.379766" lon="13.063432"><ele>12.399999999999999</ele><time>2026-05-03T07:24:07.007Z</time></trkpt><trkpt lat="41.3798251" lon="13.0633207"><ele>12.2</ele><time>2026-05-03T07:24:09.008Z</time></trkpt><trkpt lat="41.3798841" lon="13.0632097"><ele>12.0</ele><time>2026-05-03T07:24:11.007Z</time></trkpt><trkpt lat="41.3799393" lon="13.0631062"><ele>12.0</ele><time>2026-05-03T07:24:13.007Z</time></trkpt><trkpt lat="41.3800002" lon="13.0630009"><ele>12.0</ele><time>2026-05-03T07:24:15.007Z</time></trkpt><trkpt lat="41.3800594" lon="13.0628964"><ele>12.0</ele><time>2026-05-03T07:24:17.008Z</time></trkpt><trkpt lat="41.3801097" lon="13.0627961"><ele>12.0</ele><time>2026-05-03T07:24:19.008Z</time></trkpt><trkpt lat="41.3801612" lon="13.062692"><ele>12.0</ele><time>2026-05-03T07:24:21.007Z</time></trkpt><trkpt lat="41.3802171" lon="13.0625945"><ele>12.0</ele><time>2026-05-03T07:24:23.007Z</time></trkpt><trkpt lat="41.3802748" lon="13.0624973"><ele>12.0</ele><time>2026-05-03T07:24:25.008Z</time></trkpt><trkpt lat="41.3803256" lon="13.0624029"><ele>12.0</ele><time>2026-05-03T07:24:27.007Z</time></trkpt><trkpt lat="41.3803736" lon="13.0623038"><ele>12.0</ele><time>2026-05-03T07:24:29.007Z</time></trkpt><trkpt lat="41.3804373" lon="13.0622081"><ele>12.0</ele><time>2026-05-03T07:24:31.007Z</time></trkpt><trkpt lat="41.380491" lon="13.0621052"><ele>11.833333333333334</ele><time>2026-05-03T07:24:33.007Z</time></trkpt><trkpt lat="41.3805486" lon="13.0620086"><ele>11.666666666666666</ele><time>2026-05-03T07:24:35.007Z</time></trkpt><trkpt lat="41.3805982" lon="13.0619127"><ele>11.5</ele><time>2026-05-03T07:24:37.008Z</time></trkpt><trkpt lat="41.3806496" lon="13.0618132"><ele>11.333333333333332</ele><time>2026-05-03T07:24:39.007Z</time></trkpt><trkpt lat="41.3807002" lon="13.061718"><ele>11.166666666666666</ele><time>2026-05-03T07:24:41.008Z</time></trkpt><trkpt lat="41.3807493" lon="13.0616278"><ele>11.0</ele><time>2026-05-03T07:24:43.008Z</time></trkpt><trkpt lat="41.3808031" lon="13.0615366"><ele>11.0</ele><time>2026-05-03T07:24:45.008Z</time></trkpt><trkpt lat="41.3808499" lon="13.061438"><ele>11.0</ele><time>2026-05-03T07:24:47.008Z</time></trkpt><trkpt lat="41.3808989" lon="13.0613444"><ele>11.0</ele><time>2026-05-03T07:24:49.007Z</time></trkpt><trkpt lat="41.3809546" lon="13.0612498"><ele>11.0</ele><time>2026-05-03T07:24:51.008Z</time></trkpt><trkpt lat="41.3810025" lon="13.0611548"><ele>11.0</ele><time>2026-05-03T07:24:53.008Z</time></trkpt><trkpt lat="41.3810561" lon="13.0610583"><ele>11.0</ele><time>2026-05-03T07:24:55.007Z</time></trkpt><trkpt lat="41.3811034" lon="13.0609654"><ele>11.0</ele><time>2026-05-03T07:24:57.007Z</time></trkpt><trkpt lat="41.3811582" lon="13.0608726"><ele>11.0</ele><time>2026-05-03T07:24:59.008Z</time></trkpt><trkpt lat="41.3812082" lon="13.0607822"><ele>11.0</ele><time>2026-05-03T07:25:01.008Z</time></trkpt><trkpt lat="41.3812604" lon="13.0606829"><ele>11.0</ele><time>2026-05-03T07:25:03.008Z</time></trkpt><trkpt lat="41.3813198" lon="13.0605868"><ele>11.0</ele><time>2026-05-03T07:25:05.007Z</time></trkpt><trkpt lat="41.3813741" lon="13.0604878"><ele>11.0</ele><time>2026-05-03T07:25:07.007Z</time></trkpt><trkpt lat="41.3814306" lon="13.0603821"><ele>11.0</ele><time>2026-05-03T07:25:09.007Z</time></trkpt><trkpt lat="41.3814853" lon="13.0602841"><ele>11.0</ele><time>2026-05-03T07:25:11.007Z</time></trkpt><trkpt lat="41.3815407" lon="13.0601782"><ele>11.0</ele><time>2026-05-03T07:25:13.008Z</time></trkpt><trkpt lat="41.3815866" lon="13.0600829"><ele>11.0</ele><time>2026-05-03T07:25:15.008Z</time></trkpt><trkpt lat="41.3816358" lon="13.0599909"><ele>11.0</ele><time>2026-05-03T07:25:17.007Z</time></trkpt><trkpt lat="41.3816872" lon="13.0598938"><ele>11.0</ele><time>2026-05-03T07:25:19.008Z</time></trkpt><trkpt lat="41.3817413" lon="13.0598054"><ele>11.0</ele><time>2026-05-03T07:25:21.008Z</time></trkpt><trkpt lat="41.3817909" lon="13.0597091"><ele>11.0</ele><time>2026-05-03T07:25:23.008Z</time></trkpt><trkpt lat="41.3818424" lon="13.0596131"><ele>11.0</ele><time>2026-05-03T07:25:25.007Z</time></trkpt><trkpt lat="41.381892" lon="13.0595194"><ele>11.0</ele><time>2026-05-03T07:25:27.007Z</time></trkpt><trkpt lat="41.3819424" lon="13.0594315"><ele>11.0</ele><time>2026-05-03T07:25:29.007Z</time></trkpt><trkpt lat="41.3819945" lon="13.0593382"><ele>11.0</ele><time>2026-05-03T07:25:31.008Z</time></trkpt><trkpt lat="41.3820484" lon="13.0592476"><ele>11.0</ele><time>2026-05-03T07:25:33.007Z</time></trkpt><trkpt lat="41.3821007" lon="13.059146"><ele>11.0</ele><time>2026-05-03T07:25:35.007Z</time></trkpt><trkpt lat="41.3821521" lon="13.0590491"><ele>11.0</ele><time>2026-05-03T07:25:37.007Z</time></trkpt><trkpt lat="41.3822118" lon="13.0589549"><ele>11.0</ele><time>2026-05-03T07:25:39.007Z</time></trkpt><trkpt lat="41.382265" lon="13.0588581"><ele>11.0</ele><time>2026-05-03T07:25:41.007Z</time></trkpt><trkpt lat="41.3823153" lon="13.0587599"><ele>11.0</ele><time>2026-05-03T07:25:43.008Z</time></trkpt><trkpt lat="41.3823672" lon="13.0586606"><ele>11.0</ele><time>2026-05-03T07:25:45.007Z</time></trkpt><trkpt lat="41.3824179" lon="13.0585654"><ele>11.0</ele><time>2026-05-03T07:25:47.007Z</time></trkpt><trkpt lat="41.3824747" lon="13.05847"><ele>11.0</ele><time>2026-05-03T07:25:49.007Z</time></trkpt><trkpt lat="41.3825269" lon="13.0583723"><ele>11.0</ele><time>2026-05-03T07:25:51.008Z</time></trkpt><trkpt lat="41.3825815" lon="13.0582715"><ele>10.8</ele><time>2026-05-03T07:25:53.008Z</time></trkpt><trkpt lat="41.3826368" lon="13.0581744"><ele>10.600000000000001</ele><time>2026-05-03T07:25:55.008Z</time></trkpt><trkpt lat="41.3826886" lon="13.0580768"><ele>10.4</ele><time>2026-05-03T07:25:57.007Z</time></trkpt><trkpt lat="41.3827435" lon="13.0579736"><ele>10.2</ele><time>2026-05-03T07:25:59.007Z</time></trkpt><trkpt lat="41.3827987" lon="13.0578714"><ele>10.0</ele><time>2026-05-03T07:26:01.007Z</time></trkpt><trkpt lat="41.382858" lon="13.0577685"><ele>10.0</ele><time>2026-05-03T07:26:03.007Z</time></trkpt><trkpt lat="41.3829091" lon="13.0576656"><ele>10.0</ele><time>2026-05-03T07:26:05.007Z</time></trkpt><trkpt lat="41.3829672" lon="13.0575638"><ele>10.0</ele><time>2026-05-03T07:26:07.008Z</time></trkpt><trkpt lat="41.3830259" lon="13.0574642"><ele>10.0</ele><time>2026-05-03T07:26:09.007Z</time></trkpt><trkpt lat="41.3830755" lon="13.0573637"><ele>10.0</ele><time>2026-05-03T07:26:11.007Z</time></trkpt><trkpt lat="41.3831311" lon="13.057262"><ele>10.6</ele><time>2026-05-03T07:26:13.007Z</time></trkpt><trkpt lat="41.3831872" lon="13.0571657"><ele>11.2</ele><time>2026-05-03T07:26:15.008Z</time></trkpt><trkpt lat="41.3832423" lon="13.0570578"><ele>11.8</ele><time>2026-05-03T07:26:17.007Z</time></trkpt><trkpt lat="41.3832954" lon="13.0569533"><ele>12.4</ele><time>2026-05-03T07:26:19.007Z</time></trkpt><trkpt lat="41.3833485" lon="13.0568547"><ele>13.0</ele><time>2026-05-03T07:26:21.007Z</time></trkpt><trkpt lat="41.3834018" lon="13.0567631"><ele>13.0</ele><time>2026-05-03T07:26:23.007Z</time></trkpt><trkpt lat="41.3834556" lon="13.0566679"><ele>13.0</ele><time>2026-05-03T07:26:25.008Z</time></trkpt><trkpt lat="41.383511" lon="13.0565696"><ele>13.0</ele><time>2026-05-03T07:26:27.008Z</time></trkpt><trkpt lat="41.3835625" lon="13.0564751"><ele>13.0</ele><time>2026-05-03T07:26:29.008Z</time></trkpt><trkpt lat="41.3836206" lon="13.0563736"><ele>13.0</ele><time>2026-05-03T07:26:31.007Z</time></trkpt><trkpt lat="41.3836708" lon="13.05627"><ele>13.0</ele><time>2026-05-03T07:26:33.007Z</time></trkpt><trkpt lat="41.3837208" lon="13.0561756"><ele>13.0</ele><time>2026-05-03T07:26:35.008Z</time></trkpt><trkpt lat="41.3837746" lon="13.0560809"><ele>13.0</ele><time>2026-05-03T07:26:37.008Z</time></trkpt><trkpt lat="41.3838277" lon="13.0559825"><ele>13.0</ele><time>2026-05-03T07:26:39.007Z</time></trkpt><trkpt lat="41.3838811" lon="13.0558789"><ele>13.0</ele><time>2026-05-03T07:26:41.007Z</time></trkpt><trkpt lat="41.3839388" lon="13.0557802"><ele>13.4</ele><time>2026-05-03T07:26:43.007Z</time></trkpt><trkpt lat="41.3840007" lon="13.0556802"><ele>13.8</ele><time>2026-05-03T07:26:45.007Z</time></trkpt><trkpt lat="41.3840572" lon="13.0555827"><ele>14.2</ele><time>2026-05-03T07:26:47.007Z</time></trkpt><trkpt lat="41.3841151" lon="13.0554864"><ele>14.6</ele><time>2026-05-03T07:26:49.008Z</time></trkpt><trkpt lat="41.3841792" lon="13.055392"><ele>15.0</ele><time>2026-05-03T07:26:51.008Z</time></trkpt><trkpt lat="41.3842434" lon="13.055302"><ele>15.0</ele><time>2026-05-03T07:26:53.007Z</time></trkpt><trkpt lat="41.3843077" lon="13.055213"><ele>15.0</ele><time>2026-05-03T07:26:55.008Z</time></trkpt><trkpt lat="41.384375" lon="13.0551234"><ele>15.0</ele><time>2026-05-03T07:26:57.007Z</time></trkpt><trkpt lat="41.3844446" lon="13.0550329"><ele>15.0</ele><time>2026-05-03T07:26:59.007Z</time></trkpt><trkpt lat="41.3845079" lon="13.0549515"><ele>15.0</ele><time>2026-05-03T07:27:01.007Z</time></trkpt><trkpt lat="41.3845692" lon="13.0548601"><ele>14.8</ele><time>2026-05-03T07:27:03.007Z</time></trkpt><trkpt lat="41.3846381" lon="13.0547772"><ele>14.6</ele><time>2026-05-03T07:27:05.007Z</time></trkpt><trkpt lat="41.3847031" lon="13.0546898"><ele>14.399999999999999</ele><time>2026-05-03T07:27:07.007Z</time></trkpt><trkpt lat="41.3847692" lon="13.054604"><ele>14.2</ele><time>2026-05-03T07:27:09.007Z</time></trkpt><trkpt lat="41.3848391" lon="13.0545178"><ele>14.0</ele><time>2026-05-03T07:27:11.008Z</time></trkpt><trkpt lat="41.3848995" lon="13.0544353"><ele>14.0</ele><time>2026-05-03T07:27:13.007Z</time></trkpt><trkpt lat="41.3849523" lon="13.0543634"><ele>14.0</ele><time>2026-05-03T07:27:15.007Z</time></trkpt><trkpt lat="41.3850052" lon="13.0543014"><ele>14.0</ele><time>2026-05-03T07:27:17.008Z</time></trkpt><trkpt lat="41.3850554" lon="13.0542365"><ele>14.0</ele><time>2026-05-03T07:27:19.007Z</time></trkpt><trkpt lat="41.3851043" lon="13.0541731"><ele>14.0</ele><time>2026-05-03T07:27:21.008Z</time></trkpt><trkpt lat="41.385163" lon="13.0540847"><ele>14.0</ele><time>2026-05-03T07:27:24.007Z</time></trkpt><trkpt lat="41.3852144" lon="13.0540086"><ele>14.0</ele><time>2026-05-03T07:27:27.008Z</time></trkpt><trkpt lat="41.3852711" lon="13.0539411"><ele>13.857142857142858</ele><time>2026-05-03T07:27:30.007Z</time></trkpt><trkpt lat="41.3853123" lon="13.0538725"><ele>13.714285714285715</ele><time>2026-05-03T07:27:33.007Z</time></trkpt><trkpt lat="41.385369" lon="13.0538151"><ele>13.571428571428571</ele><time>2026-05-03T07:27:36.007Z</time></trkpt><trkpt lat="41.3854173" lon="13.0537594"><ele>13.428571428571429</ele><time>2026-05-03T07:27:38.008Z</time></trkpt><trkpt lat="41.385475" lon="13.0536948"><ele>13.285714285714286</ele><time>2026-05-03T07:27:40.112Z</time></trkpt><trkpt lat="41.3855312" lon="13.0536217"><ele>13.142857142857142</ele><time>2026-05-03T07:27:42.127Z</time></trkpt><trkpt lat="41.3855914" lon="13.0535491"><ele>13.0</ele><time>2026-05-03T07:27:44.143Z</time></trkpt><trkpt lat="41.3856478" lon="13.053474"><ele>12.8</ele><time>2026-05-03T07:27:46.007Z</time></trkpt><trkpt lat="41.385709" lon="13.0533887"><ele>12.600000000000001</ele><time>2026-05-03T07:27:48.008Z</time></trkpt><trkpt lat="41.3857682" lon="13.0533114"><ele>12.399999999999999</ele><time>2026-05-03T07:27:50.007Z</time></trkpt><trkpt lat="41.3858342" lon="13.0532299"><ele>12.2</ele><time>2026-05-03T07:27:52.007Z</time></trkpt><trkpt lat="41.385894" lon="13.0531446"><ele>12.0</ele><time>2026-05-03T07:27:54.007Z</time></trkpt><trkpt lat="41.3859969" lon="13.0530186"><ele>12.0</ele><time>2026-05-03T07:27:57.03Z</time></trkpt><trkpt lat="41.3860614" lon="13.0529332"><ele>12.0</ele><time>2026-05-03T07:27:59.028Z</time></trkpt><trkpt lat="41.38612" lon="13.0528534"><ele>12.0</ele><time>2026-05-03T07:28:01.007Z</time></trkpt><trkpt lat="41.3861849" lon="13.0527684"><ele>12.0</ele><time>2026-05-03T07:28:03.007Z</time></trkpt><trkpt lat="41.3862498" lon="13.0526842"><ele>12.0</ele><time>2026-05-03T07:28:05.007Z</time></trkpt><trkpt lat="41.3863116" lon="13.0526005"><ele>12.0</ele><time>2026-05-03T07:28:07.008Z</time></trkpt><trkpt lat="41.3863784" lon="13.0525183"><ele>11.8</ele><time>2026-05-03T07:28:09.008Z</time></trkpt><trkpt lat="41.386448" lon="13.0524343"><ele>11.6</ele><time>2026-05-03T07:28:11.007Z</time></trkpt><trkpt lat="41.3865168" lon="13.0523423"><ele>11.4</ele><time>2026-05-03T07:28:13.008Z</time></trkpt><trkpt lat="41.3865795" lon="13.0522534"><ele>11.200000000000001</ele><time>2026-05-03T07:28:15.008Z</time></trkpt><trkpt lat="41.3866473" lon="13.0521655"><ele>11.0</ele><time>2026-05-03T07:28:17.007Z</time></trkpt><trkpt lat="41.3867063" lon="13.0520802"><ele>11.0</ele><time>2026-05-03T07:28:19.008Z</time></trkpt><trkpt lat="41.3867708" lon="13.0519947"><ele>11.0</ele><time>2026-05-03T07:28:21.008Z</time></trkpt><trkpt lat="41.3868359" lon="13.0519133"><ele>11.0</ele><time>2026-05-03T07:28:23.007Z</time></trkpt><trkpt lat="41.3869029" lon="13.0518301"><ele>11.0</ele><time>2026-05-03T07:28:25.007Z</time></trkpt><trkpt lat="41.3869725" lon="13.0517478"><ele>11.0</ele><time>2026-05-03T07:28:27.006Z</time></trkpt><trkpt lat="41.3870368" lon="13.0516623"><ele>10.833333333333332</ele><time>2026-05-03T07:28:29.006Z</time></trkpt><trkpt lat="41.3871002" lon="13.0515773"><ele>10.666666666666666</ele><time>2026-05-03T07:28:31.006Z</time></trkpt><trkpt lat="41.3871643" lon="13.0514922"><ele>10.5</ele><time>2026-05-03T07:28:33.006Z</time></trkpt><trkpt lat="41.387225" lon="13.0514092"><ele>10.333333333333334</ele><time>2026-05-03T07:28:35.006Z</time></trkpt><trkpt lat="41.3872907" lon="13.0513298"><ele>10.166666666666668</ele><time>2026-05-03T07:28:37.007Z</time></trkpt><trkpt lat="41.3873553" lon="13.051247"><ele>10.0</ele><time>2026-05-03T07:28:39.007Z</time></trkpt><trkpt lat="41.3874159" lon="13.0511661"><ele>10.4</ele><time>2026-05-03T07:28:41.007Z</time></trkpt><trkpt lat="41.3874754" lon="13.0510887"><ele>10.8</ele><time>2026-05-03T07:28:43.006Z</time></trkpt><trkpt lat="41.3875413" lon="13.051008"><ele>11.2</ele><time>2026-05-03T07:28:45.006Z</time></trkpt><trkpt lat="41.3876054" lon="13.0509194"><ele>11.6</ele><time>2026-05-03T07:28:47.007Z</time></trkpt><trkpt lat="41.387671" lon="13.0508336"><ele>12.0</ele><time>2026-05-03T07:28:49.007Z</time></trkpt><trkpt lat="41.3877383" lon="13.0507459"><ele>12.0</ele><time>2026-05-03T07:28:51.006Z</time></trkpt><trkpt lat="41.3878026" lon="13.0506599"><ele>12.0</ele><time>2026-05-03T07:28:53.007Z</time></trkpt><trkpt lat="41.387869" lon="13.0505683"><ele>12.0</ele><time>2026-05-03T07:28:55.006Z</time></trkpt><trkpt lat="41.3879371" lon="13.0504746"><ele>12.0</ele><time>2026-05-03T07:28:57.007Z</time></trkpt><trkpt lat="41.3880094" lon="13.0503881"><ele>12.0</ele><time>2026-05-03T07:28:59.007Z</time></trkpt><trkpt lat="41.3880782" lon="13.0502991"><ele>12.399999999999999</ele><time>2026-05-03T07:29:01.006Z</time></trkpt><trkpt lat="41.388147" lon="13.0502125"><ele>12.799999999999999</ele><time>2026-05-03T07:29:03.006Z</time></trkpt><trkpt lat="41.3882187" lon="13.0501203"><ele>13.2</ele><time>2026-05-03T07:29:05.007Z</time></trkpt><trkpt lat="41.3882881" lon="13.050029"><ele>13.6</ele><time>2026-05-03T07:29:07.006Z</time></trkpt><trkpt lat="41.3883566" lon="13.049938"><ele>14.0</ele><time>2026-05-03T07:29:09.007Z</time></trkpt><trkpt lat="41.3884242" lon="13.0498422"><ele>14.2</ele><time>2026-05-03T07:29:11.006Z</time></trkpt><trkpt lat="41.388496" lon="13.0497517"><ele>14.399999999999999</ele><time>2026-05-03T07:29:13.007Z</time></trkpt><trkpt lat="41.3885668" lon="13.0496598"><ele>14.6</ele><time>2026-05-03T07:29:15.007Z</time></trkpt><trkpt lat="41.3886348" lon="13.0495627"><ele>14.8</ele><time>2026-05-03T07:29:17.007Z</time></trkpt><trkpt lat="41.3887051" lon="13.0494716"><ele>15.0</ele><time>2026-05-03T07:29:19.006Z</time></trkpt><trkpt lat="41.3887807" lon="13.0493853"><ele>14.8</ele><time>2026-05-03T07:29:21.006Z</time></trkpt><trkpt lat="41.3888491" lon="13.0492966"><ele>14.6</ele><time>2026-05-03T07:29:23.006Z</time></trkpt><trkpt lat="41.3889175" lon="13.0492058"><ele>14.399999999999999</ele><time>2026-05-03T07:29:25.007Z</time></trkpt><trkpt lat="41.388981" lon="13.0491255"><ele>14.2</ele><time>2026-05-03T07:29:27.006Z</time></trkpt><trkpt lat="41.3890455" lon="13.049042"><ele>14.0</ele><time>2026-05-03T07:29:29.006Z</time></trkpt><trkpt lat="41.3891145" lon="13.0489513"><ele>14.0</ele><time>2026-05-03T07:29:31.006Z</time></trkpt><trkpt lat="41.389185" lon="13.0488574"><ele>13.999999999999998</ele><time>2026-05-03T07:29:33.006Z</time></trkpt><trkpt lat="41.3892544" lon="13.0487692"><ele>13.999999999999998</ele><time>2026-05-03T07:29:35.007Z</time></trkpt><trkpt lat="41.3893249" lon="13.0486866"><ele>14.0</ele><time>2026-05-03T07:29:37.006Z</time></trkpt><trkpt lat="41.3893885" lon="13.0486016"><ele>14.0</ele><time>2026-05-03T07:29:39.007Z</time></trkpt><trkpt lat="41.389453" lon="13.0485265"><ele>14.0</ele><time>2026-05-03T07:29:41.006Z</time></trkpt><trkpt lat="41.3895168" lon="13.0484412"><ele>13.999999999999998</ele><time>2026-05-03T07:29:43.006Z</time></trkpt><trkpt lat="41.3895791" lon="13.048361"><ele>13.999999999999998</ele><time>2026-05-03T07:29:45.006Z</time></trkpt><trkpt lat="41.3896399" lon="13.0482767"><ele>14.0</ele><time>2026-05-03T07:29:47.006Z</time></trkpt><trkpt lat="41.3897037" lon="13.0481871"><ele>14.0</ele><time>2026-05-03T07:29:49.007Z</time></trkpt><trkpt lat="41.3897704" lon="13.0481008"><ele>13.6</ele><time>2026-05-03T07:29:51.006Z</time></trkpt><trkpt lat="41.3898302" lon="13.0480174"><ele>13.2</ele><time>2026-05-03T07:29:53.006Z</time></trkpt><trkpt lat="41.3898931" lon="13.0479347"><ele>12.799999999999999</ele><time>2026-05-03T07:29:55.007Z</time></trkpt><trkpt lat="41.3899631" lon="13.0478484"><ele>12.399999999999999</ele><time>2026-05-03T07:29:57.007Z</time></trkpt><trkpt lat="41.3900315" lon="13.04777"><ele>12.0</ele><time>2026-05-03T07:29:59.006Z</time></trkpt><trkpt lat="41.3900973" lon="13.0476871"><ele>12.0</ele><time>2026-05-03T07:30:01.007Z</time></trkpt><trkpt lat="41.3901577" lon="13.0476057"><ele>12.0</ele><time>2026-05-03T07:30:03.007Z</time></trkpt><trkpt lat="41.3902232" lon="13.0475206"><ele>12.0</ele><time>2026-05-03T07:30:05.007Z</time></trkpt><trkpt lat="41.3902852" lon="13.0474323"><ele>12.0</ele><time>2026-05-03T07:30:07.007Z</time></trkpt><trkpt lat="41.3903519" lon="13.0473449"><ele>12.0</ele><time>2026-05-03T07:30:09.109Z</time></trkpt><trkpt lat="41.3904101" lon="13.0472641"><ele>12.0</ele><time>2026-05-03T07:30:11.006Z</time></trkpt><trkpt lat="41.3904722" lon="13.0471859"><ele>12.2</ele><time>2026-05-03T07:30:13.006Z</time></trkpt><trkpt lat="41.390534" lon="13.0470994"><ele>12.399999999999999</ele><time>2026-05-03T07:30:15.007Z</time></trkpt><trkpt lat="41.3906263" lon="13.0469889"><ele>12.600000000000001</ele><time>2026-05-03T07:30:18.006Z</time></trkpt><trkpt lat="41.3907016" lon="13.0468898"><ele>12.8</ele><time>2026-05-03T07:30:20.006Z</time></trkpt><trkpt lat="41.3907691" lon="13.0468025"><ele>13.0</ele><time>2026-05-03T07:30:22.007Z</time></trkpt><trkpt lat="41.3908358" lon="13.0467139"><ele>13.0</ele><time>2026-05-03T07:30:24.007Z</time></trkpt><trkpt lat="41.3909005" lon="13.0466296"><ele>13.0</ele><time>2026-05-03T07:30:26.007Z</time></trkpt><trkpt lat="41.3909646" lon="13.0465436"><ele>13.0</ele><time>2026-05-03T07:30:28.006Z</time></trkpt><trkpt lat="41.3910294" lon="13.0464627"><ele>13.0</ele><time>2026-05-03T07:30:30.007Z</time></trkpt><trkpt lat="41.3910921" lon="13.0463786"><ele>13.0</ele><time>2026-05-03T07:30:32.007Z</time></trkpt><trkpt lat="41.3911618" lon="13.0462899"><ele>12.714285714285714</ele><time>2026-05-03T07:30:34.006Z</time></trkpt><trkpt lat="41.3912239" lon="13.0462152"><ele>12.428571428571429</ele><time>2026-05-03T07:30:36.007Z</time></trkpt><trkpt lat="41.3912741" lon="13.0461423"><ele>12.142857142857142</ele><time>2026-05-03T07:30:38.006Z</time></trkpt><trkpt lat="41.3913242" lon="13.0460731"><ele>11.857142857142858</ele><time>2026-05-03T07:30:40.007Z</time></trkpt><trkpt lat="41.3913693" lon="13.0459942"><ele>11.571428571428571</ele><time>2026-05-03T07:30:42.006Z</time></trkpt><trkpt lat="41.3914163" lon="13.045929"><ele>11.285714285714286</ele><time>2026-05-03T07:30:44.006Z</time></trkpt><trkpt lat="41.3914696" lon="13.0458618"><ele>11.0</ele><time>2026-05-03T07:30:46.006Z</time></trkpt><trkpt lat="41.3915297" lon="13.0458058"><ele>11.200000000000001</ele><time>2026-05-03T07:30:48.007Z</time></trkpt><trkpt lat="41.3915984" lon="13.0457262"><ele>11.4</ele><time>2026-05-03T07:30:50.007Z</time></trkpt><trkpt lat="41.3916645" lon="13.0456338"><ele>11.6</ele><time>2026-05-03T07:30:52.007Z</time></trkpt><trkpt lat="41.3917379" lon="13.0455425"><ele>11.8</ele><time>2026-05-03T07:30:54.006Z</time></trkpt><trkpt lat="41.3918059" lon="13.0454514"><ele>12.0</ele><time>2026-05-03T07:30:56.006Z</time></trkpt><trkpt lat="41.3918715" lon="13.0453599"><ele>12.0</ele><time>2026-05-03T07:30:58.006Z</time></trkpt><trkpt lat="41.3919402" lon="13.0452691"><ele>12.0</ele><time>2026-05-03T07:31:00.006Z</time></trkpt><trkpt lat="41.3920054" lon="13.0451791"><ele>12.0</ele><time>2026-05-03T07:31:02.006Z</time></trkpt><trkpt lat="41.3920697" lon="13.0450983"><ele>12.0</ele><time>2026-05-03T07:31:04.006Z</time></trkpt><trkpt lat="41.3921326" lon="13.0450162"><ele>12.0</ele><time>2026-05-03T07:31:06.006Z</time></trkpt><trkpt lat="41.3922057" lon="13.0449287"><ele>12.0</ele><time>2026-05-03T07:31:08.007Z</time></trkpt><trkpt lat="41.3922729" lon="13.0448411"><ele>12.0</ele><time>2026-05-03T07:31:10.007Z</time></trkpt><trkpt lat="41.3923396" lon="13.0447498"><ele>12.0</ele><time>2026-05-03T07:31:12.006Z</time></trkpt><trkpt lat="41.3924079" lon="13.0446669"><ele>12.0</ele><time>2026-05-03T07:31:14.007Z</time></trkpt><trkpt lat="41.3924718" lon="13.0445771"><ele>12.0</ele><time>2026-05-03T07:31:16.006Z</time></trkpt><trkpt lat="41.3925396" lon="13.0444863"><ele>12.0</ele><time>2026-05-03T07:31:18.007Z</time></trkpt><trkpt lat="41.3926002" lon="13.0443951"><ele>12.0</ele><time>2026-05-03T07:31:20.007Z</time></trkpt><trkpt lat="41.3926618" lon="13.0443149"><ele>12.0</ele><time>2026-05-03T07:31:22.006Z</time></trkpt><trkpt lat="41.3927326" lon="13.0442382"><ele>12.0</ele><time>2026-05-03T07:31:24.007Z</time></trkpt><trkpt lat="41.3927922" lon="13.0441605"><ele>12.0</ele><time>2026-05-03T07:31:26.006Z</time></trkpt><trkpt lat="41.3928619" lon="13.0440793"><ele>12.0</ele><time>2026-05-03T07:31:28.006Z</time></trkpt><trkpt lat="41.3929237" lon="13.0439936"><ele>12.0</ele><time>2026-05-03T07:31:30.007Z</time></trkpt><trkpt lat="41.3929869" lon="13.0439058"><ele>12.0</ele><time>2026-05-03T07:31:32.006Z</time></trkpt><trkpt lat="41.3930551" lon="13.0438196"><ele>12.0</ele><time>2026-05-03T07:31:34.006Z</time></trkpt><trkpt lat="41.3931197" lon="13.0437355"><ele>12.0</ele><time>2026-05-03T07:31:36.007Z</time></trkpt><trkpt lat="41.3931835" lon="13.0436546"><ele>12.0</ele><time>2026-05-03T07:31:38.007Z</time></trkpt><trkpt lat="41.3932548" lon="13.0435642"><ele>12.0</ele><time>2026-05-03T07:31:40.007Z</time></trkpt><trkpt lat="41.3933203" lon="13.0434738"><ele>12.0</ele><time>2026-05-03T07:31:42.007Z</time></trkpt><trkpt lat="41.3933876" lon="13.0433857"><ele>12.0</ele><time>2026-05-03T07:31:44.006Z</time></trkpt><trkpt lat="41.3934509" lon="13.0433011"><ele>12.0</ele><time>2026-05-03T07:31:46.007Z</time></trkpt><trkpt lat="41.393517" lon="13.0432152"><ele>12.0</ele><time>2026-05-03T07:31:48.007Z</time></trkpt><trkpt lat="41.3935819" lon="13.0431302"><ele>12.0</ele><time>2026-05-03T07:31:50.007Z</time></trkpt><trkpt lat="41.3936522" lon="13.0430462"><ele>12.0</ele><time>2026-05-03T07:31:52.007Z</time></trkpt><trkpt lat="41.3937162" lon="13.0429601"><ele>12.0</ele><time>2026-05-03T07:31:54.007Z</time></trkpt><trkpt lat="41.3937804" lon="13.0428677"><ele>12.0</ele><time>2026-05-03T07:31:56.007Z</time></trkpt><trkpt lat="41.3938425" lon="13.0427819"><ele>12.0</ele><time>2026-05-03T07:31:58.006Z</time></trkpt><trkpt lat="41.3939077" lon="13.0426956"><ele>12.2</ele><time>2026-05-03T07:32:00.007Z</time></trkpt><trkpt lat="41.3939784" lon="13.0426146"><ele>12.399999999999999</ele><time>2026-05-03T07:32:02.007Z</time></trkpt><trkpt lat="41.3940478" lon="13.0425328"><ele>12.600000000000001</ele><time>2026-05-03T07:32:04.006Z</time></trkpt><trkpt lat="41.3941151" lon="13.0424456"><ele>12.8</ele><time>2026-05-03T07:32:06.006Z</time></trkpt><trkpt lat="41.3941815" lon="13.0423567"><ele>13.0</ele><time>2026-05-03T07:32:08.006Z</time></trkpt><trkpt lat="41.3942491" lon="13.0422666"><ele>13.0</ele><time>2026-05-03T07:32:10.007Z</time></trkpt><trkpt lat="41.3943159" lon="13.042176"><ele>13.0</ele><time>2026-05-03T07:32:12.007Z</time></trkpt><trkpt lat="41.3943832" lon="13.0420849"><ele>13.0</ele><time>2026-05-03T07:32:14.006Z</time></trkpt><trkpt lat="41.3944591" lon="13.041989"><ele>13.0</ele><time>2026-05-03T07:32:16.006Z</time></trkpt><trkpt lat="41.3945363" lon="13.041893"><ele>13.0</ele><time>2026-05-03T07:32:18.006Z</time></trkpt><trkpt lat="41.39461" lon="13.0417994"><ele>13.0</ele><time>2026-05-03T07:32:20.006Z</time></trkpt><trkpt lat="41.3946776" lon="13.0417039"><ele>13.0</ele><time>2026-05-03T07:32:22.006Z</time></trkpt><trkpt lat="41.3947502" lon="13.041607"><ele>13.0</ele><time>2026-05-03T07:32:24.006Z</time></trkpt><trkpt lat="41.394824" lon="13.0415109"><ele>13.0</ele><time>2026-05-03T07:32:26.006Z</time></trkpt><trkpt lat="41.3948983" lon="13.0414083"><ele>13.0</ele><time>2026-05-03T07:32:28.007Z</time></trkpt><trkpt lat="41.3949722" lon="13.041312"><ele>13.2</ele><time>2026-05-03T07:32:30.006Z</time></trkpt><trkpt lat="41.3950457" lon="13.0412161"><ele>13.4</ele><time>2026-05-03T07:32:32.007Z</time></trkpt><trkpt lat="41.3951239" lon="13.0411174"><ele>13.599999999999998</ele><time>2026-05-03T07:32:34.006Z</time></trkpt><trkpt lat="41.3952009" lon="13.0410229"><ele>13.799999999999999</ele><time>2026-05-03T07:32:36.007Z</time></trkpt><trkpt lat="41.3952743" lon="13.0409248"><ele>14.0</ele><time>2026-05-03T07:32:38.007Z</time></trkpt><trkpt lat="41.3953432" lon="13.0408354"><ele>14.0</ele><time>2026-05-03T07:32:40.006Z</time></trkpt><trkpt lat="41.3954123" lon="13.040738"><ele>13.999999999999998</ele><time>2026-05-03T07:32:42.007Z</time></trkpt><trkpt lat="41.3954798" lon="13.0406494"><ele>13.999999999999998</ele><time>2026-05-03T07:32:44.007Z</time></trkpt><trkpt lat="41.3955492" lon="13.0405639"><ele>14.0</ele><time>2026-05-03T07:32:46.007Z</time></trkpt><trkpt lat="41.3956156" lon="13.0404759"><ele>14.0</ele><time>2026-05-03T07:32:48.007Z</time></trkpt><trkpt lat="41.3956795" lon="13.0403864"><ele>14.0</ele><time>2026-05-03T07:32:50.006Z</time></trkpt><trkpt lat="41.395743" lon="13.0403055"><ele>13.999999999999998</ele><time>2026-05-03T07:32:52.007Z</time></trkpt><trkpt lat="41.3958075" lon="13.040211"><ele>13.999999999999998</ele><time>2026-05-03T07:32:54.007Z</time></trkpt><trkpt lat="41.3958713" lon="13.0401247"><ele>14.0</ele><time>2026-05-03T07:32:56.007Z</time></trkpt><trkpt lat="41.3959298" lon="13.0400381"><ele>14.0</ele><time>2026-05-03T07:32:58.006Z</time></trkpt><trkpt lat="41.3959914" lon="13.0399546"><ele>14.000000000000002</ele><time>2026-05-03T07:33:00.006Z</time></trkpt><trkpt lat="41.3960507" lon="13.0398586"><ele>14.0</ele><time>2026-05-03T07:33:02.007Z</time></trkpt><trkpt lat="41.3961022" lon="13.0397642"><ele>14.0</ele><time>2026-05-03T07:33:04.006Z</time></trkpt><trkpt lat="41.3961543" lon="13.039683"><ele>14.0</ele><time>2026-05-03T07:33:06.007Z</time></trkpt><trkpt lat="41.3962031" lon="13.0396124"><ele>14.000000000000002</ele><time>2026-05-03T07:33:08.006Z</time></trkpt><trkpt lat="41.396252" lon="13.039535"><ele>14.0</ele><time>2026-05-03T07:33:10.006Z</time></trkpt><trkpt lat="41.3963032" lon="13.0394604"><ele>14.333333333333334</ele><time>2026-05-03T07:33:12.007Z</time></trkpt><trkpt lat="41.3963573" lon="13.0393625"><ele>14.666666666666668</ele><time>2026-05-03T07:33:15.007Z</time></trkpt><trkpt lat="41.3964005" lon="13.0392758"><ele>15.0</ele><time>2026-05-03T07:33:18.007Z</time></trkpt><trkpt lat="41.3964608" lon="13.0391902"><ele>15.333333333333332</ele><time>2026-05-03T07:33:21.006Z</time></trkpt><trkpt lat="41.3964955" lon="13.0391156"><ele>15.666666666666666</ele><time>2026-05-03T07:33:23.006Z</time></trkpt><trkpt lat="41.3965396" lon="13.0390311"><ele>16.0</ele><time>2026-05-03T07:33:25.007Z</time></trkpt><trkpt lat="41.3965923" lon="13.0389611"><ele>15.999999999999998</ele><time>2026-05-03T07:33:27.006Z</time></trkpt><trkpt lat="41.3966449" lon="13.0388775"><ele>16.0</ele><time>2026-05-03T07:33:29.007Z</time></trkpt><trkpt lat="41.3967064" lon="13.0387828"><ele>16.0</ele><time>2026-05-03T07:33:31.076Z</time></trkpt><trkpt lat="41.3967604" lon="13.0386917"><ele>16.0</ele><time>2026-05-03T07:33:33.088Z</time></trkpt><trkpt lat="41.3968161" lon="13.0385953"><ele>15.999999999999998</ele><time>2026-05-03T07:33:35.102Z</time></trkpt><trkpt lat="41.3968645" lon="13.0385094"><ele>16.0</ele><time>2026-05-03T07:33:37.007Z</time></trkpt><trkpt lat="41.3969211" lon="13.0384182"><ele>15.999999999999998</ele><time>2026-05-03T07:33:39.006Z</time></trkpt><trkpt lat="41.3969796" lon="13.0383261"><ele>16.0</ele><time>2026-05-03T07:33:41.007Z</time></trkpt><trkpt lat="41.3970401" lon="13.0382328"><ele>16.0</ele><time>2026-05-03T07:33:43.048Z</time></trkpt><trkpt lat="41.3970922" lon="13.0381365"><ele>16.0</ele><time>2026-05-03T07:33:45.061Z</time></trkpt><trkpt lat="41.3971348" lon="13.0380455"><ele>15.999999999999998</ele><time>2026-05-03T07:33:47.006Z</time></trkpt><trkpt lat="41.3971934" lon="13.0379511"><ele>16.0</ele><time>2026-05-03T07:33:49.006Z</time></trkpt><trkpt lat="41.3972481" lon="13.0378672"><ele>16.166666666666664</ele><time>2026-05-03T07:33:51.006Z</time></trkpt><trkpt lat="41.3972996" lon="13.0377793"><ele>16.333333333333332</ele><time>2026-05-03T07:33:53.007Z</time></trkpt><trkpt lat="41.3973486" lon="13.0376898"><ele>16.5</ele><time>2026-05-03T07:33:55.006Z</time></trkpt><trkpt lat="41.3974008" lon="13.0375977"><ele>16.666666666666668</ele><time>2026-05-03T07:33:57.006Z</time></trkpt><trkpt lat="41.3974604" lon="13.0375077"><ele>16.833333333333336</ele><time>2026-05-03T07:33:59.006Z</time></trkpt><trkpt lat="41.3975121" lon="13.037418"><ele>17.0</ele><time>2026-05-03T07:34:01.006Z</time></trkpt><trkpt lat="41.3975692" lon="13.037323"><ele>17.2</ele><time>2026-05-03T07:34:03.006Z</time></trkpt><trkpt lat="41.397626" lon="13.0372298"><ele>17.4</ele><time>2026-05-03T07:34:05.006Z</time></trkpt><trkpt lat="41.3976945" lon="13.0371565"><ele>17.6</ele><time>2026-05-03T07:34:07.006Z</time></trkpt><trkpt lat="41.3977813" lon="13.0371265"><ele>17.8</ele><time>2026-05-03T07:34:09.006Z</time></trkpt><trkpt lat="41.3978777" lon="13.0371368"><ele>18.0</ele><time>2026-05-03T07:34:11.007Z</time></trkpt><trkpt lat="41.3979664" lon="13.037175"><ele>17.6</ele><time>2026-05-03T07:34:13.006Z</time></trkpt><trkpt lat="41.398052" lon="13.037228"><ele>17.200000000000003</ele><time>2026-05-03T07:34:15.006Z</time></trkpt><trkpt lat="41.3981395" lon="13.0372803"><ele>16.8</ele><time>2026-05-03T07:34:17.007Z</time></trkpt><trkpt lat="41.3982211" lon="13.0373333"><ele>16.400000000000002</ele><time>2026-05-03T07:34:19.006Z</time></trkpt><trkpt lat="41.3983082" lon="13.0373869"><ele>16.0</ele><time>2026-05-03T07:34:21.007Z</time></trkpt><trkpt lat="41.3983931" lon="13.0374415"><ele>15.8</ele><time>2026-05-03T07:34:23.006Z</time></trkpt><trkpt lat="41.3984798" lon="13.0374857"><ele>15.600000000000001</ele><time>2026-05-03T07:34:25.007Z</time></trkpt><trkpt lat="41.3985684" lon="13.0375326"><ele>15.4</ele><time>2026-05-03T07:34:27.006Z</time></trkpt><trkpt lat="41.3986515" lon="13.0375806"><ele>15.2</ele><time>2026-05-03T07:34:29.006Z</time></trkpt><trkpt lat="41.398743" lon="13.0376227"><ele>15.0</ele><time>2026-05-03T07:34:31.007Z</time></trkpt><trkpt lat="41.3988304" lon="13.0376749"><ele>14.4</ele><time>2026-05-03T07:34:33.006Z</time></trkpt><trkpt lat="41.3989152" lon="13.0377206"><ele>13.8</ele><time>2026-05-03T07:34:35.007Z</time></trkpt><trkpt lat="41.3989953" lon="13.0377682"><ele>13.2</ele><time>2026-05-03T07:34:37.007Z</time></trkpt><trkpt lat="41.3990798" lon="13.0378191"><ele>12.6</ele><time>2026-05-03T07:34:39.007Z</time></trkpt><trkpt lat="41.3991624" lon="13.0378752"><ele>12.0</ele><time>2026-05-03T07:34:41.006Z</time></trkpt><trkpt lat="41.3992502" lon="13.0379241"><ele>12.0</ele><time>2026-05-03T07:34:43.006Z</time></trkpt><trkpt lat="41.3993358" lon="13.0379709"><ele>12.0</ele><time>2026-05-03T07:34:45.006Z</time></trkpt><trkpt lat="41.3994245" lon="13.0380169"><ele>12.0</ele><time>2026-05-03T07:34:47.006Z</time></trkpt><trkpt lat="41.3995098" lon="13.0380652"><ele>12.0</ele><time>2026-05-03T07:34:49.007Z</time></trkpt><trkpt lat="41.399596" lon="13.0381055"><ele>12.0</ele><time>2026-05-03T07:34:51.007Z</time></trkpt><trkpt lat="41.3996767" lon="13.0381537"><ele>11.8</ele><time>2026-05-03T07:34:53.006Z</time></trkpt><trkpt lat="41.3997683" lon="13.0382"><ele>11.6</ele><time>2026-05-03T07:34:55.006Z</time></trkpt><trkpt lat="41.3998619" lon="13.0382488"><ele>11.4</ele><time>2026-05-03T07:34:57.006Z</time></trkpt><trkpt lat="41.3999536" lon="13.0383023"><ele>11.200000000000001</ele><time>2026-05-03T07:34:59.007Z</time></trkpt><trkpt lat="41.400042" lon="13.0383568"><ele>11.0</ele><time>2026-05-03T07:35:01.007Z</time></trkpt><trkpt lat="41.400128" lon="13.0384135"><ele>11.0</ele><time>2026-05-03T07:35:03.006Z</time></trkpt><trkpt lat="41.4002143" lon="13.0384715"><ele>11.0</ele><time>2026-05-03T07:35:05.006Z</time></trkpt><trkpt lat="41.4003036" lon="13.0385305"><ele>11.0</ele><time>2026-05-03T07:35:07.006Z</time></trkpt><trkpt lat="41.4003939" lon="13.0385968"><ele>11.0</ele><time>2026-05-03T07:35:09.006Z</time></trkpt><trkpt lat="41.4004821" lon="13.0386613"><ele>11.0</ele><time>2026-05-03T07:35:11.006Z</time></trkpt><trkpt lat="41.4005681" lon="13.038726"><ele>10.8</ele><time>2026-05-03T07:35:13.006Z</time></trkpt><trkpt lat="41.4006505" lon="13.0387949"><ele>10.600000000000001</ele><time>2026-05-03T07:35:15.006Z</time></trkpt><trkpt lat="41.4007296" lon="13.0388654"><ele>10.4</ele><time>2026-05-03T07:35:17.007Z</time></trkpt><trkpt lat="41.4008057" lon="13.0389322"><ele>10.2</ele><time>2026-05-03T07:35:19.006Z</time></trkpt><trkpt lat="41.4008825" lon="13.0389998"><ele>10.0</ele><time>2026-05-03T07:35:21.006Z</time></trkpt><trkpt lat="41.4009567" lon="13.0390727"><ele>10.0</ele><time>2026-05-03T07:35:23.006Z</time></trkpt><trkpt lat="41.4010276" lon="13.0391618"><ele>10.0</ele><time>2026-05-03T07:35:25.007Z</time></trkpt><trkpt lat="41.4011087" lon="13.039242"><ele>10.0</ele><time>2026-05-03T07:35:27.007Z</time></trkpt><trkpt lat="41.4011872" lon="13.0393228"><ele>10.0</ele><time>2026-05-03T07:35:29.007Z</time></trkpt><trkpt lat="41.4012626" lon="13.0394174"><ele>10.0</ele><time>2026-05-03T07:35:31.006Z</time></trkpt><trkpt lat="41.4013392" lon="13.0395024"><ele>10.0</ele><time>2026-05-03T07:35:33.007Z</time></trkpt><trkpt lat="41.4014149" lon="13.0395908"><ele>10.0</ele><time>2026-05-03T07:35:35.007Z</time></trkpt><trkpt lat="41.4014874" lon="13.0396788"><ele>10.0</ele><time>2026-05-03T07:35:37.007Z</time></trkpt><trkpt lat="41.4015526" lon="13.03977"><ele>10.0</ele><time>2026-05-03T07:35:39.006Z</time></trkpt><trkpt lat="41.4016196" lon="13.0398635"><ele>10.0</ele><time>2026-05-03T07:35:41.007Z</time></trkpt><trkpt lat="41.4016932" lon="13.0399573"><ele>10.2</ele><time>2026-05-03T07:35:43.006Z</time></trkpt><trkpt lat="41.4017612" lon="13.0400577"><ele>10.4</ele><time>2026-05-03T07:35:45.006Z</time></trkpt><trkpt lat="41.4018328" lon="13.0401564"><ele>10.600000000000001</ele><time>2026-05-03T07:35:47.006Z</time></trkpt><trkpt lat="41.4019017" lon="13.040256"><ele>10.8</ele><time>2026-05-03T07:35:49.007Z</time></trkpt><trkpt lat="41.4019769" lon="13.0403539"><ele>11.0</ele><time>2026-05-03T07:35:51.006Z</time></trkpt><trkpt lat="41.4020421" lon="13.040461"><ele>11.0</ele><time>2026-05-03T07:35:53.006Z</time></trkpt><trkpt lat="41.402115" lon="13.04055"><ele>11.0</ele><time>2026-05-03T07:35:55.006Z</time></trkpt><trkpt lat="41.4021758" lon="13.0406302"><ele>11.0</ele><time>2026-05-03T07:35:57.006Z</time></trkpt><trkpt lat="41.4022308" lon="13.0407071"><ele>11.0</ele><time>2026-05-03T07:35:59.006Z</time></trkpt><trkpt lat="41.402281" lon="13.0407812"><ele>11.0</ele><time>2026-05-03T07:36:01.007Z</time></trkpt><trkpt lat="41.4023324" lon="13.0408504"><ele>11.0</ele><time>2026-05-03T07:36:03.006Z</time></trkpt><trkpt lat="41.4023836" lon="13.0409174"><ele>10.666666666666666</ele><time>2026-05-03T07:36:05.006Z</time></trkpt><trkpt lat="41.4024409" lon="13.0409845"><ele>10.333333333333332</ele><time>2026-05-03T07:36:07.007Z</time></trkpt><trkpt lat="41.4024918" lon="13.0410693"><ele>10.0</ele><time>2026-05-03T07:36:09.007Z</time></trkpt><trkpt lat="41.4025504" lon="13.0411522"><ele>9.666666666666666</ele><time>2026-05-03T07:36:11.007Z</time></trkpt><trkpt lat="41.4026083" lon="13.0412372"><ele>9.333333333333334</ele><time>2026-05-03T07:36:13.006Z</time></trkpt><trkpt lat="41.4026716" lon="13.0413239"><ele>9.0</ele><time>2026-05-03T07:36:15.007Z</time></trkpt><trkpt lat="41.4027379" lon="13.0414095"><ele>9.0</ele><time>2026-05-03T07:36:17.006Z</time></trkpt><trkpt lat="41.4028034" lon="13.0414965"><ele>9.0</ele><time>2026-05-03T07:36:19.007Z</time></trkpt><trkpt lat="41.4028645" lon="13.0415829"><ele>9.0</ele><time>2026-05-03T07:36:21.007Z</time></trkpt><trkpt lat="41.4029266" lon="13.0416682"><ele>9.0</ele><time>2026-05-03T07:36:23.007Z</time></trkpt><trkpt lat="41.4029905" lon="13.0417518"><ele>9.0</ele><time>2026-05-03T07:36:25.006Z</time></trkpt><trkpt lat="41.4030534" lon="13.0418378"><ele>8.8</ele><time>2026-05-03T07:36:27.006Z</time></trkpt><trkpt lat="41.4031189" lon="13.0419222"><ele>8.600000000000001</ele><time>2026-05-03T07:36:29.006Z</time></trkpt><trkpt lat="41.4031864" lon="13.0420043"><ele>8.4</ele><time>2026-05-03T07:36:31.006Z</time></trkpt><trkpt lat="41.4032527" lon="13.0420934"><ele>8.200000000000001</ele><time>2026-05-03T07:36:33.006Z</time></trkpt><trkpt lat="41.4033095" lon="13.0421878"><ele>8.0</ele><time>2026-05-03T07:36:35.006Z</time></trkpt><trkpt lat="41.4033756" lon="13.0422799"><ele>8.0</ele><time>2026-05-03T07:36:37.006Z</time></trkpt><trkpt lat="41.4034373" lon="13.0423681"><ele>8.0</ele><time>2026-05-03T07:36:39.007Z</time></trkpt><trkpt lat="41.4035029" lon="13.0424583"><ele>8.0</ele><time>2026-05-03T07:36:41.006Z</time></trkpt><trkpt lat="41.4035644" lon="13.0425484"><ele>8.0</ele><time>2026-05-03T07:36:43.006Z</time></trkpt><trkpt lat="41.4036277" lon="13.0426353"><ele>8.0</ele><time>2026-05-03T07:36:45.006Z</time></trkpt><trkpt lat="41.4036939" lon="13.0427227"><ele>8.0</ele><time>2026-05-03T07:36:47.006Z</time></trkpt><trkpt lat="41.40376" lon="13.0428097"><ele>8.0</ele><time>2026-05-03T07:36:49.006Z</time></trkpt><trkpt lat="41.4038286" lon="13.0428941"><ele>8.0</ele><time>2026-05-03T07:36:51.006Z</time></trkpt><trkpt lat="41.4038903" lon="13.0429807"><ele>8.0</ele><time>2026-05-03T07:36:53.006Z</time></trkpt><trkpt lat="41.4039499" lon="13.0430741"><ele>8.0</ele><time>2026-05-03T07:36:55.006Z</time></trkpt><trkpt lat="41.404008" lon="13.0431635"><ele>7.6000000000000005</ele><time>2026-05-03T07:36:57.006Z</time></trkpt><trkpt lat="41.4040759" lon="13.0432501"><ele>7.200000000000001</ele><time>2026-05-03T07:36:59.006Z</time></trkpt><trkpt lat="41.4041409" lon="13.0433301"><ele>6.8</ele><time>2026-05-03T07:37:01.006Z</time></trkpt><trkpt lat="41.4042072" lon="13.0434188"><ele>6.4</ele><time>2026-05-03T07:37:03.006Z</time></trkpt><trkpt lat="41.404269" lon="13.0435102"><ele>6.0</ele><time>2026-05-03T07:37:05.007Z</time></trkpt><trkpt lat="41.4043301" lon="13.0436026"><ele>6.0</ele><time>2026-05-03T07:37:07.006Z</time></trkpt><trkpt lat="41.4043827" lon="13.0437107"><ele>6.0</ele><time>2026-05-03T07:37:09.007Z</time></trkpt><trkpt lat="41.4044327" lon="13.0438343"><ele>6.0</ele><time>2026-05-03T07:37:11.007Z</time></trkpt><trkpt lat="41.4044982" lon="13.0439455"><ele>6.0</ele><time>2026-05-03T07:37:13.007Z</time></trkpt><trkpt lat="41.4045778" lon="13.0440294"><ele>6.0</ele><time>2026-05-03T07:37:15.006Z</time></trkpt><trkpt lat="41.4046608" lon="13.0441059"><ele>6.199999999999999</ele><time>2026-05-03T07:37:17.007Z</time></trkpt><trkpt lat="41.4047387" lon="13.0441837"><ele>6.3999999999999995</ele><time>2026-05-03T07:37:19.006Z</time></trkpt><trkpt lat="41.4048108" lon="13.0442794"><ele>6.6</ele><time>2026-05-03T07:37:21.006Z</time></trkpt><trkpt lat="41.4048728" lon="13.0443719"><ele>6.8</ele><time>2026-05-03T07:37:23.006Z</time></trkpt><trkpt lat="41.4049334" lon="13.0444605"><ele>7.0</ele><time>2026-05-03T07:37:25.006Z</time></trkpt><trkpt lat="41.404991" lon="13.0445372"><ele>7.000000000000001</ele><time>2026-05-03T07:37:27.006Z</time></trkpt><trkpt lat="41.4050457" lon="13.0446187"><ele>7.0</ele><time>2026-05-03T07:37:29.006Z</time></trkpt><trkpt lat="41.4051021" lon="13.0446917"><ele>7.0</ele><time>2026-05-03T07:37:31.007Z</time></trkpt><trkpt lat="41.4051561" lon="13.0447646"><ele>7.0</ele><time>2026-05-03T07:37:33.006Z</time></trkpt><trkpt lat="41.4052147" lon="13.044842"><ele>7.000000000000001</ele><time>2026-05-03T07:37:35.006Z</time></trkpt><trkpt lat="41.4052705" lon="13.0449201"><ele>7.0</ele><time>2026-05-03T07:37:37.006Z</time></trkpt><trkpt lat="41.4053181" lon="13.0449892"><ele>7.142857142857142</ele><time>2026-05-03T07:37:39.006Z</time></trkpt><trkpt lat="41.4053692" lon="13.04506"><ele>7.285714285714286</ele><time>2026-05-03T07:37:41.007Z</time></trkpt><trkpt lat="41.4054112" lon="13.0451247"><ele>7.428571428571429</ele><time>2026-05-03T07:37:43.007Z</time></trkpt><trkpt lat="41.4054627" lon="13.0451932"><ele>7.571428571428571</ele><time>2026-05-03T07:37:45.007Z</time></trkpt><trkpt lat="41.405513" lon="13.0452536"><ele>7.7142857142857135</ele><time>2026-05-03T07:37:47.006Z</time></trkpt><trkpt lat="41.4055693" lon="13.0453243"><ele>7.857142857142857</ele><time>2026-05-03T07:37:49.007Z</time></trkpt><trkpt lat="41.4056248" lon="13.0453986"><ele>8.0</ele><time>2026-05-03T07:37:51.006Z</time></trkpt><trkpt lat="41.405682" lon="13.0454723"><ele>7.999999999999999</ele><time>2026-05-03T07:37:53.007Z</time></trkpt><trkpt lat="41.4057363" lon="13.0455562"><ele>8.0</ele><time>2026-05-03T07:37:55.006Z</time></trkpt><trkpt lat="41.4057955" lon="13.0456421"><ele>8.0</ele><time>2026-05-03T07:37:57.007Z</time></trkpt><trkpt lat="41.405854" lon="13.0457188"><ele>8.0</ele><time>2026-05-03T07:37:59.007Z</time></trkpt><trkpt lat="41.4059154" lon="13.0457994"><ele>7.999999999999999</ele><time>2026-05-03T07:38:01.006Z</time></trkpt><trkpt lat="41.4059763" lon="13.0458872"><ele>8.0</ele><time>2026-05-03T07:38:03.006Z</time></trkpt><trkpt lat="41.4060387" lon="13.0459704"><ele>8.0</ele><time>2026-05-03T07:38:05.006Z</time></trkpt><trkpt lat="41.4061015" lon="13.0460612"><ele>8.0</ele><time>2026-05-03T07:38:07.006Z</time></trkpt><trkpt lat="41.4061604" lon="13.0461569"><ele>8.0</ele><time>2026-05-03T07:38:09.006Z</time></trkpt><trkpt lat="41.4062245" lon="13.0462413"><ele>8.0</ele><time>2026-05-03T07:38:11.006Z</time></trkpt><trkpt lat="41.4062904" lon="13.046329"><ele>8.0</ele><time>2026-05-03T07:38:13.006Z</time></trkpt><trkpt lat="41.4063578" lon="13.0464209"><ele>7.833333333333333</ele><time>2026-05-03T07:38:15.006Z</time></trkpt><trkpt lat="41.4064224" lon="13.0465119"><ele>7.666666666666666</ele><time>2026-05-03T07:38:17.007Z</time></trkpt><trkpt lat="41.4064855" lon="13.0466039"><ele>7.5</ele><time>2026-05-03T07:38:19.007Z</time></trkpt><trkpt lat="41.4065462" lon="13.0466754"><ele>7.333333333333334</ele><time>2026-05-03T07:38:21.007Z</time></trkpt><trkpt lat="41.4066011" lon="13.0467505"><ele>7.166666666666667</ele><time>2026-05-03T07:38:23.006Z</time></trkpt><trkpt lat="41.4066473" lon="13.0468234"><ele>7.0</ele><time>2026-05-03T07:38:25.006Z</time></trkpt><trkpt lat="41.406688" lon="13.0468961"><ele>6.857142857142857</ele><time>2026-05-03T07:38:27.006Z</time></trkpt><trkpt lat="41.4067431" lon="13.0469573"><ele>6.714285714285714</ele><time>2026-05-03T07:38:29.006Z</time></trkpt><trkpt lat="41.4067884" lon="13.0470246"><ele>6.571428571428571</ele><time>2026-05-03T07:38:31.007Z</time></trkpt><trkpt lat="41.4068313" lon="13.0470902"><ele>6.428571428571429</ele><time>2026-05-03T07:38:33.006Z</time></trkpt><trkpt lat="41.4068647" lon="13.0471936"><ele>6.285714285714286</ele><time>2026-05-03T07:38:36.007Z</time></trkpt><trkpt lat="41.406852" lon="13.0472764"><ele>6.142857142857142</ele><time>2026-05-03T07:38:38.006Z</time></trkpt><trkpt lat="41.4068037" lon="13.0473462"><ele>6.0</ele><time>2026-05-03T07:38:40.005Z</time></trkpt><trkpt lat="41.4067437" lon="13.0474179"><ele>6.166666666666667</ele><time>2026-05-03T07:38:42.005Z</time></trkpt><trkpt lat="41.4066776" lon="13.047481"><ele>6.333333333333334</ele><time>2026-05-03T07:38:44.005Z</time></trkpt><trkpt lat="41.4066131" lon="13.0475496"><ele>6.5</ele><time>2026-05-03T07:38:46.005Z</time></trkpt><trkpt lat="41.4065485" lon="13.0476205"><ele>6.666666666666667</ele><time>2026-05-03T07:38:48.006Z</time></trkpt><trkpt lat="41.4064815" lon="13.0476953"><ele>6.833333333333334</ele><time>2026-05-03T07:38:50.005Z</time></trkpt><trkpt lat="41.4064189" lon="13.047779"><ele>7.0</ele><time>2026-05-03T07:38:52.006Z</time></trkpt><trkpt lat="41.4063583" lon="13.0478587"><ele>7.000000000000001</ele><time>2026-05-03T07:38:54.005Z</time></trkpt><trkpt lat="41.4062894" lon="13.0479403"><ele>7.0</ele><time>2026-05-03T07:38:56.005Z</time></trkpt><trkpt lat="41.4062195" lon="13.0480211"><ele>7.0</ele><time>2026-05-03T07:38:58.006Z</time></trkpt><trkpt lat="41.4061578" lon="13.0480974"><ele>7.0</ele><time>2026-05-03T07:39:00.005Z</time></trkpt><trkpt lat="41.4060983" lon="13.0481745"><ele>7.000000000000001</ele><time>2026-05-03T07:39:02.006Z</time></trkpt><trkpt lat="41.4060381" lon="13.0482572"><ele>7.0</ele><time>2026-05-03T07:39:04.006Z</time></trkpt><trkpt lat="41.4059796" lon="13.0483355"><ele>6.833333333333334</ele><time>2026-05-03T07:39:06.005Z</time></trkpt><trkpt lat="41.4059127" lon="13.0484051"><ele>6.666666666666667</ele><time>2026-05-03T07:39:08.005Z</time></trkpt><trkpt lat="41.4058365" lon="13.0484586"><ele>6.5</ele><time>2026-05-03T07:39:10.005Z</time></trkpt><trkpt lat="41.4057797" lon="13.0485261"><ele>6.333333333333334</ele><time>2026-05-03T07:39:12.005Z</time></trkpt><trkpt lat="41.4057215" lon="13.0486245"><ele>6.166666666666667</ele><time>2026-05-03T07:39:14.062Z</time></trkpt><trkpt lat="41.4056972" lon="13.0487386"><ele>6.0</ele><time>2026-05-03T07:39:16.078Z</time></trkpt><trkpt lat="41.4056679" lon="13.0488314"><ele>6.0</ele><time>2026-05-03T07:39:18.006Z</time></trkpt><trkpt lat="41.4056151" lon="13.0489355"><ele>6.0</ele><time>2026-05-03T07:39:20.005Z</time></trkpt><trkpt lat="41.4055525" lon="13.0490209"><ele>6.0</ele><time>2026-05-03T07:39:22.006Z</time></trkpt><trkpt lat="41.4054843" lon="13.049098"><ele>6.0</ele><time>2026-05-03T07:39:24.006Z</time></trkpt><trkpt lat="41.4054156" lon="13.0491795"><ele>6.0</ele><time>2026-05-03T07:39:26.005Z</time></trkpt><trkpt lat="41.4053545" lon="13.0492753"><ele>6.166666666666667</ele><time>2026-05-03T07:39:28.005Z</time></trkpt><trkpt lat="41.4052925" lon="13.0493601"><ele>6.333333333333334</ele><time>2026-05-03T07:39:30.006Z</time></trkpt><trkpt lat="41.4052337" lon="13.0494408"><ele>6.5</ele><time>2026-05-03T07:39:32.006Z</time></trkpt><trkpt lat="41.4052008" lon="13.0495449"><ele>6.666666666666667</ele><time>2026-05-03T07:39:34.006Z</time></trkpt><trkpt lat="41.4052245" lon="13.049641"><ele>6.833333333333334</ele><time>2026-05-03T07:39:36.005Z</time></trkpt><trkpt lat="41.4052792" lon="13.0497219"><ele>7.0</ele><time>2026-05-03T07:39:38.006Z</time></trkpt><trkpt lat="41.4053312" lon="13.0498004"><ele>7.000000000000001</ele><time>2026-05-03T07:39:40.005Z</time></trkpt><trkpt lat="41.4053922" lon="13.0498783"><ele>7.0</ele><time>2026-05-03T07:39:42.006Z</time></trkpt><trkpt lat="41.4054479" lon="13.0499669"><ele>7.0</ele><time>2026-05-03T07:39:44.005Z</time></trkpt><trkpt lat="41.4055069" lon="13.0500612"><ele>7.0</ele><time>2026-05-03T07:39:46.006Z</time></trkpt><trkpt lat="41.4055721" lon="13.0501453"><ele>7.000000000000001</ele><time>2026-05-03T07:39:48.005Z</time></trkpt><trkpt lat="41.4056382" lon="13.0502346"><ele>7.0</ele><time>2026-05-03T07:39:50.005Z</time></trkpt><trkpt lat="41.405701" lon="13.0503156"><ele>6.666666666666667</ele><time>2026-05-03T07:39:52.005Z</time></trkpt><trkpt lat="41.4057543" lon="13.0504024"><ele>6.333333333333334</ele><time>2026-05-03T07:39:54.005Z</time></trkpt><trkpt lat="41.4058117" lon="13.0504827"><ele>6.0</ele><time>2026-05-03T07:39:56.005Z</time></trkpt><trkpt lat="41.4058612" lon="13.0505656"><ele>5.666666666666667</ele><time>2026-05-03T07:39:58.005Z</time></trkpt><trkpt lat="41.4059117" lon="13.0506274"><ele>5.333333333333334</ele><time>2026-05-03T07:40:00.006Z</time></trkpt><trkpt lat="41.4059661" lon="13.0506794"><ele>5.0</ele><time>2026-05-03T07:40:02.005Z</time></trkpt><trkpt lat="41.4060185" lon="13.0507379"><ele>4.857142857142857</ele><time>2026-05-03T07:40:04.005Z</time></trkpt><trkpt lat="41.4060654" lon="13.0507985"><ele>4.714285714285714</ele><time>2026-05-03T07:40:06.005Z</time></trkpt><trkpt lat="41.4061129" lon="13.0508568"><ele>4.571428571428571</ele><time>2026-05-03T07:40:08.006Z</time></trkpt><trkpt lat="41.4061589" lon="13.0509521"><ele>4.428571428571429</ele><time>2026-05-03T07:40:11.006Z</time></trkpt><trkpt lat="41.4061502" lon="13.0510687"><ele>4.285714285714286</ele><time>2026-05-03T07:40:14.006Z</time></trkpt><trkpt lat="41.4060955" lon="13.0511238"><ele>4.142857142857142</ele><time>2026-05-03T07:40:16.005Z</time></trkpt><trkpt lat="41.4060492" lon="13.0511909"><ele>4.0</ele><time>2026-05-03T07:40:18.006Z</time></trkpt><trkpt lat="41.4060019" lon="13.0512596"><ele>4.0</ele><time>2026-05-03T07:40:20.005Z</time></trkpt><trkpt lat="41.405958" lon="13.0513251"><ele>4.0</ele><time>2026-05-03T07:40:22.005Z</time></trkpt><trkpt lat="41.4059058" lon="13.0513836"><ele>4.0</ele><time>2026-05-03T07:40:24.005Z</time></trkpt><trkpt lat="41.4058556" lon="13.0514353"><ele>4.0</ele><time>2026-05-03T07:40:26.005Z</time></trkpt><trkpt lat="41.4057872" lon="13.0515171"><ele>4.0</ele><time>2026-05-03T07:40:29.006Z</time></trkpt><trkpt lat="41.4057313" lon="13.0516021"><ele>4.0</ele><time>2026-05-03T07:40:32.005Z</time></trkpt><trkpt lat="41.40571" lon="13.0516898"><ele>4.0</ele><time>2026-05-03T07:40:35.005Z</time></trkpt></trkseg></trk></gpx>